GFSGL_925_rhum_000.txt.gz
RH
22 22 22 22 22 23 24 22 45 64 69 67 65 74 68 49 50 49 38 40 46 53 59 58 53 54 50 50 48 46 46 56 78 68 67 62 42 57 62 71 71 53 69
23 24 26 27 30 33 37 43 53 63 62 59 62 63 63 47 41 36 37 42 48 54 51 54 55 51 54 55 53 53 61 67 87 88 84 80 60 62 54 65 68 72 56
25 28 31 34 37 41 46 53 58 60 59 59 71 64 38 37 36 36 39 46 54 51 55 58 55 64 67 62 62 72 71 87 95 98 95 89 80 66 64 57 56 62 61
30 33 36 39 44 47 50 58 72 75 76 66 55 50 36 34 41 40 48 52 52 55 60 64 68 79 74 74 87 80 82 83 91 91 93 95 89 74 64 55 50 47 41
33 36 40 43 45 48 55 64 75 84 80 77 62 35 40 40 45 52 54 56 62 69 76 83 93 93 88 94 81 85 85 94 94 93 88 82 93 84 63 63 56 48 44
36 39 42 45 47 49 56 66 77 79 60 52 46 49 41 52 55 55 60 71 82 93 88 94 94 91 86 85 87 84 85 90 92 96 90 89 87 97 97 85 68 67 58
38 40 44 51 50 53 65 71 77 78 74 71 68 56 56 55 54 50 50 58 76 83 85 76 78 81 86 91 86 91 88 95 97 97 98 93 96 94 88 92 83 73 68
38 42 46 52 53 60 68 72 70 75 78 76 66 61 54 50 46 45 52 68 79 79 74 82 87 93 93 89 96 97 93 94 92 91 92 90 91 95 95 84 85 85 80
40 43 47 53 55 58 67 69 59 64 72 59 59 53 49 46 47 57 81 84 85 77 83 84 94 93 91 92 93 98 96 92 86 88 86 89 93 96 96 100 97 96 86
42 46 48 52 55 59 64 57 45 45 44 58 57 51 49 49 49 64 85 85 84 90 87 91 90 94 90 88 96 98 98 97 98 96 95 81 82 78 80 87 96 98 96
50 50 51 54 58 57 56 54 52 50 60 58 54 52 53 53 54 67 85 85 87 94 88 87 90 98 81 77 94 92 97 96 98 98 100 97 95 93 88 79 70 78 98
57 61 61 62 64 56 59 53 48 57 60 54 56 56 59 58 59 66 88 88 85 85 76 89 93 88 83 87 91 95 99 90 92 93 93 97 99 96 95 96 93 85 73
60 70 66 67 68 59 63 56 56 59 55 58 60 60 64 63 62 71 83 85 75 81 78 85 90 85 79 74 90 100 90 93 97 98 98 99 98 97 96 97 95 95 98
81 78 77 73 68 61 63 61 58 57 60 62 65 64 69 68 65 73 90 82 78 78 80 70 73 70 62 70 71 76 81 94 98 98 99 96 96 96 97 97 97 97 98
94 93 87 86 72 74 62 59 66 68 64 64 67 70 72 74 69 71 91 84 82 81 60 70 77 78 71 74 76 77 79 74 91 95 95 95 96 96 97 97 97 97 97
85 87 88 99 99 99 74 68 67 66 66 70 73 74 75 78 74 74 91 86 80 78 63 75 84 88 86 82 90 84 77 65 80 96 95 96 97 97 97 96 96 96 97
78 81 82 85 100 99 94 74 67 69 69 74 72 74 76 78 79 77 87 88 78 75 74 76 78 88 92 83 87 86 90 65 77 95 96 96 96 94 95 99 95 95 97
82 88 90 90 97 95 98 98 90 85 78 80 76 78 76 80 86 86 86 90 80 80 76 81 83 78 85 90 85 87 76 53 65 93 95 96 96 97 94 97 97 97 92
96 96 94 83 70 70 82 100 98 92 85 88 81 82 80 81 90 97 94 80 77 84 80 79 83 85 80 83 82 79 68 56 53 79 95 95 94 95 95 96 92 83 84
98 96 96 83 71 69 79 89 95 95 91 96 83 75 78 79 87 83 86 87 84 88 85 81 82 85 86 80 80 74 78 57 46 46 85 92 90 87 95 89 95 84 76
94 99 99 98 85 74 72 82 78 76 84 95 86 72 78 86 86 81 80 87 89 89 88 85 88 88 87 83 79 71 79 74 54 49 60 87 85 80 87 86 89 83 76
98 100 96 97 98 90 71 70 82 74 78 84 90 75 79 82 87 86 84 88 88 88 87 89 90 93 87 86 81 71 73 71 46 40 44 77 78 78 75 83 82 84 77
80 93 94 98 99 98 93 84 84 81 76 76 88 86 78 79 78 80 89 89 80 77 75 85 89 92 89 88 85 76 69 75 52 37 35 71 82 77 78 79 78 77 75
78 90 100 99 99 98 96 85 81 80 73 74 77 87 86 78 78 79 78 79 83 84 84 85 88 90 89 89 88 85 71 78 67 42 36 62 82 82 77 76 71 70 71
88 100 100 99 99 98 98 97 91 91 89 95 86 79 81 85 80 81 84 86 82 82 84 81 86 91 90 90 88 88 78 85 78 51 42 52 70 85 82 76 81 71 75
99 100 100 100 99 98 98 98 98 97 97 97 97 97 90 81 81 82 84 84 83 83 80 86 90 91 93 92 88 89 85 88 80 64 57 50 48 66 78 67 88 85 78

GFSGL_925_rhum_003.txt.gz
RH
21 23 25 25 26 28 31 34 40 51 68 76 70 65 61 58 56 43 40 38 41 60 65 65 60 57 54 51 53 51 51 51 52 47 45 50 57 58 53 54 60 69 66
23 26 28 29 32 35 40 44 50 61 67 70 70 71 73 61 43 33 36 39 43 60 60 58 56 56 55 57 58 57 56 57 58 52 53 67 62 64 62 66 62 59 77
25 28 31 36 40 43 46 50 56 69 76 82 75 71 55 48 34 36 44 53 55 58 57 62 62 63 63 64 64 63 70 72 70 75 58 53 56 59 63 63 66 67 64
28 31 36 42 44 46 49 56 60 70 82 80 79 71 55 38 41 45 47 58 60 62 67 69 73 75 75 75 81 87 86 79 71 68 70 60 61 55 79 62 56 67 56
28 35 40 44 46 47 50 55 60 71 81 70 64 41 45 45 46 53 59 66 73 72 73 75 75 87 87 83 77 77 75 75 76 72 64 59 59 60 90 89 65 55 55
31 36 40 46 48 48 54 60 61 70 75 75 72 59 54 56 57 54 53 68 66 63 64 63 66 69 68 82 83 84 85 77 79 76 82 62 51 54 70 90 94 68 46
31 34 39 45 46 51 55 66 77 81 79 84 70 68 69 58 49 42 40 63 62 65 66 65 68 67 78 75 72 75 87 88 87 82 82 68 62 63 78 91 88 85 67
31 35 39 43 47 52 56 70 77 80 78 80 73 63 55 58 44 43 43 71 69 69 70 74 74 75 75 83 80 82 77 71 74 75 82 76 71 70 78 90 75 76 68
38 38 40 44 48 54 63 67 64 54 62 74 71 67 55 56 45 45 52 78 80 77 80 80 81 78 81 86 74 81 72 67 79 86 95 94 91 92 90 84 92 79 71
34 44 46 49 53 64 63 57 54 58 51 54 68 57 48 48 49 48 65 84 84 80 77 76 86 90 91 77 74 83 82 88 77 81 82 80 84 77 92 86 72 88 82
49 50 50 54 61 63 63 55 54 55 57 66 61 52 51 53 53 53 73 86 84 79 71 67 80 92 80 80 83 83 92 94 91 89 83 77 77 79 80 80 75 71 67
52 56 64 70 72 67 72 62 54 54 70 66 55 57 59 58 56 59 68 86 85 84 82 75 86 84 84 86 85 91 93 98 95 92 89 84 84 86 85 84 86 87 76
66 76 82 85 78 77 72 62 58 65 70 68 69 76 73 69 64 62 67 77 88 83 87 79 82 87 80 76 85 93 85 92 94 91 89 88 93 98 99 98 97 92 93
84 87 92 90 86 75 71 62 63 68 70 69 73 76 75 78 79 71 78 92 86 84 84 74 71 75 70 76 80 82 89 88 97 97 94 96 99 98 98 99 94 97 94
91 83 81 89 92 87 74 66 58 59 67 69 71 77 84 86 81 70 74 88 89 86 76 84 77 80 76 69 74 79 80 75 85 100 98 95 95 96 96 99 98 98 95
90 79 72 77 83 93 100 86 62 67 67 66 68 70 72 74 76 75 72 92 88 82 81 82 85 86 83 76 73 76 78 77 79 98 100 97 96 95 94 92 96 97 95
87 84 92 84 78 100 100 100 78 73 76 70 74 72 75 75 76 78 77 90 92 85 85 81 89 93 87 78 73 72 74 81 85 99 100 100 100 97 93 90 89 88 88
79 83 86 90 97 98 99 99 100 92 97 90 78 77 77 79 79 81 89 91 89 90 89 85 86 90 90 81 78 75 75 80 81 92 100 100 100 99 93 90 89 89 81
86 97 92 93 89 72 67 76 100 100 100 100 94 90 77 82 84 92 99 98 92 87 86 88 88 92 92 91 93 94 94 86 80 86 99 100 100 99 95 94 94 98 86
96 89 90 98 92 85 71 75 96 99 100 98 94 97 90 77 86 97 99 100 100 97 93 94 93 93 97 98 100 99 93 90 82 78 85 100 100 100 95 98 95 91 83
97 96 100 100 100 99 98 89 83 90 91 90 88 74 78 85 89 92 95 95 80 89 90 97 98 91 88 88 88 99 94 92 92 84 82 90 100 95 92 98 95 92 86
71 72 78 90 93 96 100 100 96 92 89 93 91 86 76 89 82 95 96 85 80 81 84 86 89 92 88 95 98 100 96 92 94 87 83 77 97 92 92 90 91 91 87
91 90 89 92 96 99 100 100 100 99 97 95 92 95 95 92 86 83 81 73 74 79 84 80 76 78 84 88 85 84 86 93 93 61 52 75 94 92 92 88 86 81 81
95 93 98 99 100 100 100 100 100 98 93 94 96 94 94 92 92 87 80 73 73 76 75 77 80 80 83 88 85 85 84 75 74 75 49 48 93 94 94 85 87 88 84
89 100 100 100 100 100 100 100 100 100 100 100 100 99 99 99 98 96 88 86 77 78 80 80 81 82 82 88 86 86 84 79 79 78 58 55 66 68 92 85 92 89 88
92 100 100 100 99 99 99 100 99 98 99 98 98 98 99 99 98 100 99 97 95 82 83 82 81 82 83 88 89 89 86 81 82 79 64 63 65 89 92 90 87 92 92

GFSGL_925_rhum_006.txt.gz
RH
31 37 40 41 41 42 41 41 44 49 50 55 60 67 66 57 53 60 45 41 40 40 40 41 43 42 42 42 41 40 40 39 40 38 40 41 44 47 53 51 50 42 47
32 37 39 41 43 44 44 44 50 53 55 58 62 64 60 57 59 47 41 41 41 42 43 44 43 42 45 45 43 43 44 44 48 52 49 51 53 48 48 52 52 42 75
28 30 35 39 44 46 46 49 52 57 61 64 63 63 60 55 48 41 44 46 46 48 49 50 49 51 50 48 49 49 54 65 70 63 56 53 51 53 53 55 52 49 61
27 29 34 41 46 50 51 51 53 59 65 63 62 64 64 52 45 48 49 50 50 52 56 55 56 55 55 59 57 56 58 71 72 60 56 55 52 47 51 53 71 62 48
30 30 34 43 49 50 52 51 54 63 64 64 61 56 54 54 51 57 58 59 56 52 51 48 46 54 68 72 70 65 64 62 65 63 58 56 60 52 49 49 65 57 87
31 34 38 42 48 51 49 54 53 55 58 59 62 66 62 58 71 55 46 49 50 48 46 45 47 53 57 72 73 75 76 68 70 76 75 72 61 62 67 71 79 60 53
31 34 37 43 49 46 46 48 48 52 57 56 57 66 66 68 57 47 42 52 54 48 50 49 51 51 60 60 62 66 73 86 82 77 74 64 70 62 60 58 68 83 60
32 34 38 42 42 42 43 47 50 52 52 50 51 60 64 68 52 44 44 58 53 51 54 56 57 58 59 75 68 61 54 51 56 63 67 72 77 86 91 74 68 65 63
35 36 31 34 38 38 40 47 51 52 50 48 55 60 62 57 54 48 51 64 64 65 62 57 62 64 71 83 72 65 56 50 70 78 73 80 84 94 88 72 67 58 72
34 33 37 38 39 40 43 50 54 55 53 49 56 61 57 59 62 51 52 66 74 70 62 52 56 78 88 80 76 74 70 65 69 70 71 68 70 77 92 80 63 64 59
38 43 40 41 43 47 52 55 55 54 53 63 68 67 63 63 67 58 54 76 76 70 65 57 54 81 81 82 82 75 79 81 74 80 77 76 66 66 70 73 76 68 63
46 45 46 50 58 59 58 56 58 56 54 70 85 82 67 76 69 66 59 62 70 80 77 70 75 75 83 84 76 81 88 91 76 87 83 82 80 83 84 89 83 79 71
52 52 55 62 64 63 61 61 58 56 57 63 62 65 64 70 74 74 63 63 77 84 82 79 71 81 79 66 62 81 80 69 72 81 80 82 89 91 95 93 87 75 75
59 60 62 63 74 70 63 60 59 58 60 58 61 59 56 60 66 72 76 78 81 82 78 78 82 71 73 68 64 64 67 66 75 83 85 86 90 93 95 96 98 89 87
65 65 63 66 71 76 81 66 60 64 60 62 59 62 71 76 73 77 74 75 80 78 80 85 72 72 68 63 61 63 65 65 58 78 87 87 87 86 88 92 93 97 90
75 68 63 71 69 76 78 80 80 78 64 66 65 63 87 78 74 74 74 72 86 88 83 75 75 76 75 68 66 65 65 64 61 75 84 88 87 86 88 89 91 90 92
78 71 72 72 72 74 79 91 86 80 66 68 71 69 72 72 76 76 76 80 84 92 86 72 79 79 76 67 63 62 61 66 75 67 78 85 88 90 89 85 85 86 88
82 78 80 74 73 72 75 89 90 91 92 94 94 83 77 76 72 78 80 88 85 91 88 81 77 77 77 67 67 69 69 72 73 69 73 80 83 82 88 87 86 88 79
76 75 79 89 95 94 90 81 79 81 95 89 88 90 92 84 77 82 92 98 84 77 71 68 72 84 78 76 78 86 89 83 83 80 76 78 82 78 70 73 85 92 88
77 84 96 98 99 97 94 82 78 86 90 83 76 72 68 89 100 94 88 88 92 84 76 76 75 76 81 83 87 90 89 85 79 70 70 76 80 80 74 72 73 72 64
74 76 77 77 82 98 98 99 93 94 88 78 73 80 85 78 80 84 84 92 94 86 83 80 85 90 92 93 93 90 89 88 86 78 74 72 80 79 73 73 72 68 65
79 82 84 90 89 85 84 86 92 95 94 91 88 84 89 97 96 86 85 84 88 88 87 86 88 89 86 87 86 91 92 92 91 88 84 76 77 77 75 72 72 71 68
90 96 99 99 96 96 96 97 97 98 99 99 97 96 90 97 96 94 92 91 90 90 89 93 96 100 94 99 100 99 95 90 89 97 92 83 79 84 83 77 71 68 67
95 99 99 96 99 96 97 96 100 98 98 99 99 98 96 97 97 96 96 96 97 96 95 96 93 96 98 100 100 100 100 100 100 99 89 87 84 87 88 80 72 76 74
91 100 100 100 99 99 98 99 98 97 93 98 98 98 98 98 99 99 96 98 98 98 97 99 84 79 76 84 97 99 100 85 81 96 100 90 93 96 93 84 80 77 79
99 100 99 96 98 99 99 98 97 96 96 94 95 94 95 96 95 95 94 96 96 98 98 98 97 82 80 80 81 86 88 84 82 75 94 93 93 90 86 85 82 79 80

GFSGL_925_rhum_009.txt.gz
RH
35 33 37 36 38 38 37 37 37 41 40 41 42 47 46 46 46 48 50 53 42 42 45 49 45 43 44 43 39 37 36 36 40 38 36 36 44 50 49 49 48 48 48
31 35 37 38 37 36 37 38 40 42 43 45 48 48 45 44 44 43 43 40 41 44 47 46 46 46 44 38 38 38 39 40 42 46 50 56 56 54 48 50 52 48 49
30 31 32 33 37 37 39 41 42 42 44 49 48 47 45 54 52 49 41 44 52 55 49 54 53 50 41 40 43 45 45 43 48 62 64 60 51 50 49 47 46 53 50
24 24 26 34 36 38 41 43 42 43 47 50 46 47 48 48 40 40 42 46 50 55 62 49 46 43 45 58 54 53 50 54 52 54 54 50 51 52 54 55 53 60 57
24 24 27 34 39 39 42 44 43 47 48 47 46 53 60 55 46 53 57 56 50 49 47 43 40 45 48 61 61 61 61 58 54 52 58 61 60 66 56 52 65 62 60
28 30 31 35 36 36 42 44 44 41 42 42 43 46 60 59 57 60 48 52 47 44 44 43 43 44 46 53 60 74 68 65 62 61 61 62 60 54 54 64 65 60 60
29 30 32 35 35 38 40 36 37 40 42 42 41 41 56 59 71 58 47 52 53 51 47 45 46 43 50 54 59 56 55 53 59 68 68 66 79 68 81 88 72 68 71
28 30 34 33 34 34 34 34 34 39 40 40 41 44 49 60 62 57 45 56 57 54 50 51 50 50 60 71 68 62 56 49 45 50 63 69 64 64 64 65 65 60 55
34 32 32 27 28 30 30 31 34 39 40 40 41 42 43 58 60 54 48 62 63 62 59 55 52 50 64 69 74 69 60 53 48 50 57 70 75 76 81 80 68 58 68
28 33 28 29 29 30 30 32 35 40 41 42 43 46 50 58 62 57 53 67 67 67 60 56 52 58 70 82 79 75 72 63 56 60 62 71 70 67 72 84 73 73 65
34 35 34 31 32 35 38 41 43 44 44 52 60 58 62 64 68 67 61 70 73 70 63 60 59 70 78 80 83 77 79 76 73 76 76 77 71 77 82 75 84 86 87
39 37 37 38 42 45 50 50 50 48 51 56 70 71 67 66 69 71 68 59 68 76 78 70 77 72 70 82 80 63 60 84 71 67 81 79 72 79 79 78 76 74 78
45 45 45 48 53 55 56 56 53 48 52 60 67 73 63 69 94 80 74 68 68 85 82 80 78 86 77 71 62 63 70 68 64 66 81 82 81 85 90 94 98 97 69
58 55 60 62 57 64 62 58 49 51 57 61 65 61 58 48 50 75 87 87 91 91 85 83 80 73 69 64 75 65 69 67 66 61 72 82 87 86 86 85 92 97 96
74 71 64 64 63 59 60 65 69 59 57 68 64 64 63 82 66 70 79 82 82 82 77 83 75 74 68 69 65 65 67 70 63 61 69 83 87 81 78 84 88 89 97
80 75 68 67 66 64 63 68 76 75 72 72 62 66 73 72 64 66 70 71 70 71 82 74 72 87 85 71 66 63 65 64 67 69 66 68 78 83 81 85 85 85 89
77 72 72 67 64 60 70 78 82 76 80 77 69 63 66 67 76 76 74 74 77 89 88 75 76 82 85 75 63 61 63 67 74 69 68 69 72 71 77 89 82 85 80
83 74 72 70 70 76 78 78 83 88 88 91 86 74 72 78 76 75 75 85 91 92 84 73 72 78 79 72 65 65 74 87 83 73 73 77 77 74 71 64 77 88 82
66 68 72 76 83 88 87 88 83 83 84 84 80 90 91 80 83 81 79 95 85 82 77 78 79 71 74 78 78 89 91 87 87 88 79 78 83 77 70 66 65 69 71
67 69 73 78 83 80 86 87 87 85 86 86 88 84 68 85 99 99 95 90 94 86 82 79 71 71 74 78 89 95 93 90 91 90 77 79 79 80 75 69 70 66 60
66 69 70 80 84 78 83 82 82 87 85 82 84 89 88 77 82 91 91 92 92 91 87 84 80 83 87 91 91 92 90 88 86 91 84 80 80 78 77 72 68 66 62
73 76 78 85 96 97 90 88 84 85 84 85 84 87 97 97 90 88 87 86 86 90 91 91 88 84 86 90 90 92 93 94 93 88 93 89 80 77 84 79 72 68 66
85 84 87 92 99 100 100 95 93 95 91 94 95 94 95 99 99 95 92 92 90 94 96 94 93 90 86 88 95 91 94 94 93 91 90 88 83 79 87 85 82 70 67
91 91 96 96 96 98 95 96 93 98 96 98 96 95 100 100 99 98 96 95 96 97 98 98 98 97 96 92 92 92 90 91 95 93 96 92 86 81 86 85 80 76 73
100 99 100 99 97 99 98 95 98 99 95 100 99 97 99 99 99 99 99 99 99 98 99 100 100 99 97 97 97 92 94 94 95 99 98 99 92 90 90 86 83 81 82
100 100 100 100 100 99 98 99 100 100 98 96 94 94 92 93 92 87 84 86 89 90 90 96 96 98 99 97 97 97 92 99 91 85 91 95 93 90 92 91 87 81 78

GFSGL_925_rhum_012.txt.gz
RH
41 40 36 37 39 39 38 38 38 40 42 42 43 45 46 45 43 46 47 44 51 52 51 58 58 58 48 50 48 44 44 45 53 48 45 48 54 59 58 56 53 51 52
38 36 37 38 39 37 37 38 39 42 42 43 46 48 47 46 46 50 49 46 48 59 70 63 61 59 55 50 46 52 55 53 51 54 56 59 58 56 53 52 53 53 50
36 36 38 38 39 37 37 39 42 42 43 44 47 49 47 46 55 53 49 44 50 56 57 63 62 50 45 47 54 53 54 56 59 61 58 57 55 55 55 58 59 60 59
32 32 33 35 35 36 38 41 44 43 44 47 49 47 48 47 47 45 45 52 55 56 55 51 47 44 44 46 48 54 58 62 62 60 58 56 56 59 63 68 59 57 67
31 28 26 30 36 40 40 42 44 44 46 46 44 44 50 59 62 53 48 48 52 49 44 45 44 44 43 45 48 56 68 70 64 64 64 65 64 61 63 70 80 84 76
31 27 27 32 36 37 41 50 45 44 42 41 41 42 43 58 60 64 53 43 52 50 51 50 46 45 45 49 59 65 68 67 67 71 69 72 70 72 86 88 83 82 87
30 30 32 35 39 46 46 41 39 36 38 41 42 41 41 54 60 65 60 46 47 57 56 51 50 48 52 54 58 60 54 62 58 54 58 73 94 78 70 72 70 71 75
30 31 38 43 45 42 35 36 34 34 36 40 41 40 43 55 58 64 57 47 58 61 59 57 55 53 51 60 63 54 72 66 59 58 59 60 64 66 70 80 81 81 77
31 42 52 52 34 30 32 32 34 34 36 40 42 41 43 50 57 60 54 49 68 66 65 62 58 54 51 59 59 78 78 69 69 60 57 68 67 70 73 80 91 93 86
43 43 39 59 42 37 45 40 38 40 43 43 45 45 47 52 60 60 58 54 69 71 67 62 59 55 57 70 77 82 86 83 74 64 77 83 75 78 78 95 96 94 94
45 59 71 55 49 46 47 50 51 50 50 48 54 55 57 61 62 65 64 64 67 75 72 69 68 79 78 70 78 79 79 69 68 83 76 78 87 83 77 75 80 92 98
70 76 55 56 55 51 56 59 57 56 54 55 62 68 67 68 66 65 65 65 62 57 64 80 78 79 70 76 74 69 73 67 82 78 69 81 83 84 81 86 88 95 98
64 58 69 65 63 66 63 68 64 59 54 56 63 73 75 67 72 71 77 73 68 64 68 78 82 78 82 78 73 66 73 77 77 70 70 71 81 83 87 86 85 87 92
79 83 77 78 75 65 64 63 62 68 63 57 62 67 72 67 62 81 87 80 76 77 76 94 93 69 78 72 70 71 70 72 75 70 66 68 77 86 87 86 86 95 91
81 84 82 74 70 67 64 60 62 66 72 74 68 70 69 66 64 63 78 91 94 94 98 82 70 78 77 76 71 69 66 68 70 78 70 70 73 75 84 79 90 90 90
88 84 79 72 70 70 68 67 65 67 69 72 74 73 67 73 68 62 56 60 75 71 70 78 82 78 82 80 76 72 66 67 69 68 79 75 75 79 80 79 89 90 90
78 76 74 73 75 72 68 74 78 76 66 66 66 76 76 65 68 69 70 65 69 75 80 85 81 80 81 78 77 72 66 74 80 81 79 74 83 80 77 83 74 86 88
71 74 76 73 75 74 80 87 89 91 91 81 73 86 88 77 67 68 75 78 90 92 91 92 87 80 78 79 75 71 72 81 78 83 80 78 86 84 82 76 74 76 72
65 70 70 70 74 79 76 74 76 86 92 95 86 79 79 79 84 85 83 88 94 93 91 96 94 88 82 82 76 76 86 85 82 77 79 88 87 82 86 82 69 77 73
63 63 66 69 76 70 72 77 80 83 85 86 100 99 92 89 96 97 96 96 100 96 89 86 79 71 75 75 78 84 85 86 88 96 92 87 81 86 79 85 76 70 70
70 69 69 73 78 77 78 87 95 95 89 87 85 84 85 98 99 100 99 100 99 100 97 92 89 86 78 73 75 85 89 82 80 82 85 82 84 87 76 85 81 73 69
91 89 86 86 84 92 95 99 100 100 97 100 95 92 84 85 100 100 99 99 98 97 92 92 94 93 90 88 90 93 91 87 85 88 83 87 86 82 84 87 87 83 71
97 100 100 97 90 86 100 99 97 96 98 97 97 98 94 95 99 99 100 99 98 97 97 98 98 98 97 97 97 93 95 91 85 78 84 82 86 82 87 89 89 84 77
84 88 91 94 100 99 100 99 98 99 99 99 99 99 99 99 98 98 98 99 98 98 98 99 100 99 99 98 98 96 95 96 92 82 89 87 83 83 84 81 91 84 83
92 94 93 92 93 96 100 99 99 98 98 99 100 98 100 99 98 96 97 98 98 97 96 97 96 97 98 100 99 98 96 96 97 90 90 84 84 88 89 91 86 87 79
97 95 99 98 98 99 98 99 99 98 98 99 99 98 98 98 98 98 98 98 98 98 97 95 89 88 88 91 97 100 99 97 97 94 92 85 84 90 85 82 85 88 78

GFSGL_925_rhum_015.txt.gz
RH
34 36 38 36 36 37 37 38 38 39 42 43 43 45 47 48 47 47 47 47 48 53 59 64 65 60 58 54 49 48 52 54 64 62 60 62 57 56 54 55 54 51 57
37 40 37 38 39 39 40 38 39 41 42 43 43 46 48 49 49 49 50 51 54 53 56 62 65 61 53 48 46 49 51 47 63 70 65 63 59 55 55 50 55 64 58
40 40 39 38 39 40 38 39 40 42 42 43 44 47 49 50 46 46 50 51 52 55 59 57 52 52 47 46 46 44 46 50 58 63 67 60 59 57 57 60 59 65 70
39 38 36 39 40 40 39 40 42 44 44 44 44 47 48 50 49 50 53 50 47 52 49 46 47 46 45 44 45 47 52 59 65 66 68 67 68 66 68 67 80 84 79
37 37 36 36 39 40 40 41 43 46 44 44 43 45 43 50 50 58 58 51 43 38 44 50 50 48 46 46 50 60 67 68 68 75 75 72 72 74 77 93 88 79 71
35 32 31 38 40 40 43 49 50 51 49 45 42 42 41 47 52 59 59 57 44 44 53 56 53 49 47 53 60 62 65 61 69 78 79 74 72 79 90 80 75 76 73
32 32 34 36 40 52 61 60 48 53 43 39 40 41 43 42 50 59 63 62 47 48 61 59 56 54 53 54 53 52 52 36 68 67 69 66 66 64 69 72 77 89 89
34 38 44 45 51 58 60 52 46 42 44 40 39 42 43 45 49 58 63 60 50 59 64 63 62 58 56 54 52 55 47 40 52 74 74 63 73 82 83 82 84 88 90
43 48 55 54 57 67 55 41 39 56 50 44 44 45 46 50 54 59 62 55 51 64 65 67 65 62 57 55 57 66 49 48 61 74 70 67 71 87 85 96 97 98 93
59 60 59 62 68 52 50 61 57 57 55 52 54 48 46 47 50 56 58 56 55 59 64 70 65 63 58 64 76 73 66 61 71 70 75 63 68 79 82 78 86 99 97
60 72 81 83 72 66 65 60 62 61 62 62 58 55 51 52 54 57 59 61 61 61 64 64 66 74 79 79 82 72 67 72 78 73 83 64 64 75 72 74 82 95 98
82 85 80 73 69 71 60 60 63 70 67 63 62 62 61 62 63 62 63 62 63 63 58 55 62 84 78 68 80 72 75 81 76 78 81 70 67 69 75 80 78 80 83
78 82 76 75 83 76 72 67 66 64 66 72 68 67 67 68 72 72 70 70 70 72 65 64 69 78 78 70 73 74 79 78 77 81 76 71 65 72 77 72 70 74 82
74 78 78 79 80 78 73 66 65 64 62 66 73 74 67 68 72 74 75 73 80 78 73 71 77 84 73 74 80 70 71 70 71 75 77 71 69 72 74 70 79 89 97
72 77 80 80 80 74 71 70 68 63 63 62 65 72 75 75 72 67 68 73 77 79 79 83 97 96 65 76 80 75 68 71 70 72 72 75 80 79 76 70 82 91 95
75 75 73 77 77 75 73 70 69 71 67 69 64 64 68 76 73 78 84 85 72 91 98 100 97 73 73 74 82 80 68 73 72 75 75 81 72 82 82 78 76 82 89
75 70 68 70 74 69 71 74 76 77 84 86 84 76 68 72 80 79 82 79 69 77 83 80 76 74 71 70 77 81 70 75 73 74 71 79 72 87 82 84 79 72 86
70 67 67 68 69 71 74 77 85 85 77 77 70 83 84 77 74 83 85 97 98 88 78 79 78 77 77 79 80 80 72 76 78 75 68 70 74 91 80 86 86 76 74
75 72 70 67 66 69 74 81 72 74 77 78 70 67 68 77 86 90 91 98 100 96 88 88 82 80 78 76 75 78 84 77 77 73 71 82 88 92 83 78 89 80 72
90 88 88 88 86 83 80 84 88 84 79 84 86 82 77 95 99 99 99 98 100 99 96 94 90 82 81 80 79 84 92 81 83 80 79 87 91 84 87 75 87 85 74
88 96 94 98 100 99 96 95 98 96 92 93 92 88 83 90 100 100 100 100 98 99 99 97 97 91 84 82 76 77 78 80 81 78 77 82 82 79 80 76 90 89 81
99 94 89 87 86 88 90 99 99 98 95 100 99 98 91 95 92 96 100 99 98 97 98 98 97 93 84 83 82 83 83 85 83 83 78 78 81 79 81 79 94 93 81
76 90 98 98 96 95 94 92 93 97 98 99 96 99 98 97 98 95 96 98 99 99 99 100 98 98 93 94 96 97 97 92 86 85 83 80 80 78 81 80 95 86 89
100 100 99 99 100 99 98 97 93 93 95 100 98 99 99 92 100 100 100 99 99 99 100 99 98 98 98 98 98 99 99 98 96 93 92 88 81 78 78 85 82 90 92
100 96 99 100 99 98 99 98 97 98 99 99 99 98 94 100 100 99 98 98 99 99 98 98 98 98 98 100 100 100 100 100 99 98 97 95 84 82 81 80 90 93 90
100 97 92 100 100 100 99 97 97 97 98 97 97 97 96 96 96 96 96 92 90 90 93 95 94 95 95 95 93 96 100 100 100 100 98 97 95 87 84 84 92 84 86

GFSGL_925_rhum_021.txt.gz
RH
54 54 55 48 37 32 32 29 30 34 36 34 35 35 38 44 47 49 51 50 48 52 55 60 63 63 63 62 60 56 53 53 62 51 51 51 53 51 48 53 55 60 66
52 52 51 45 36 36 33 31 34 35 36 37 37 40 39 40 47 50 51 48 47 49 56 59 59 63 64 62 55 53 50 48 52 62 60 60 58 47 58 61 62 67 70
56 54 48 40 36 35 36 37 38 37 40 41 42 43 45 42 46 49 51 48 49 49 52 56 60 58 54 53 50 48 48 50 56 67 74 66 57 62 67 70 66 67 73
69 60 50 39 35 37 39 36 39 40 42 42 44 46 50 41 43 45 48 49 50 50 51 57 54 51 48 47 49 49 50 54 62 69 67 67 73 69 77 76 74 75 78
65 64 51 38 40 42 38 40 40 43 43 45 47 58 47 47 45 43 45 50 52 54 54 51 48 48 50 52 52 51 55 64 65 62 66 78 79 79 80 74 85 88 85
59 54 51 48 50 45 44 44 46 48 50 54 78 66 56 52 50 50 47 51 57 57 51 53 67 54 54 55 55 57 60 60 60 65 66 80 79 84 75 92 96 98 87
55 56 56 57 55 52 52 56 60 65 78 79 69 66 54 48 40 42 51 54 62 58 54 72 54 57 58 60 60 60 59 59 64 54 57 72 84 79 91 98 98 99 97
64 61 64 62 60 64 65 71 79 90 87 77 68 58 54 49 47 47 50 57 63 59 67 71 59 60 63 64 63 61 61 62 68 52 67 73 82 92 86 92 99 92 90
68 71 71 70 73 79 86 91 90 88 88 72 62 60 57 55 54 48 52 62 62 62 63 66 57 61 60 65 65 65 64 74 59 60 65 69 73 77 74 84 86 100 92
79 76 71 82 90 88 92 89 88 87 71 65 62 61 60 56 59 56 57 61 63 63 62 57 58 58 58 64 66 65 82 69 64 68 70 72 73 78 76 67 80 100 95
73 76 82 86 93 95 93 94 92 74 66 64 62 57 64 63 60 59 58 62 61 60 59 57 56 59 58 57 65 79 83 74 72 78 81 82 81 78 78 67 72 76 100
82 90 96 96 95 99 97 90 69 68 71 70 65 63 60 58 61 61 59 58 57 59 58 57 58 62 58 57 75 78 83 82 93 87 84 83 78 78 76 73 72 70 83
92 92 94 94 93 85 81 76 76 74 72 71 71 70 67 59 58 66 62 60 61 61 61 61 63 67 63 61 69 78 80 73 77 81 76 76 74 79 76 72 70 71 70
65 66 65 65 65 64 67 72 78 77 74 75 77 74 69 68 64 62 70 70 68 72 84 75 68 74 69 66 69 76 76 68 80 81 78 74 76 81 80 74 80 76 74
69 70 71 72 73 71 67 65 66 66 71 77 77 73 77 76 70 68 68 69 74 76 73 92 98 97 80 74 79 78 81 68 78 80 82 77 78 83 81 77 79 82 81
85 87 88 88 86 86 87 86 79 78 78 77 71 72 73 73 70 72 79 80 81 80 97 98 99 98 95 87 83 80 84 77 69 74 84 78 77 76 73 77 80 82 86
79 73 70 71 77 89 97 100 100 85 85 74 73 72 72 70 75 78 75 67 76 90 99 100 100 100 97 97 96 88 86 79 68 71 84 81 77 78 69 75 83 83 83
64 65 71 75 78 84 88 92 89 88 90 90 92 95 91 82 79 93 94 98 99 100 100 100 100 100 100 97 97 92 83 76 72 68 80 82 79 86 74 79 85 85 86
56 69 83 88 90 94 94 96 95 94 93 90 87 83 79 82 92 95 93 100 99 98 100 100 100 98 97 97 96 93 79 73 72 71 74 83 82 93 86 83 84 87 87
72 85 92 95 96 94 96 99 96 94 93 93 94 94 93 92 96 99 95 96 99 100 99 100 94 98 99 96 97 95 88 85 76 74 74 78 86 95 92 88 84 85 87
100 98 95 96 97 100 100 100 99 99 97 97 98 96 95 100 98 97 91 92 100 99 97 97 97 93 94 98 99 97 97 96 84 74 74 81 87 96 94 91 83 78 89
96 81 77 91 99 100 100 100 100 100 100 100 99 100 99 100 99 99 99 99 98 98 96 96 96 92 97 98 98 97 97 97 91 80 77 76 81 92 97 93 84 79 84
100 87 79 83 94 95 98 99 100 100 100 100 100 100 100 100 100 100 98 99 99 99 99 99 96 96 96 96 97 97 97 96 91 89 95 90 82 87 97 95 88 81 82
85 94 86 84 88 96 97 100 100 100 100 100 100 100 100 100 100 99 98 96 96 95 96 98 100 100 99 98 98 97 97 98 98 97 98 97 97 97 97 96 94 83 77
81 86 90 86 86 94 94 100 100 100 100 100 100 100 100 100 100 100 98 96 96 95 95 96 96 95 97 97 97 98 98 98 98 98 98 98 97 97 97 97 95 89 81
83 84 97 94 88 83 88 100 99 100 100 100 100 100 100 100 100 100 100 97 96 96 95 95 96 92 82 75 81 93 97 97 96 97 98 100 98 97 97 97 97 94 80

GFSGL_925_rhum_024.txt.gz
RH
80 82 84 81 78 76 66 42 31 32 30 30 28 32 39 40 43 48 50 50 50 48 48 50 53 62 66 65 65 63 61 60 65 56 52 50 53 56 40 44 51 59 61
76 79 80 77 76 65 47 36 33 33 30 33 32 37 39 42 42 48 51 53 50 49 48 51 52 60 60 61 63 63 58 55 55 58 55 56 60 50 41 54 60 62 62
75 78 78 70 62 51 42 36 35 32 36 35 38 41 42 46 53 45 51 52 51 50 50 52 50 58 62 62 60 58 55 51 53 60 64 69 65 44 50 64 70 65 71
75 72 74 70 58 45 42 40 35 36 37 40 42 44 51 64 54 43 43 44 46 49 51 53 54 60 60 54 55 49 51 53 55 62 69 67 63 48 64 80 74 80 76
73 73 73 69 60 52 44 41 39 40 41 42 45 50 78 83 56 50 48 46 48 49 53 54 56 60 51 49 49 52 53 54 62 67 65 69 70 65 83 78 90 92 90
71 71 67 63 59 56 50 48 44 45 47 50 61 83 79 73 56 52 50 56 57 54 55 56 56 50 67 52 54 56 57 59 63 63 66 74 64 72 78 92 97 92 80
75 75 73 69 66 59 53 51 51 56 66 84 85 88 80 67 55 49 48 50 49 56 59 58 54 65 62 55 58 61 64 63 61 64 73 60 68 74 90 96 96 97 93
70 69 70 69 66 64 60 64 80 87 86 92 92 88 71 58 56 55 51 49 53 58 64 61 55 69 64 58 61 65 66 63 63 69 66 57 71 82 95 96 92 84 92
78 77 76 72 71 70 84 92 96 98 98 92 93 88 91 60 59 57 54 55 56 62 67 60 64 68 62 59 62 66 66 64 65 72 61 74 87 88 82 91 75 93 91
83 83 83 83 91 94 98 97 93 95 92 86 98 91 65 59 54 60 62 62 66 67 64 61 63 65 58 58 62 64 71 65 69 67 66 72 78 79 78 80 71 94 96
86 86 89 91 89 84 87 94 96 96 96 81 73 66 66 60 59 58 62 66 65 66 64 64 62 62 59 59 60 60 60 60 74 75 78 83 79 77 76 78 73 77 96
87 88 91 95 96 99 99 99 92 82 76 75 76 70 63 62 65 64 58 68 65 71 67 64 62 59 60 60 62 59 62 74 86 87 97 91 79 75 76 79 74 71 74
81 78 77 77 77 76 74 70 70 71 77 78 78 76 70 64 62 65 66 62 67 71 68 62 63 65 63 64 65 61 68 84 96 100 94 82 72 75 79 82 75 72 70
70 74 76 77 77 78 79 78 78 75 76 78 82 86 80 77 72 63 68 68 67 69 72 69 68 73 85 87 79 72 76 78 90 85 77 81 80 76 78 81 78 77 82
82 85 84 80 78 74 72 73 75 76 85 93 96 95 97 95 86 80 76 75 73 72 70 82 90 91 97 99 97 90 78 95 89 85 76 81 83 80 79 76 73 80 87
69 69 65 58 56 59 73 65 53 60 72 82 90 94 96 100 100 99 97 97 90 83 91 99 100 100 100 100 99 100 97 97 96 84 79 76 85 80 78 75 70 83 86
59 65 61 68 80 92 92 96 98 82 85 83 85 86 84 75 67 77 88 85 99 100 99 99 98 99 100 100 100 100 99 96 97 94 84 72 81 83 79 81 70 86 84
50 65 73 82 85 84 83 96 99 99 98 95 93 89 91 97 98 95 90 94 96 96 99 99 98 99 98 100 100 100 98 97 97 92 85 73 79 84 80 85 78 84 90
64 84 82 93 81 81 91 97 99 99 98 97 96 90 96 99 96 94 96 99 94 96 97 99 100 99 98 97 100 100 97 96 97 88 80 74 72 85 82 87 89 86 92
68 68 74 78 86 95 98 99 100 100 99 98 99 100 100 99 98 100 100 99 99 98 96 97 97 96 100 98 94 97 97 97 96 96 79 74 71 80 85 88 94 90 87
76 70 69 77 82 90 86 100 100 100 100 100 100 100 100 100 100 100 100 100 100 98 100 99 97 99 96 97 91 97 98 97 97 96 96 75 73 80 83 88 95 91 86
77 73 73 83 82 89 87 95 100 100 100 100 100 100 100 100 100 100 100 100 100 100 98 99 99 98 98 94 88 93 96 98 96 97 97 83 74 78 84 92 97 93 86
80 77 73 76 78 83 81 85 100 98 100 100 100 100 100 100 100 100 100 100 100 98 97 95 96 97 98 98 96 96 98 97 94 96 97 86 78 81 86 91 96 96 88
76 79 82 82 81 79 79 87 96 89 98 100 98 100 100 100 100 100 100 100 100 97 96 96 95 96 96 97 98 99 98 98 98 97 97 96 92 92 91 91 96 94 87
77 77 84 91 90 85 78 80 88 90 94 95 94 100 100 96 100 100 100 100 100 98 96 96 96 96 95 96 97 97 97 97 97 97 97 97 97 97 96 96 96 97 93
78 78 77 92 95 91 84 81 83 86 92 93 92 95 98 97 100 99 99 100 100 97 96 96 96 96 95 95 96 96 96 97 98 97 97 97 97 97 96 96 96 96 93

GFSGL_925_rhum_030.txt.gz
RH
64 74 80 86 94 98 98 98 92 83 76 74 64 65 80 52 79 68 64 52 66 65 60 54 51 46 44 44 45 45 46 45 42 38 36 34 43 49 46 44 44 39 35
64 71 78 98 100 99 98 98 94 86 83 72 68 84 51 65 60 62 52 60 67 76 59 54 49 45 50 50 48 48 48 45 44 42 41 39 40 42 45 48 42 36 38
72 78 84 90 97 98 99 99 96 93 84 80 86 62 59 57 54 53 65 72 87 78 54 50 50 50 51 52 51 50 46 45 45 46 44 42 41 39 40 40 38 37 37
74 76 78 86 87 90 94 96 93 93 91 83 68 58 57 55 52 67 83 85 90 68 62 59 54 52 51 53 52 50 50 49 49 46 43 41 37 34 38 37 30 34 36
71 70 74 81 83 82 82 81 80 82 78 70 60 54 64 58 86 90 98 94 84 67 62 61 58 59 60 57 52 50 52 51 51 45 42 40 35 33 33 34 36 39 41
69 69 72 77 74 74 74 76 80 75 71 58 56 57 75 97 91 91 94 99 80 70 64 58 56 57 67 68 64 57 56 56 55 50 46 39 36 36 37 37 40 44 41
69 70 72 72 72 75 73 71 72 63 60 58 78 85 90 77 79 98 98 96 98 85 70 62 57 51 53 64 71 67 63 57 61 53 50 42 41 42 44 40 42 44 47
66 68 70 71 70 70 71 75 65 63 64 77 90 82 83 89 98 99 100 99 95 68 60 55 52 52 50 55 63 66 66 67 69 61 58 47 44 48 48 45 52 56 52
64 65 67 68 69 70 73 79 86 80 85 90 88 88 94 98 99 100 100 82 70 62 58 56 54 54 54 60 65 62 63 66 62 65 63 57 56 57 56 55 61 56 57
70 71 71 73 74 78 81 86 88 88 92 98 100 100 98 98 93 87 78 76 72 66 65 60 59 66 66 67 69 66 68 65 58 56 64 69 67 72 70 73 62 59 55
72 74 76 77 84 88 93 97 96 95 91 86 84 75 72 71 71 77 77 86 80 77 72 67 64 66 70 68 70 74 76 75 62 53 52 52 52 48 52 64 62 57 56
78 82 84 86 80 75 69 62 58 58 62 64 70 69 69 72 76 83 90 96 99 97 94 88 80 78 78 76 74 71 75 78 86 72 66 58 55 50 50 50 51 53 56
61 60 60 61 61 62 62 62 58 60 64 66 64 65 60 66 65 71 80 78 74 78 88 89 99 97 94 95 89 82 73 86 97 90 83 70 66 63 59 56 55 59 60
61 61 61 60 56 54 49 46 45 51 54 51 52 55 56 61 59 77 78 75 73 76 77 79 84 74 85 99 99 92 91 88 94 90 82 78 81 90 69 64 64 63 64
57 56 56 52 42 40 40 50 51 61 70 66 66 64 74 76 78 92 93 86 87 89 95 95 80 71 67 80 92 100 100 96 97 97 93 94 97 99 95 76 68 64 63
47 48 57 52 49 40 40 42 60 58 55 70 84 91 85 90 93 95 94 93 94 89 80 74 83 86 84 72 70 88 99 100 100 99 99 98 98 98 95 85 70 67 64
45 49 52 52 49 50 51 51 49 58 68 78 84 86 90 93 96 95 93 93 87 81 74 72 80 84 86 80 87 85 89 97 99 99 98 98 97 97 97 96 80 69 66
55 56 53 53 53 57 58 60 60 62 65 62 68 76 83 88 92 90 88 83 73 72 74 77 79 83 84 84 83 92 97 90 99 99 99 99 98 97 96 94 81 68 65
46 52 64 69 71 70 66 64 63 64 65 64 63 63 72 85 86 83 84 81 82 78 77 80 82 83 88 91 93 96 98 99 99 99 98 98 97 96 96 93 79 67 68
64 70 74 66 66 65 64 65 62 66 66 66 66 72 78 82 80 78 80 83 84 82 83 84 85 87 91 92 95 96 100 99 98 98 98 97 98 98 95 94 81 71 72
57 66 73 65 67 68 70 69 68 70 71 70 72 80 97 92 81 80 80 82 86 87 88 90 91 92 94 93 95 96 96 99 99 98 98 98 97 98 98 94 80 72 72
66 66 68 70 71 78 76 72 75 78 76 76 78 78 86 83 82 82 80 86 92 92 94 94 96 96 96 96 97 96 98 97 98 97 98 98 99 98 99 98 90 78 74
77 81 75 73 80 81 82 82 82 85 82 83 83 83 85 86 88 87 90 93 94 96 99 100 100 100 100 100 99 100 97 96 96 98 97 98 99 99 98 97 90 86 87
83 87 76 78 86 84 88 90 90 87 88 87 89 89 88 91 93 93 95 97 99 100 100 100 100 100 100 100 100 100 100 97 96 97 98 97 99 99 98 98 92 84 88
90 90 88 88 93 93 94 91 91 92 91 91 92 92 92 94 93 95 98 100 100 100 100 100 100 100 100 100 100 100 96 96 95 97 98 96 98 98 98 98 93 88 90
89 89 89 93 92 94 93 94 93 93 93 94 96 97 98 97 97 100 100 100 100 100 100 100 100 100 100 100 100 98 96 96 95 95 97 99 99 98 98 98 97 93 93

GFSGL_925_rhum_033.txt.gz
RH
53 58 67 72 74 80 91 96 96 93 84 73 79 81 77 72 73 75 76 71 62 62 68 72 67 58 50 43 41 41 40 38 40 36 34 34 35 37 38 43 45 43 41
55 58 67 77 82 89 97 99 98 94 90 84 75 82 85 80 77 85 81 65 56 70 77 88 74 55 47 46 45 44 43 44 44 43 39 37 37 37 38 42 42 41 37
52 54 64 93 95 95 96 100 98 97 91 83 81 88 87 81 80 82 71 55 86 81 82 85 61 52 50 47 47 49 50 50 44 44 44 39 37 37 37 36 37 35 37
57 62 65 77 89 92 93 98 99 97 93 91 90 85 86 78 72 61 58 89 83 74 91 78 64 56 52 52 53 54 54 55 54 50 47 42 36 35 35 34 34 31 30
62 64 70 77 77 78 84 88 92 94 92 93 90 84 69 66 62 70 87 87 73 93 90 73 65 62 59 58 57 57 56 56 54 53 49 42 36 36 34 31 32 34 32
59 60 66 68 68 71 72 73 78 80 79 78 73 70 65 66 78 82 80 84 96 99 94 80 74 71 67 63 56 57 60 65 63 56 54 48 40 38 36 35 36 36 35
58 61 64 64 68 70 68 68 66 68 72 73 73 67 66 84 79 84 84 87 96 98 98 100 89 71 56 49 47 46 52 60 65 70 61 60 50 43 40 40 40 38 36
57 61 63 64 64 64 63 66 71 73 72 74 73 70 71 76 85 82 84 97 99 98 98 75 58 53 50 48 49 50 52 59 73 74 62 62 58 49 41 42 44 42 47
55 57 59 61 62 64 66 71 72 72 72 74 74 74 79 87 93 99 100 96 86 72 64 58 55 54 54 52 56 64 61 58 59 64 63 62 58 52 47 49 49 45 58
59 60 61 62 64 70 80 80 86 85 90 88 97 91 91 91 85 84 88 81 76 72 69 65 62 63 63 62 62 69 73 66 63 69 75 68 62 60 56 56 55 57 56
60 61 67 73 79 83 85 88 88 87 87 86 81 69 64 63 66 76 80 90 96 91 92 90 87 86 91 96 98 94 80 76 74 71 94 83 60 60 65 70 70 61 62
69 71 74 74 70 68 59 53 47 51 55 58 66 64 65 67 69 76 69 72 71 75 74 76 73 78 77 69 59 90 97 94 82 95 100 92 64 57 53 52 59 66 61
56 52 49 47 46 47 48 47 43 48 52 55 50 51 48 56 55 58 74 71 70 75 74 76 74 67 68 76 72 66 87 100 99 98 99 96 78 62 58 59 52 52 50
51 49 48 44 42 41 36 34 36 49 49 46 47 50 50 60 58 84 78 74 72 74 75 83 80 77 77 69 68 69 75 92 100 100 98 90 89 71 80 80 71 66 61
47 46 46 43 36 34 40 44 47 70 59 59 64 61 74 76 82 94 90 83 84 84 93 85 76 68 73 74 74 74 77 77 83 98 100 100 99 94 100 92 81 82 86
44 46 50 46 39 33 34 61 54 51 49 46 53 66 83 89 90 92 91 89 88 92 76 67 67 74 79 78 77 80 81 79 94 94 100 100 99 99 99 98 97 96 85
44 46 50 46 42 41 42 43 41 77 64 67 70 69 82 89 90 91 88 84 85 72 64 61 66 73 85 83 82 84 84 83 87 98 100 100 99 99 99 99 97 93 91
50 44 43 44 46 47 48 52 51 55 60 60 70 64 68 80 86 86 81 80 66 65 64 63 65 71 80 86 87 86 90 91 92 98 99 99 100 99 99 98 95 94 87
43 48 57 63 64 59 58 56 56 56 59 60 58 57 63 76 80 82 80 76 75 70 67 67 70 76 84 89 92 93 94 93 95 97 100 99 100 100 98 98 90 97 95
61 58 58 58 60 58 57 58 54 59 60 60 61 63 72 79 78 73 74 76 78 75 75 76 78 84 90 93 95 94 94 94 95 96 99 100 100 100 98 98 95 96 96
54 63 59 58 59 61 64 64 61 64 66 65 65 74 82 81 81 72 71 72 76 79 80 82 86 91 92 95 94 95 95 96 96 97 99 99 98 98 99 98 98 95 92
58 59 62 65 64 73 73 66 69 72 70 68 70 72 78 81 76 75 73 78 86 86 86 87 89 91 93 93 96 97 98 97 97 98 98 100 98 97 98 98 99 98 94
72 77 71 65 77 76 77 76 76 78 76 77 77 77 78 79 82 80 83 87 89 91 91 93 92 94 94 95 94 96 97 98 100 99 98 98 99 98 98 98 98 97 93
80 83 74 68 76 82 82 85 83 81 80 80 82 83 81 82 84 85 87 92 92 92 93 96 97 98 97 97 97 96 97 97 97 97 96 97 98 98 97 98 98 97 96
85 85 83 82 84 85 85 82 82 83 84 84 84 84 83 84 83 84 89 92 94 93 97 98 97 97 98 99 98 100 98 96 97 97 97 97 96 98 96 98 98 98 97
84 82 84 86 84 85 84 85 84 85 86 86 87 87 87 86 85 88 91 92 93 99 100 99 100 100 100 97 98 94 93 95 96 95 96 96 97 97 99 98 97 98 98

GFSGL_925_rhum_039.txt.gz
RH
56 55 56 57 58 59 62 71 74 81 92 96 86 84 83 87 91 92 83 75 73 73 84 88 81 83 68 67 71 74 61 48 59 50 45 42 41 39 39 38 37 38 39
40 62 56 75 86 94 91 86 87 97 94 86 84 87 88 91 87 86 84 81 73 81 90 88 85 77 79 76 85 83 71 61 48 55 47 47 45 44 45 44 40 40 39
65 63 74 80 68 82 88 89 100 94 92 92 88 86 86 85 86 85 85 82 77 85 95 90 85 82 74 82 85 75 69 65 59 56 60 58 58 58 56 49 45 42 39
73 82 94 85 91 100 100 99 99 98 96 96 90 83 82 82 87 91 92 83 87 94 89 86 81 81 88 94 86 79 74 68 66 70 78 82 81 75 66 62 61 50 55
78 85 95 96 96 99 100 100 100 100 100 99 97 89 88 89 93 93 87 90 94 88 82 79 76 81 78 84 81 77 85 86 80 77 93 95 89 84 76 67 70 66 61
87 88 85 85 91 95 94 93 88 87 89 93 93 93 95 95 93 90 87 90 92 79 75 73 82 81 73 74 75 78 77 80 84 84 84 83 77 75 72 72 74 72 66
79 82 88 90 92 94 96 92 88 86 87 86 88 91 90 89 87 86 84 84 81 85 88 86 90 81 85 100 94 78 73 70 72 80 79 77 78 75 76 81 84 78 67
69 72 74 75 76 77 80 83 82 81 76 76 78 79 75 75 76 79 80 78 79 84 92 94 98 96 87 85 82 78 74 72 72 70 79 86 94 94 90 86 85 85 74
69 70 70 68 68 68 70 71 72 70 72 72 74 75 73 73 73 74 81 90 98 96 85 81 80 71 63 63 60 55 46 26 24 46 53 54 46 27 26 78 99 97 96
66 66 65 65 68 69 71 71 72 75 76 74 76 78 80 92 97 100 99 92 86 82 75 66 54 51 60 63 66 72 85 82 86 88 89 82 77 72 81 87 86 98 97
63 65 68 71 75 77 77 77 77 75 72 76 78 90 88 88 94 83 80 72 68 63 54 45 53 70 68 74 86 88 90 91 85 96 100 96 92 93 84 85 89 87 100
70 74 76 76 77 77 80 78 78 76 75 77 78 91 83 77 73 69 66 66 56 35 49 66 58 44 54 80 86 86 82 74 83 89 88 93 100 98 97 93 93 94 95
76 78 78 78 79 74 74 80 83 79 72 66 76 88 82 81 77 72 67 51 24 31 54 50 46 64 77 83 78 78 77 86 88 90 90 90 93 90 88 87 97 96 96
74 72 72 67 63 52 56 57 54 54 50 52 59 74 85 80 75 68 45 24 31 45 54 58 67 77 82 76 79 81 84 87 88 92 91 92 92 93 95 97 98 100 99
53 47 43 41 40 45 53 54 53 56 51 55 60 64 69 78 77 64 61 63 80 81 77 75 78 75 78 84 83 86 89 88 92 91 94 93 93 96 95 98 94 100 97
49 43 40 40 41 44 51 49 44 38 32 28 33 35 44 54 56 55 70 82 85 86 80 80 76 78 81 87 90 95 92 93 94 96 97 96 97 97 95 95 97 100 98
50 44 42 46 53 52 50 56 76 74 69 68 64 61 60 60 63 69 77 86 82 77 74 77 77 78 85 94 94 95 96 97 98 98 97 99 98 97 95 95 97 99 98
52 48 48 49 50 53 55 66 75 78 85 81 78 70 79 73 79 71 85 85 80 69 84 84 83 82 92 95 97 99 100 100 100 100 100 100 99 98 96 95 97 97 99
61 63 61 63 65 67 76 79 65 60 64 64 68 88 89 83 74 58 83 82 81 87 93 87 83 94 94 98 95 98 97 100 100 100 100 100 99 99 96 96 96 98 98
79 88 90 90 93 91 88 84 73 72 72 72 70 84 84 76 68 63 93 84 90 93 83 86 95 90 89 94 100 96 90 100 100 100 100 100 99 100 98 98 98 100 98
95 95 95 95 92 91 89 84 80 80 80 74 74 77 79 78 76 92 93 87 92 85 92 97 89 83 93 100 86 85 100 100 100 100 100 100 100 99 99 98 98 100 99
95 94 93 92 93 93 88 78 80 80 84 86 84 81 85 90 97 96 92 91 87 90 95 89 86 91 94 83 95 100 99 100 100 100 100 100 100 99 98 97 97 98 98
95 95 94 91 90 84 84 93 88 83 87 80 81 91 94 97 98 96 97 98 99 98 89 83 90 93 80 99 96 90 100 100 100 100 100 100 100 100 98 97 97 97 98
93 92 88 89 87 85 93 90 80 94 97 97 95 97 99 94 93 100 99 98 98 95 93 92 90 82 100 91 92 97 99 100 100 100 100 100 100 100 99 97 97 97 100
95 94 89 90 92 95 97 97 96 93 94 96 97 94 84 84 95 95 96 94 92 100 96 90 80 85 89 97 95 97 100 98 96 100 100 99 100 100 99 98 97 97 99
96 91 91 94 96 92 91 96 95 86 91 95 90 84 95 99 98 94 87 94 99 99 92 83 80 88 96 97 98 100 95 95 99 98 100 100 100 100 99 98 97 97 98

GFSGL_925_rhum_042.txt.gz
RH
67 66 67 67 69 72 80 80 80 87 85 78 87 90 88 95 94 90 89 90 92 93 85 79 79 89 90 87 85 82 80 80 78 71 61 65 48 45 42 41 40 40 40
67 67 69 72 74 83 83 86 91 93 89 78 100 98 97 91 88 91 94 95 96 94 80 83 90 90 85 83 83 79 86 80 78 76 68 62 60 54 51 47 45 45 44
66 67 70 66 75 78 82 94 91 98 88 88 88 100 95 91 93 95 95 93 91 81 81 89 91 86 88 85 79 89 87 80 78 79 77 72 72 71 73 72 68 68 73
70 70 67 67 74 81 89 89 85 94 100 99 100 96 94 95 95 93 89 87 88 84 86 91 91 89 81 77 84 88 88 85 81 84 86 82 84 87 85 88 88 84 82
75 76 60 65 78 99 100 100 99 99 100 97 96 94 93 90 89 86 89 93 88 88 94 95 88 82 82 75 92 96 99 100 100 100 98 94 89 87 91 88 88 84 80
84 92 95 100 100 100 100 98 100 100 100 99 100 94 93 93 91 94 93 88 86 92 93 90 82 80 84 93 87 100 92 84 85 92 94 92 90 84 83 87 92 91 89
100 100 100 100 100 100 100 100 100 100 98 97 99 99 98 97 97 93 91 92 96 92 88 89 90 92 95 91 93 82 77 71 56 51 72 76 83 84 92 97 98 100 99
99 100 100 100 100 100 99 93 88 85 81 89 95 96 94 89 92 94 95 94 90 92 92 91 88 86 81 79 75 63 41 22 23 46 68 73 78 78 78 84 85 88 83
91 93 94 97 99 99 93 90 86 82 81 81 83 84 81 84 87 88 88 86 93 96 92 80 77 75 65 55 40 36 46 57 68 68 67 65 69 73 76 95 100 97 89
81 81 81 80 80 81 81 80 78 74 76 78 78 77 81 92 93 88 79 80 95 86 78 70 58 40 33 34 56 79 89 88 88 70 74 85 87 89 90 98 100 98 95
74 73 71 69 68 69 69 68 70 72 78 84 91 96 96 98 100 99 94 87 78 68 57 40 30 34 31 52 92 87 88 83 70 76 85 84 88 89 91 75 87 95 97
70 70 70 70 71 71 72 79 79 82 92 97 98 100 97 93 86 80 70 65 59 45 33 36 35 44 71 86 83 83 81 66 79 85 88 91 90 90 93 91 95 97 98
74 80 79 79 80 80 81 83 84 83 86 100 96 95 92 87 80 71 63 56 32 21 36 42 57 72 81 79 78 83 78 85 87 93 94 92 96 96 93 94 95 97 99
85 84 82 84 88 87 86 86 81 81 85 97 98 100 92 86 78 68 46 29 34 44 53 63 72 75 76 74 76 84 90 89 91 95 97 96 98 95 96 97 98 96 98
81 79 76 75 75 72 71 73 66 67 69 82 87 86 86 86 79 54 48 58 70 72 73 78 76 76 77 85 88 91 92 93 96 97 99 100 98 100 98 97 96 97 97
63 61 60 63 59 49 41 40 38 40 49 58 62 58 52 58 55 61 57 79 87 83 75 76 78 76 76 91 95 96 95 95 97 100 100 100 100 100 100 97 95 97 95
52 53 52 53 53 51 56 62 78 75 68 64 62 60 59 62 74 78 76 85 86 71 74 82 82 82 89 95 96 98 100 100 96 99 100 100 100 100 100 96 95 96 94
52 57 61 66 66 66 68 71 75 83 88 92 91 83 80 82 86 88 90 87 83 78 86 89 86 92 98 100 98 99 98 84 89 100 98 99 100 100 99 97 96 96 95
66 68 66 69 72 75 81 91 93 94 95 94 95 93 90 89 87 70 81 83 86 92 92 87 89 89 88 87 92 91 82 84 100 97 95 100 100 100 100 100 99 96 96
83 83 86 89 94 95 96 96 96 96 95 94 95 95 95 84 73 68 85 87 86 87 84 89 93 87 81 84 89 82 92 98 100 94 100 100 100 100 100 100 99 97 95
96 96 96 96 96 96 95 95 96 95 95 96 95 91 85 83 88 94 96 94 92 88 90 95 89 84 86 89 82 94 97 98 91 100 100 100 100 100 100 100 100 98 97
95 95 95 95 95 95 95 95 95 95 95 95 92 91 95 95 97 97 98 98 98 100 99 94 90 90 92 84 94 100 100 97 99 100 100 100 100 100 100 100 99 98 97
95 95 96 96 95 95 95 95 95 95 95 96 96 97 98 97 97 97 97 97 99 98 94 97 96 89 82 77 90 93 100 100 100 100 100 100 100 100 100 100 98 97 96
95 95 96 95 95 95 96 96 96 96 96 95 95 96 94 93 96 97 97 98 96 96 100 99 93 87 76 79 92 97 100 100 100 99 100 100 100 100 100 100 98 97 97
95 95 94 96 96 95 92 95 96 93 92 94 93 90 89 94 92 92 92 88 96 100 98 92 84 78 80 95 96 100 100 99 92 99 100 100 99 100 100 100 99 97 97
89 90 91 92 93 94 94 95 97 99 99 97 97 99 99 99 95 87 88 99 99 95 87 81 80 83 93 93 99 100 98 96 98 99 100 100 99 100 100 100 100 98 97

GFSGL_925_rhum_045.txt.gz
RH
63 67 70 73 74 76 76 77 81 81 78 78 89 91 87 96 100 100 100 100 98 89 83 86 94 93 92 92 88 85 88 91 94 88 82 76 72 70 62 59 53 49 48
71 73 74 74 74 76 73 80 84 83 81 98 93 93 70 90 96 100 100 97 90 88 92 99 96 95 90 90 90 88 87 86 91 89 83 78 73 70 68 67 65 68 69
73 77 81 82 82 79 72 90 90 92 97 95 80 95 93 69 99 100 100 98 96 99 100 100 95 91 90 89 90 86 86 88 86 89 92 83 82 79 79 80 82 83 81
76 78 81 84 83 82 84 93 96 98 100 95 78 76 97 95 100 100 98 99 100 100 99 93 87 88 90 90 88 87 86 87 89 99 100 96 94 90 89 84 83 82 84
74 79 80 83 86 89 97 90 100 100 100 100 97 90 97 99 100 100 100 98 97 95 90 89 90 93 90 85 83 84 83 91 93 91 88 87 89 84 87 90 90 90 95
70 79 84 90 93 94 98 100 100 100 100 100 100 100 100 100 98 99 94 91 92 93 92 97 97 98 95 91 90 92 83 85 78 78 72 70 69 66 66 76 85 86 75
76 84 84 82 90 99 100 100 100 100 100 100 100 100 100 99 98 94 94 94 95 93 96 99 96 96 96 91 89 82 79 70 50 35 42 55 72 73 80 85 92 93 94
96 100 100 100 100 100 100 100 100 100 100 100 100 100 98 98 99 100 98 93 92 99 99 96 94 89 80 74 74 75 61 34 32 59 78 79 83 88 99 100 100 100 98
100 100 100 100 100 100 100 100 100 100 96 92 92 97 100 100 100 100 100 100 100 100 96 91 82 74 73 75 67 37 31 48 66 72 60 44 47 51 63 94 96 92 86
100 100 100 100 99 100 100 97 92 88 89 89 97 99 95 100 100 100 96 95 94 92 84 74 62 69 62 33 35 59 76 82 81 61 44 39 40 55 65 93 81 86 83
98 99 100 100 100 98 94 91 88 86 88 94 98 100 100 100 100 95 90 85 86 82 70 62 47 27 26 47 75 85 86 85 65 60 58 63 72 76 80 84 90 95 99
90 91 92 94 96 93 89 86 84 89 99 100 100 100 100 100 100 99 94 84 78 63 51 36 25 34 58 79 86 84 85 68 68 72 85 93 92 93 98 96 90 95 99
83 84 83 81 82 81 82 89 94 98 100 100 100 100 97 92 88 79 74 64 52 34 28 31 51 67 78 80 74 81 78 78 81 83 97 97 95 97 92 82 90 97 99
90 94 93 90 93 91 92 94 96 100 100 100 100 100 95 81 72 62 51 36 27 31 43 59 72 73 72 70 68 79 86 86 84 95 97 96 100 97 95 94 99 100 99
90 92 91 91 91 92 91 92 92 97 97 96 97 92 87 87 78 58 46 48 60 72 80 78 72 70 69 74 87 87 91 93 93 94 97 100 100 96 99 100 100 100 99
86 86 83 79 77 75 71 71 68 78 86 90 90 84 84 79 78 82 76 88 88 79 76 76 76 76 76 93 97 96 97 96 97 95 96 100 100 100 100 100 100 100 99
80 79 72 68 68 68 74 81 91 87 56 49 46 47 49 75 88 83 82 84 87 71 70 82 83 85 91 96 97 98 97 99 93 84 96 99 93 100 100 100 100 99 97
76 77 78 79 71 66 66 75 81 89 99 100 96 93 97 95 90 88 90 95 94 87 92 93 91 95 97 96 97 98 99 81 82 94 94 88 96 100 100 100 100 100 98
82 86 82 85 89 92 94 94 94 96 96 96 96 96 96 95 95 96 95 95 95 95 95 96 95 91 92 94 92 85 81 87 92 96 90 96 96 100 100 100 100 100 100
96 97 96 96 96 96 96 96 96 96 96 96 96 96 95 95 95 95 94 93 94 95 95 99 95 89 87 86 85 84 91 92 97 94 96 95 97 100 100 100 100 100 98
96 96 96 95 95 96 96 96 95 95 95 95 95 95 95 95 96 96 97 97 96 98 99 97 95 92 90 87 85 88 96 92 92 99 98 100 100 100 100 100 100 100 100
95 95 95 95 95 95 97 95 95 95 95 95 96 96 96 95 96 96 97 98 99 99 98 97 98 98 92 86 79 82 96 97 97 100 100 100 100 100 100 100 100 100 100
94 95 94 95 95 95 94 95 95 96 96 96 96 96 95 94 93 94 95 95 95 94 95 99 100 97 91 84 76 90 100 100 100 100 100 100 100 100 100 100 100 100 97
94 94 96 96 95 95 96 96 96 95 93 93 92 89 86 86 90 93 92 89 87 94 99 100 97 90 81 78 85 98 100 100 100 100 98 100 100 100 100 100 100 100 99
94 96 96 96 95 98 97 96 96 99 100 98 96 93 96 100 97 91 88 89 96 100 97 91 82 80 82 92 94 96 100 100 98 97 100 100 100 100 100 100 100 100 99
83 84 84 83 85 89 93 94 92 87 83 82 88 99 100 98 99 98 97 98 94 90 90 90 90 86 87 89 93 100 100 94 95 98 100 100 100 100 100 100 100 100 100

GFSGL_925_rhum_048.txt.gz
RH
77 78 78 80 77 75 73 70 65 57 52 55 62 71 74 78 92 98 99 100 99 100 100 100 99 95 85 95 99 97 91 84 91 89 87 82 78 75 70 69 69 69 68
69 72 74 72 79 80 78 67 46 72 82 68 73 73 74 96 99 100 100 92 94 100 100 100 100 96 98 100 97 93 92 93 93 95 88 83 78 74 71 72 72 77 78
68 70 73 74 76 80 81 67 72 71 68 71 86 81 90 97 99 95 82 86 92 100 100 100 98 100 100 98 97 94 90 90 91 92 94 92 90 83 80 76 82 73 72
70 73 75 78 78 76 75 72 70 78 81 86 96 100 100 100 95 96 91 92 100 100 100 99 99 100 97 95 93 92 91 89 87 90 98 98 94 83 75 73 67 53 47
75 75 77 80 83 80 77 79 86 92 93 97 100 100 100 100 100 99 91 100 100 100 100 100 100 98 94 92 91 88 84 82 83 86 86 86 74 65 57 65 67 68 60
80 80 79 82 86 89 89 90 94 99 99 100 100 100 100 100 99 100 100 100 100 100 100 100 99 98 95 92 92 93 89 81 80 78 73 64 52 55 61 65 74 83 69
77 81 82 85 89 92 95 97 99 100 100 100 100 100 100 100 100 100 100 100 100 99 99 100 100 100 99 97 94 89 78 76 77 50 44 56 72 71 75 83 91 100 93
74 82 85 89 97 99 99 100 100 100 100 100 100 100 100 100 100 100 100 99 99 100 100 100 99 100 98 89 78 76 72 56 40 47 62 72 69 59 77 89 94 95 90
88 93 95 100 100 100 100 100 100 100 100 100 100 100 100 100 100 100 100 100 100 100 100 100 98 92 87 85 72 71 52 40 58 70 64 45 40 39 44 85 92 99 85
99 100 100 100 99 100 100 100 100 100 100 100 100 100 100 100 100 100 100 100 100 98 95 91 92 80 71 54 65 34 47 73 73 66 46 37 36 39 47 57 82 87 87
100 100 100 100 100 100 100 100 100 100 100 100 100 100 100 100 100 100 100 99 95 90 84 70 59 40 33 29 28 59 74 82 70 55 47 43 48 54 52 67 78 92 93
100 100 100 100 100 100 100 100 100 100 100 100 100 100 100 100 100 100 98 91 88 80 70 56 42 26 39 71 78 82 80 69 59 55 57 77 89 87 85 90 91 92 88
100 100 100 100 100 100 98 100 100 99 100 100 100 100 100 98 94 91 85 81 67 58 45 34 30 48 72 79 77 73 70 67 69 71 91 93 92 93 95 90 94 97 96
100 99 98 97 99 98 98 100 100 100 100 100 100 99 95 89 83 76 62 48 33 31 32 50 62 68 70 70 70 72 73 84 85 95 96 96 96 97 96 95 97 96 100
93 93 93 92 92 95 98 100 100 100 99 99 98 96 91 84 70 61 51 43 44 50 61 75 75 75 72 77 83 80 86 85 95 99 97 97 98 97 95 97 97 97 100
93 93 93 92 91 93 96 100 100 100 100 100 98 92 94 91 87 84 67 75 79 81 80 76 75 73 74 91 93 96 92 94 98 98 96 99 100 99 100 100 100 100 100
90 88 87 85 84 84 87 92 96 98 97 97 96 96 96 94 92 91 88 94 83 68 78 85 82 83 84 97 98 99 97 99 98 84 100 100 100 100 100 100 100 100 99
88 88 89 94 98 98 97 97 97 97 97 98 95 94 99 99 98 95 95 95 95 95 95 95 95 95 96 96 97 99 98 81 78 86 93 89 91 100 100 100 100 100 100
98 98 97 96 96 97 97 97 97 96 96 96 96 96 96 95 95 95 95 94 95 96 96 96 96 96 97 96 93 81 79 80 87 92 93 93 94 100 100 100 100 100 100
97 97 96 96 97 96 96 96 96 96 96 96 96 96 95 95 95 95 95 96 96 96 95 97 96 96 92 88 84 83 85 86 90 97 97 98 96 98 100 100 100 100 100
96 96 96 95 95 96 96 96 96 95 95 95 95 96 95 95 96 96 96 96 96 96 96 97 97 97 97 94 89 86 82 81 88 96 100 100 98 100 100 100 100 100 100
95 96 95 96 95 94 95 95 95 95 96 96 97 96 95 95 95 95 95 96 97 97 97 96 98 100 100 98 92 85 82 87 95 100 100 100 100 100 100 100 100 100 100
94 95 98 99 96 94 97 96 96 95 96 95 94 90 84 83 83 86 90 90 86 86 93 97 98 97 94 89 81 82 98 100 100 100 100 100 100 100 100 100 100 100 100
94 95 97 97 97 95 94 95 95 95 95 93 89 89 92 94 95 95 90 87 88 91 93 96 93 88 82 79 80 90 97 100 100 100 100 100 100 100 100 100 100 100 100
86 87 89 91 92 92 92 94 92 89 86 86 90 97 100 100 99 95 93 94 94 91 88 88 89 88 87 83 84 86 95 100 100 100 100 100 100 100 100 100 100 100 100
78 79 83 84 86 85 81 78 77 78 81 89 97 100 100 99 96 95 94 91 88 89 93 94 93 90 89 87 88 93 99 99 97 95 100 100 100 100 100 100 100 100 100

GFSGL_925_rhum_051.txt.gz
RH
88 89 88 89 88 87 83 74 67 68 65 54 53 65 69 70 62 71 76 74 88 98 96 98 99 100 99 100 100 87 83 86 92 86 75 73 76 77 79 74 69 69 76
84 86 89 89 89 88 86 84 82 78 70 67 80 79 81 82 77 67 74 95 100 93 99 98 98 100 100 100 100 95 96 95 89 92 90 87 82 80 76 76 81 76 80
78 83 86 86 88 86 84 81 81 74 78 82 83 84 78 76 75 78 94 96 99 86 98 97 97 100 100 100 100 100 100 95 97 92 93 86 87 85 85 82 83 78 75
74 77 79 82 81 82 83 82 83 79 78 80 81 85 76 77 95 100 100 100 100 93 96 93 100 100 100 100 100 99 99 97 93 92 96 97 96 88 84 74 62 57 48
71 72 72 75 77 77 80 84 85 82 80 81 83 90 89 93 99 96 100 100 100 100 99 99 100 100 100 100 99 97 94 95 92 90 92 91 79 73 63 57 55 46 46
72 72 70 74 76 79 78 78 81 83 84 90 89 85 95 98 96 97 100 100 100 100 100 100 100 100 100 100 97 95 90 84 84 80 81 73 65 61 56 56 57 51 40
74 72 73 76 78 81 82 81 82 84 88 96 99 100 100 100 99 99 100 100 100 100 100 100 100 100 100 99 95 94 92 85 83 83 66 59 56 57 66 63 57 57 52
76 77 78 80 80 83 88 89 92 94 97 100 100 100 100 99 100 100 100 100 100 100 100 100 99 100 100 97 96 88 83 82 68 55 64 68 71 70 70 64 63 64 60
72 76 81 84 84 89 95 100 100 100 100 100 100 100 100 100 100 100 100 100 100 100 100 100 100 100 99 92 85 79 83 75 61 61 57 52 40 34 42 65 62 56 57
70 80 92 95 100 100 99 100 100 100 100 100 100 100 100 99 100 100 100 100 100 100 100 100 100 96 99 98 87 70 76 74 73 71 66 58 48 64 40 65 59 63 57
100 100 100 100 100 100 100 100 100 100 100 100 100 100 100 100 100 100 100 100 99 100 100 99 97 96 88 70 47 53 67 70 74 72 66 67 72 73 67 70 71 72 70
100 100 100 100 100 100 100 100 100 100 100 100 100 100 100 100 100 100 100 99 98 92 84 74 71 91 97 88 78 72 70 71 80 76 71 66 68 67 67 71 76 73 72
100 100 100 100 100 100 100 100 100 100 100 100 100 100 100 100 99 98 95 92 84 75 59 63 88 97 89 79 73 67 66 84 83 76 71 70 70 72 72 78 77 76 75
100 100 100 100 100 100 100 100 100 100 100 100 100 98 96 90 81 81 76 71 59 58 82 93 82 79 76 78 82 82 83 83 80 78 79 78 81 80 79 78 80 78 76
99 100 100 100 100 100 100 100 99 100 99 98 99 96 96 92 80 64 58 51 52 51 59 85 83 80 78 80 84 82 87 84 81 87 92 88 81 79 80 79 79 76 77
93 94 97 97 98 100 100 100 100 100 100 98 98 92 95 95 95 96 95 94 84 72 84 88 90 88 81 82 86 87 96 98 99 99 97 89 83 82 82 82 83 81 78
89 89 91 91 93 94 94 91 94 99 97 96 96 96 96 97 96 94 94 95 80 80 94 99 99 99 98 97 96 96 94 97 100 96 91 87 88 87 88 84 80 79 76
100 97 98 100 99 98 98 98 98 96 94 97 96 96 96 95 95 96 98 96 98 97 98 96 97 98 97 94 94 94 95 96 93 91 90 91 93 92 88 83 80 80 78
98 99 98 97 97 98 99 99 98 97 96 97 98 97 97 96 96 95 95 97 93 92 93 93 98 99 98 99 100 100 100 97 98 98 93 94 95 96 90 86 84 86 87
97 96 97 98 98 98 98 98 97 97 95 95 95 98 100 95 98 100 100 100 99 98 98 96 99 100 100 100 100 100 98 93 90 90 89 94 97 97 94 90 87 86 82
98 98 97 97 98 98 98 98 98 97 94 94 99 100 95 95 98 100 100 100 100 100 100 100 100 100 100 100 99 99 99 98 97 97 97 98 98 96 92 91 91 88 86
98 99 98 99 99 98 97 98 97 94 94 95 100 100 97 100 99 100 100 100 100 100 100 100 100 100 100 100 100 100 100 100 100 100 100 99 96 95 95 93 92 90 89
99 99 98 99 99 100 99 98 99 99 99 98 95 95 96 98 99 100 100 99 100 100 93 98 100 100 100 100 100 100 100 100 100 100 100 100 100 99 96 95 92 90 88
100 100 96 100 99 99 100 100 100 99 98 99 100 100 100 100 100 100 92 95 97 100 87 83 85 87 87 88 100 100 100 100 100 100 100 100 100 100 99 97 94 93 92
100 100 100 100 100 100 99 98 98 98 99 100 100 100 100 100 100 100 98 87 84 85 86 86 90 97 96 87 85 88 100 100 100 100 100 100 100 100 100 100 98 95 93
96 97 99 97 96 95 95 96 99 100 100 100 100 100 100 100 100 100 97 94 100 98 96 100 100 90 85 92 100 99 88 88 90 92 95 100 100 100 100 100 99 96 94

GFSGL_925_rhum_057.txt.gz
RH
57 69 80 84 84 82 78 72 69 67 65 60 57 62 63 63 65 66 64 64 65 66 67 66 68 70 73 86 98 99 100 100 97 88 94 98 99 94 96 96 84 72 71
47 58 67 73 77 77 77 75 72 67 64 62 57 56 59 61 63 64 65 64 66 66 66 68 71 77 82 94 100 100 100 100 99 97 99 95 90 90 94 78 78 80 80
48 52 62 66 67 71 75 74 74 72 70 67 64 64 62 64 65 66 67 66 66 66 67 69 71 85 88 96 100 100 100 100 100 100 99 99 99 93 88 88 87 81 77
50 51 56 64 67 68 70 72 74 73 73 73 70 67 67 67 66 65 63 63 63 67 74 75 75 85 94 99 100 100 100 100 100 100 100 98 96 95 92 92 86 80 78
49 49 52 60 65 67 68 70 71 71 70 69 70 70 70 68 66 65 63 62 65 74 77 79 79 80 86 98 100 100 100 100 100 100 99 98 97 96 95 87 84 74 65
50 50 50 55 62 65 66 68 70 71 72 70 69 68 70 70 67 66 66 68 73 76 79 81 82 90 98 100 100 100 97 99 100 100 99 97 94 89 85 76 68 61 58
45 50 50 52 57 61 65 65 67 69 69 68 69 69 68 67 66 66 68 72 77 84 87 92 99 98 100 100 100 100 100 100 100 100 95 88 84 78 71 66 60 55 49
40 45 48 50 53 56 60 62 63 64 66 67 68 69 69 68 67 68 73 77 84 88 97 100 100 100 100 100 100 100 100 100 98 95 91 85 67 64 62 62 51 48 48
34 40 46 48 50 52 55 60 63 64 65 68 70 71 73 75 78 81 85 94 100 100 100 100 100 100 100 100 99 100 100 98 98 97 94 92 89 74 55 45 47 44 54
25 35 42 44 47 50 53 58 63 66 69 88 90 94 97 99 99 99 100 100 100 100 100 100 100 100 100 100 100 95 92 96 97 96 73 42 32 35 35 23 48 48 48
27 29 40 44 46 50 54 59 88 100 100 100 100 100 100 100 100 100 100 100 100 100 100 100 100 100 100 100 98 97 97 97 96 69 54 50 48 50 54 55 55 50 52
68 59 80 84 85 92 98 100 100 100 100 100 100 100 100 100 99 100 100 100 99 98 100 100 99 98 97 97 98 97 96 92 74 60 57 50 52 55 51 51 59 61 55
96 99 100 100 100 100 100 100 100 99 100 100 100 100 100 99 100 99 100 100 100 99 100 100 99 97 97 96 95 88 82 80 84 84 80 80 83 75 74 68 64 65 66
100 100 100 100 100 100 100 100 100 100 100 100 99 99 100 100 100 100 100 100 100 98 97 96 96 96 95 94 94 96 97 90 86 97 98 97 90 86 89 87 88 81 82
100 100 100 100 100 100 100 100 100 100 99 99 100 100 98 99 100 98 97 98 96 96 96 96 96 97 97 94 88 92 94 92 96 97 96 92 86 85 83 83 82 77 75
99 99 99 100 99 99 98 100 100 99 97 96 96 95 97 97 97 97 96 96 96 97 97 93 94 96 96 97 96 95 92 90 87 84 88 86 85 84 83 81 77 75 77
98 98 99 98 98 96 96 92 93 99 97 97 97 96 96 96 96 96 95 96 96 97 97 98 97 97 97 92 88 85 88 92 84 88 85 85 84 80 76 73 70 69 68
99 99 98 99 99 98 96 97 96 95 94 97 97 96 96 96 96 96 96 96 96 95 98 96 96 97 86 86 86 85 86 84 87 81 77 81 81 82 80 75 67 70 72
98 98 98 99 98 98 97 97 96 96 96 96 97 96 96 98 98 97 94 96 96 96 92 87 87 86 85 84 90 90 86 83 80 82 80 83 84 78 78 76 75 79 82
98 97 97 98 98 97 97 96 96 96 96 96 96 97 98 93 94 95 94 92 87 86 84 79 77 80 82 78 78 81 77 74 74 75 78 82 86 86 82 81 79 80 78
97 97 97 96 96 94 93 92 92 92 94 95 96 95 92 88 89 88 86 85 81 79 81 76 76 80 78 77 76 81 80 82 81 80 80 82 86 81 83 86 83 77 79
96 96 95 95 94 89 87 86 87 89 90 90 88 86 88 84 76 76 82 87 87 83 82 85 84 82 83 87 89 89 86 85 84 85 86 86 83 82 83 82 83 81 80
90 87 86 86 84 88 88 86 85 82 80 78 75 77 78 81 81 82 87 91 88 92 94 93 93 93 93 99 99 95 92 89 92 95 94 90 87 85 86 84 84 87 86
77 74 71 75 76 75 76 76 75 74 75 79 80 80 82 84 86 87 91 95 95 96 97 100 99 98 100 100 100 100 97 100 100 100 100 100 94 90 89 88 85 86 88
76 75 75 77 78 77 76 76 78 78 79 80 81 82 81 81 83 88 92 94 97 98 98 99 100 100 100 100 100 100 100 100 100 100 100 100 100 98 95 92 91 89 92
78 78 79 78 79 78 79 79 80 81 82 84 85 86 86 84 87 90 92 92 99 100 98 98 99 100 100 100 100 100 100 100 100 100 100 100 100 100 96 95 92 89 90

GFSGL_925_rhum_063.txt.gz
RH
88 92 96 96 92 89 91 86 82 76 71 67 68 72 74 75 66 67 74 72 74 77 72 73 68 66 70 71 67 68 68 75 83 73 73 71 74 76 78 80 79 76 80
87 91 92 94 93 94 93 91 88 85 80 74 69 73 81 81 77 74 76 81 87 86 83 81 77 76 76 74 74 81 79 78 83 79 78 80 84 86 88 88 86 89 89
92 94 97 95 87 91 92 91 82 87 88 84 80 73 73 75 79 81 80 80 82 87 84 84 80 82 81 82 87 86 88 86 90 95 84 88 89 91 99 96 92 94 97
79 92 95 96 90 89 88 85 89 87 91 89 85 83 80 76 78 75 74 83 87 85 83 82 81 82 81 80 84 84 85 90 99 98 95 98 99 95 100 100 100 100 98
64 74 88 91 91 91 90 88 90 90 88 86 85 83 82 80 75 78 78 75 78 78 78 80 79 78 77 75 78 81 86 90 94 94 98 100 100 100 98 99 100 100 100
62 66 63 81 92 92 92 92 92 92 90 87 83 81 82 79 74 70 72 76 74 75 77 78 77 75 74 72 72 73 78 88 93 97 97 97 98 99 100 100 100 99 99
63 61 66 61 72 83 87 90 90 90 91 90 86 86 81 80 79 75 71 68 70 73 74 74 76 75 73 74 73 77 84 92 95 97 98 98 100 100 99 100 100 98 98
85 83 86 88 73 63 73 79 83 86 87 87 86 86 85 84 81 79 75 72 72 73 76 77 78 80 76 77 83 91 100 100 100 100 100 100 100 100 100 100 98 95 99
88 90 90 91 92 85 72 70 72 75 78 82 84 86 86 85 84 82 80 80 82 83 84 87 86 85 85 87 97 100 100 100 100 100 100 99 99 100 99 99 98 97 98
92 94 97 95 98 99 98 88 69 72 75 79 82 84 87 88 87 86 83 84 90 96 100 100 100 100 100 100 100 99 98 99 99 99 98 98 98 97 97 96 96 97 97
95 97 98 99 100 100 100 98 80 74 77 84 94 99 99 98 99 99 92 91 94 100 100 100 100 100 100 100 100 98 96 99 99 96 96 97 96 97 96 95 86 86 88
97 97 99 100 100 99 100 100 100 100 99 100 100 100 100 100 100 100 100 100 100 100 100 100 100 100 100 100 98 97 97 96 98 97 97 96 96 96 97 96 96 96 96
98 99 100 100 100 100 99 100 100 99 100 100 100 100 100 100 100 100 100 99 100 99 100 99 99 99 100 100 95 97 97 96 97 97 98 96 97 97 96 96 95 94 90
98 99 99 99 99 100 100 100 100 100 100 100 99 99 100 100 100 100 100 100 100 98 96 100 99 95 94 95 96 97 96 96 96 97 97 97 95 95 95 87 87 84 84
98 98 98 98 97 96 100 100 100 100 100 99 100 99 96 97 100 97 99 100 100 98 98 98 96 98 98 97 97 96 95 95 95 95 95 95 93 86 83 70 83 82 83
96 98 100 99 98 96 92 97 99 99 100 97 96 98 99 99 97 96 96 97 97 97 98 97 97 97 96 97 98 98 96 96 96 86 86 85 82 85 85 75 73 79 86
100 100 98 98 98 98 97 96 93 100 93 96 97 96 97 96 97 98 97 96 95 95 96 96 96 97 97 97 97 98 100 88 77 86 91 86 79 74 72 82 85 87 90
100 99 98 98 98 97 97 97 96 95 94 96 100 98 97 96 97 98 96 94 96 96 97 96 97 97 97 97 96 98 82 80 82 83 82 76 72 80 84 87 87 88 91
99 100 99 97 97 97 97 97 97 96 96 97 97 95 95 98 99 100 100 97 97 97 97 97 98 99 99 87 85 85 87 82 82 79 84 88 85 80 84 88 93 90 87
97 96 97 97 96 96 96 96 96 96 96 96 97 98 96 93 97 100 100 100 100 100 100 100 94 89 90 84 81 79 80 83 83 90 94 87 78 75 93 97 96 93 94
97 97 96 97 97 96 97 97 97 97 96 97 98 96 94 100 100 100 99 96 99 100 100 93 88 86 84 83 86 85 87 95 95 90 86 83 81 88 99 95 84 82 93
98 93 91 93 93 99 100 100 100 99 99 100 100 98 91 99 100 100 97 88 89 93 95 92 93 89 88 90 93 94 98 97 92 89 84 79 81 95 95 86 88 90 80
83 88 94 98 95 91 95 100 99 95 97 95 93 88 86 85 85 94 100 100 92 83 87 85 86 84 83 92 97 95 92 98 100 94 82 81 85 89 95 97 87 78 83
92 95 97 90 87 93 96 99 100 98 100 100 100 100 100 99 95 87 84 96 97 92 100 98 95 91 92 89 85 87 93 96 93 88 82 81 84 93 93 88 93 97 100
89 92 95 99 99 96 95 98 100 99 99 100 100 97 99 100 100 100 97 90 86 100 100 100 100 100 92 94 100 100 100 93 88 84 83 84 90 95 97 100 100 95 84
81 84 88 86 91 91 84 91 100 100 94 89 98 98 94 88 100 100 98 85 98 100 100 99 99 100 100 100 100 100 94 93 94 96 90 91 95 95 96 94 91 95 95

GFSGL_925_rhum_066.txt.gz
RH
98 99 97 97 96 93 90 83 79 81 78 77 74 70 65 58 56 59 65 68 70 70 66 69 67 64 69 67 67 72 74 80 82 71 68 62 62 58 59 61 65 69 71
94 97 96 96 96 97 95 92 84 80 77 75 72 72 71 69 70 69 68 69 79 82 82 78 75 79 79 78 80 81 83 78 83 79 74 74 71 67 68 68 67 71 76
92 94 97 97 97 95 95 93 89 87 83 77 73 71 73 81 82 77 77 76 75 81 82 84 81 82 82 82 84 87 87 86 88 88 78 75 77 77 79 82 82 82 86
87 91 95 96 96 94 91 91 91 91 91 88 85 81 76 72 77 83 84 84 81 78 79 82 83 86 84 85 88 87 86 88 92 95 90 88 89 91 93 95 99 95 92
82 95 96 95 96 96 94 93 91 94 89 88 89 89 87 85 78 75 76 75 78 81 82 82 84 85 82 83 85 86 92 95 93 92 90 88 95 100 97 93 100 99 99
83 84 88 97 97 97 95 94 93 91 91 89 89 90 92 92 88 84 78 80 79 79 82 88 90 89 88 86 84 81 79 87 94 87 86 86 84 99 100 100 100 100 98
85 87 90 86 92 95 99 98 97 95 91 94 89 89 87 90 91 88 85 83 83 85 82 81 81 83 83 84 82 82 84 84 82 88 87 85 88 91 100 100 100 99 100
88 89 92 94 93 97 91 90 97 98 96 94 95 94 91 90 88 87 86 83 84 82 84 85 84 82 84 84 88 86 90 97 98 97 99 100 99 99 100 100 99 100 98
90 90 90 94 96 98 98 100 97 91 96 96 95 97 97 93 90 89 86 88 90 85 81 79 79 83 84 86 87 97 100 100 100 100 100 100 100 100 99 98 100 96 98
90 90 90 92 95 98 100 100 100 100 100 88 93 94 94 96 96 92 91 95 96 94 92 91 88 88 90 91 94 100 100 100 100 100 100 100 99 99 99 99 100 98 97
90 92 93 95 96 98 100 100 100 100 100 100 98 100 100 100 100 100 99 95 100 100 100 100 100 100 100 100 100 100 100 99 99 100 100 98 97 97 97 97 97 97 96
92 94 95 96 100 100 100 100 100 100 100 100 99 100 100 100 99 100 100 100 100 100 100 99 99 99 99 99 99 97 98 98 98 98 97 97 97 96 96 96 96 96 96
97 98 98 96 99 100 100 100 100 100 100 100 100 99 100 100 100 100 100 100 100 99 98 98 100 100 98 99 99 96 100 99 97 97 98 96 96 96 97 95 95 95 92
97 98 97 97 94 98 98 99 100 100 99 98 97 98 100 98 100 99 100 100 100 97 94 100 96 96 100 97 96 94 92 93 96 96 96 96 96 95 94 96 93 80 80
98 98 98 98 97 94 98 99 98 100 100 99 100 100 96 98 100 98 98 98 99 98 95 97 97 97 96 98 97 95 95 95 95 95 96 97 96 94 92 77 79 76 91
98 99 99 98 96 96 95 91 100 99 98 97 97 98 99 97 96 97 98 100 96 96 96 96 96 97 96 97 98 100 96 94 95 94 93 91 89 89 85 76 74 79 90
100 100 100 100 100 98 96 95 95 97 100 100 98 98 98 97 96 98 98 95 97 94 96 97 96 96 96 96 97 97 98 98 90 88 84 82 79 84 90 94 94 90 88
96 97 100 100 100 100 100 100 98 96 95 96 97 99 98 99 99 97 96 92 96 96 96 96 97 97 97 98 100 97 95 91 90 89 86 85 85 88 96 99 95 89 94
100 96 94 94 94 97 99 98 99 98 97 97 95 94 96 100 99 99 98 96 96 97 98 99 99 96 96 94 94 93 92 93 93 89 86 80 77 78 92 92 86 81 81
97 100 96 96 96 97 100 99 98 98 98 98 98 98 95 92 95 97 96 99 100 100 99 97 96 94 93 90 88 87 86 88 88 86 81 77 79 86 96 89 83 83 90
93 92 94 99 100 100 100 100 99 100 100 100 100 97 93 98 100 100 100 97 97 96 94 91 90 89 89 87 85 86 89 91 88 84 80 80 82 86 90 86 84 83 79
92 95 95 98 100 100 100 99 100 100 100 100 100 90 84 92 100 100 92 92 94 92 90 85 87 92 94 94 95 90 90 90 87 84 77 77 82 89 89 86 84 77 86
88 89 91 96 99 96 99 100 97 96 99 100 91 86 82 89 94 95 94 90 94 95 88 83 79 88 91 88 87 88 85 88 89 85 78 71 70 79 92 90 90 95 94
86 90 96 94 92 95 97 100 98 95 96 99 99 97 96 93 94 96 96 94 92 97 95 91 91 86 83 83 86 90 91 92 90 86 82 85 92 93 91 93 96 92 89
86 89 90 92 92 92 92 96 96 94 94 96 97 97 98 96 94 94 89 85 95 95 98 99 99 97 96 100 100 98 94 90 91 92 85 86 92 97 99 97 94 91 93
88 85 87 85 82 86 92 92 94 90 93 95 96 93 92 95 99 98 93 89 99 100 100 100 100 100 99 100 100 98 98 97 93 86 83 84 90 93 94 96 99 98 97

GFSGL_925_rhum_069.txt.gz
RH
98 98 98 98 90 92 90 88 89 87 85 82 75 75 76 81 82 86 84 79 72 74 69 67 60 57 68 69 68 71 74 83 85 73 69 63 62 58 56 55 55 54 55
98 99 100 98 95 93 94 88 82 81 76 74 79 81 79 74 73 77 81 78 71 68 61 61 60 67 71 78 84 85 86 84 88 82 76 76 72 64 62 63 61 61 61
97 100 100 100 99 98 94 88 86 78 77 78 80 79 80 82 83 76 70 72 74 74 79 82 85 83 81 84 86 87 86 87 90 92 82 78 79 76 74 75 75 76 76
90 94 100 100 98 97 97 94 88 82 80 79 80 82 81 79 79 81 83 81 79 77 75 74 77 82 82 82 85 84 86 89 91 95 92 88 87 86 85 89 90 84 84
93 95 96 100 99 99 100 98 98 98 93 88 82 81 83 81 79 77 80 84 84 84 82 80 80 79 78 79 80 81 86 90 90 89 90 89 86 91 97 90 99 92 90
84 89 92 93 97 100 100 100 99 97 98 98 97 93 91 85 83 82 79 77 78 82 84 84 83 80 79 80 81 80 75 85 93 88 85 82 82 84 89 97 94 97 96
88 88 91 93 92 93 92 92 100 100 99 100 99 97 95 93 87 82 83 87 84 82 82 81 81 83 86 88 86 84 86 86 82 81 86 86 88 87 88 98 100 93 94
87 86 88 90 90 93 95 97 96 97 97 99 100 99 98 95 92 90 89 91 96 90 87 87 87 85 86 90 96 99 95 95 95 94 97 95 94 97 96 98 100 100 100
88 87 88 90 90 91 95 99 98 100 100 99 99 97 100 99 96 96 93 96 100 99 97 95 92 93 91 87 88 93 96 100 100 100 100 100 100 100 100 100 100 100 99
92 92 93 95 96 96 99 100 100 100 100 100 99 100 100 100 100 100 100 100 100 99 99 98 98 98 96 93 93 97 100 100 100 100 99 99 100 100 100 100 100 99 97
93 94 94 99 97 99 100 100 99 100 100 100 100 100 99 99 99 99 99 99 100 100 100 100 100 99 98 99 100 100 100 99 99 98 100 100 99 96 97 99 98 96 97
95 96 96 98 99 100 100 100 100 100 100 100 99 100 98 100 100 100 100 100 100 100 98 100 99 100 99 99 96 96 97 99 96 96 97 99 96 97 97 95 96 95 94
95 98 95 98 98 97 97 98 99 98 98 98 98 99 100 100 98 99 100 100 100 99 100 99 99 100 99 100 100 97 96 95 95 96 97 97 96 96 96 96 97 95 94
96 99 98 94 96 99 97 97 98 97 94 94 94 97 98 100 100 98 100 100 100 98 95 97 98 98 97 96 94 98 96 96 97 97 98 95 96 95 95 95 95 96 94
97 97 96 98 99 97 100 100 100 100 100 99 100 99 95 96 100 99 97 97 97 97 96 95 97 96 97 96 97 97 96 95 95 96 96 96 96 95 96 93 95 95 96
98 100 100 99 97 98 98 100 100 100 100 100 100 98 100 100 99 98 97 96 96 96 95 96 96 96 96 97 97 98 96 96 96 96 96 96 99 98 96 91 83 92 89
100 100 100 100 100 100 99 100 99 97 100 100 100 100 100 100 100 100 98 97 96 92 96 96 96 97 97 97 98 98 100 97 90 91 92 93 93 94 96 94 92 89 87
94 94 94 96 98 97 99 100 100 100 100 100 100 100 100 100 100 98 94 91 93 96 97 98 99 99 98 99 100 99 94 89 89 88 87 85 86 91 97 96 95 90 91
96 95 91 92 93 93 92 94 95 97 100 100 96 94 98 100 100 100 97 96 100 100 99 98 98 98 98 95 93 91 89 89 85 79 79 80 81 85 90 84 84 81 83
94 95 91 89 89 90 90 94 96 100 100 100 100 100 86 74 88 96 94 95 96 97 95 95 93 90 92 91 88 88 89 88 86 84 84 86 87 88 89 86 82 82 86
91 92 90 92 95 95 97 100 99 100 100 100 100 98 93 94 100 98 98 96 94 92 91 91 91 92 92 88 86 86 86 86 84 80 80 84 86 87 90 84 78 76 83
88 92 93 96 93 92 94 92 94 98 97 98 92 86 80 87 91 90 90 89 86 84 82 81 85 89 91 91 91 86 86 84 81 80 77 73 71 80 85 82 79 89 92
85 87 91 93 91 86 87 92 92 91 92 87 83 84 86 92 95 96 96 96 94 92 89 86 84 83 84 84 88 90 87 89 87 82 73 70 73 81 88 86 92 91 86
83 85 89 91 90 91 91 94 95 95 95 94 93 94 92 92 91 90 97 99 98 98 97 94 92 92 98 98 96 90 87 85 85 82 78 75 78 82 87 94 96 90 92
84 84 87 89 89 90 90 92 92 94 95 94 96 96 96 95 94 93 94 99 100 98 96 96 97 97 96 93 90 88 89 91 88 85 77 77 85 95 98 98 94 95 93
81 84 84 82 85 88 89 89 89 89 93 95 95 94 95 94 98 95 89 83 84 92 96 99 99 98 95 92 95 96 95 93 91 87 85 87 94 98 97 100 100 98 95

GFSGL_925_rhum_072.txt.gz
RH
94 98 96 95 96 96 96 95 93 86 90 92 88 90 88 93 94 100 98 92 92 86 95 91 82 68 69 66 68 65 71 73 76 67 66 66 64 61 57 56 56 57 56
94 94 96 96 97 95 92 92 92 93 91 89 84 82 80 79 84 94 91 88 87 85 87 94 88 84 80 75 78 78 81 81 86 80 74 76 75 64 65 66 62 62 62
96 96 95 94 98 94 88 87 89 89 88 88 88 85 84 82 81 80 83 88 89 85 82 85 87 86 86 87 89 89 88 89 92 94 85 80 80 78 77 74 72 76 72
99 99 99 98 99 98 93 90 88 86 85 83 81 78 78 80 83 87 87 88 89 90 90 87 84 82 78 75 79 79 81 86 89 98 95 90 84 82 84 88 88 84 84
95 96 98 100 100 100 100 96 94 93 88 84 82 79 77 73 76 84 90 92 92 89 85 83 83 82 79 76 76 79 88 92 91 86 81 82 86 84 88 84 94 93 90
90 91 92 95 97 99 99 100 100 100 98 95 94 92 90 86 86 85 83 86 88 90 89 88 88 86 81 78 77 74 71 74 86 83 78 78 77 76 76 86 92 88 92
85 85 84 86 89 90 93 94 97 99 99 100 100 100 100 98 95 93 89 88 86 84 83 83 83 85 85 87 86 82 82 82 78 73 77 81 81 80 79 81 85 92 88
87 88 88 88 88 91 92 94 95 98 99 99 99 100 99 100 100 100 99 100 98 93 91 89 88 88 87 89 92 95 94 88 85 87 96 92 95 99 97 97 96 97 100
90 91 93 95 94 95 97 99 99 99 99 100 99 99 99 100 99 98 98 99 100 100 100 99 99 98 96 94 94 95 96 100 100 100 100 100 100 100 99 100 100 99 98
94 95 99 97 96 98 100 100 100 99 100 99 100 100 98 98 98 90 83 86 93 100 100 100 100 100 99 100 100 100 99 100 99 100 100 98 96 99 98 99 100 100 96
93 96 100 98 99 100 100 100 100 100 99 98 97 97 96 100 100 99 96 98 100 100 100 99 99 99 94 96 100 100 100 98 98 97 97 99 100 99 97 96 96 96 97
97 97 98 99 96 98 98 99 98 99 97 97 98 100 100 100 100 100 100 100 100 100 100 100 100 100 100 100 100 100 96 95 94 95 97 98 98 97 97 97 96 95 95
98 96 95 99 98 99 99 100 97 98 97 97 97 98 100 100 100 100 100 100 100 100 100 100 100 100 100 100 100 100 95 95 96 96 96 97 96 96 96 95 96 95 94
95 99 98 97 98 97 98 98 99 98 98 98 94 97 99 100 100 92 89 92 91 91 90 92 94 96 96 96 94 94 96 96 96 97 97 96 95 95 94 94 95 98 96
97 97 98 98 98 98 100 100 99 99 100 99 99 98 97 98 99 100 97 95 94 93 87 85 90 93 95 96 96 96 95 95 96 96 96 97 97 93 96 98 98 95 94
99 99 99 99 100 100 97 99 100 100 100 100 99 98 98 100 100 100 100 100 98 90 88 98 100 98 98 98 98 97 95 95 97 95 97 100 99 98 98 98 95 93 89
94 95 92 93 96 98 96 99 100 100 100 100 100 100 100 100 100 100 100 100 92 76 95 100 100 100 100 100 100 100 100 98 88 89 92 100 100 98 92 89 93 87 83
88 89 89 90 89 89 90 93 93 96 100 100 100 100 100 100 100 100 99 76 86 94 100 100 100 100 100 100 100 100 95 86 84 83 80 80 87 97 96 91 88 93 82
90 91 91 90 89 88 86 86 87 90 94 95 85 83 91 100 100 96 79 89 100 100 100 100 100 96 98 97 90 88 83 80 77 76 79 80 76 81 94 89 92 89 90
92 91 85 83 82 81 82 83 85 88 91 95 98 94 79 68 82 88 86 88 92 96 93 93 91 89 88 86 83 79 74 72 73 79 80 82 82 83 82 77 76 95 96
90 90 88 87 88 89 90 93 92 90 96 99 98 85 75 82 92 90 88 86 84 84 84 85 88 86 85 82 80 78 77 75 73 71 71 75 79 80 82 78 79 87 100
87 89 88 88 85 84 87 85 83 82 83 86 88 82 73 75 83 87 86 82 79 79 79 76 75 78 84 86 86 81 80 79 76 73 70 70 72 77 81 82 89 88 84
86 85 85 87 86 85 85 86 84 83 83 80 80 82 84 86 89 94 97 94 90 88 85 80 80 81 90 91 88 85 81 83 85 84 77 77 79 83 87 92 92 87 88
82 84 88 90 89 92 92 92 92 92 91 91 90 91 92 91 90 94 98 100 99 98 96 96 97 98 99 96 93 93 93 94 90 84 79 79 83 90 94 93 91 89 92
83 84 86 88 88 89 89 91 94 96 96 97 98 98 99 99 97 95 93 98 100 100 100 100 100 100 95 96 98 97 95 93 92 87 78 76 81 89 92 93 94 95 93
82 82 82 83 87 89 88 88 90 91 92 95 98 99 99 99 96 91 86 86 92 99 100 100 100 98 95 97 98 96 92 92 90 88 83 82 88 92 94 97 98 95 97

GFSGL_925_rhum_075.txt.gz
RH
95 100 100 100 99 98 94 90 91 90 96 100 100 100 100 100 97 96 99 99 93 81 79 79 79 86 77 85 89 88 83 82 82 64 56 57 67 58 54 54 55 52 48
94 96 96 99 100 100 100 100 97 91 92 94 95 98 100 100 100 100 100 100 100 100 94 93 97 89 96 90 98 87 90 82 80 74 62 61 69 75 75 70 63 62 62
95 93 94 94 94 100 100 100 99 97 96 93 94 92 93 96 97 98 99 100 100 100 100 100 99 98 100 97 95 88 81 82 80 78 72 67 64 67 80 90 84 83 82
100 100 100 99 94 96 100 100 100 99 97 96 96 95 93 91 88 83 89 94 94 92 94 93 92 90 87 84 86 82 83 83 82 89 88 82 76 69 72 80 78 78 83
94 96 100 100 100 100 100 100 100 98 97 96 95 95 93 94 96 91 87 86 90 91 90 88 87 87 84 80 78 80 80 82 81 80 78 76 74 73 76 74 78 78 78
85 87 90 91 95 99 100 100 100 100 100 100 100 99 94 98 98 97 94 94 93 92 91 90 89 88 89 88 85 80 75 74 79 80 77 75 72 71 70 71 72 74 78
86 81 84 85 88 92 93 95 98 100 100 100 100 100 100 100 100 100 100 100 100 97 95 93 92 91 91 92 89 88 86 84 81 78 76 75 76 76 76 77 77 79 80
78 82 86 87 87 89 92 95 100 100 100 99 99 100 100 100 95 92 91 93 98 100 100 99 98 97 94 96 96 96 96 93 95 95 98 95 95 97 99 100 98 95 97
83 87 88 90 91 94 97 99 100 100 100 99 100 99 99 99 87 79 76 80 83 96 100 100 99 99 100 100 100 100 100 100 100 100 100 100 100 98 96 99 100 100 100
88 92 91 92 96 98 99 100 100 100 100 100 100 100 100 100 98 94 93 100 100 100 100 100 97 99 97 92 97 100 100 100 99 99 97 96 96 96 97 99 100 100 99
89 93 94 92 98 97 97 98 96 97 98 99 100 100 100 100 100 99 99 99 100 100 100 100 100 100 100 99 99 100 100 99 98 97 97 96 95 96 96 96 99 98 96
89 91 93 97 99 99 96 98 97 95 94 94 96 99 100 100 100 100 100 99 95 95 100 100 100 100 100 100 100 100 99 95 94 95 96 98 98 98 95 96 95 94 95
90 90 91 92 93 95 96 95 96 94 89 91 93 96 98 100 100 100 100 100 100 100 100 100 100 100 100 100 90 87 88 94 96 96 97 97 99 98 98 98 97 97 96
88 92 91 94 93 92 94 96 96 93 91 91 92 93 97 100 100 100 100 100 100 100 98 99 100 100 94 99 100 100 100 100 100 99 99 98 97 99 98 98 95 91 82
91 92 93 94 94 98 100 98 98 99 99 97 98 98 96 97 99 100 100 100 100 97 100 100 99 98 98 100 100 100 100 100 100 100 100 96 90 87 89 87 81 78 74
89 93 98 95 94 92 90 99 100 100 100 100 100 100 100 98 100 100 100 100 86 94 97 97 99 99 97 95 94 95 94 93 92 88 88 86 85 84 86 88 84 75 68
99 96 94 95 94 93 94 90 94 100 100 100 100 100 100 100 100 100 100 97 90 94 95 96 95 92 87 84 83 82 85 90 89 88 87 88 87 85 78 74 77 69 66
86 86 100 100 100 100 100 100 100 99 99 100 100 100 100 100 100 100 87 83 91 92 91 90 90 89 84 81 81 82 86 88 88 86 89 92 88 82 78 73 73 76 66
98 93 94 97 92 94 99 97 96 93 93 95 94 88 86 100 98 80 82 94 90 89 87 89 92 89 88 89 96 95 96 94 95 94 94 93 95 82 80 78 76 84 75
96 82 88 98 98 96 95 90 88 88 88 89 92 97 93 86 92 95 99 99 94 92 91 90 92 96 96 94 98 97 92 91 89 86 95 97 98 90 85 83 84 79 77
100 98 89 99 97 97 94 89 88 88 87 88 94 83 81 88 92 93 93 98 96 95 98 94 100 100 100 99 94 96 95 95 95 96 95 93 100 92 91 91 89 84 80
100 99 97 95 93 93 88 87 87 86 85 87 91 83 70 98 95 95 98 100 100 100 99 100 100 100 100 100 100 100 100 100 100 100 99 99 98 96 96 94 93 92 86
90 96 95 96 95 88 95 92 95 94 94 96 95 97 99 100 100 100 100 100 100 97 93 100 100 100 96 88 100 100 100 100 100 86 100 100 100 100 100 98 95 92 93
89 100 96 100 100 100 100 100 99 93 100 100 100 100 100 100 100 98 96 98 99 95 91 90 96 96 94 92 100 100 100 89 87 88 73 87 100 100 100 100 99 100 98
84 87 94 99 100 100 100 100 100 100 100 100 100 100 100 100 100 91 86 86 90 95 95 95 95 96 96 96 97 97 94 93 90 87 92 90 89 91 100 100 100 100 100
80 81 85 96 93 97 100 100 98 99 100 100 100 100 100 99 93 90 89 92 94 96 96 97 96 94 96 100 100 99 94 93 90 92 88 100 100 100 100 100 100 100 100

GFSGL_925_rhum_078.txt.gz
RH
94 93 80 76 85 93 91 92 94 99 99 97 99 99 100 100 100 100 95 94 86 88 87 77 70 72 75 77 76 80 82 81 82 70 68 61 60 59 57 62 64 70 64
94 90 87 86 83 86 88 95 98 98 99 100 99 99 99 100 100 100 100 100 98 95 82 94 84 94 87 90 82 79 92 91 91 83 81 74 69 63 61 62 66 64 65
88 91 93 95 98 92 87 85 90 93 98 100 99 100 100 99 100 99 99 100 100 100 100 90 88 89 82 85 89 89 90 90 91 93 86 72 64 62 63 60 62 67 68
97 100 100 98 98 98 96 92 87 86 89 94 95 94 94 95 95 95 92 92 97 96 94 97 97 91 88 84 85 88 87 87 86 87 78 70 66 64 62 61 64 65 67
95 96 100 100 100 100 100 96 100 97 89 83 85 87 88 90 95 88 88 94 97 92 90 88 83 83 83 84 83 84 83 81 79 76 78 73 71 68 68 66 67 66 66
85 87 89 93 97 99 99 100 100 100 100 100 99 100 100 100 100 99 98 98 98 94 91 89 89 87 84 82 82 80 78 78 78 80 77 77 75 70 67 67 66 67 72
81 82 81 83 85 89 95 99 99 100 100 100 100 100 100 99 96 97 99 99 100 100 100 100 100 100 100 100 98 94 92 90 87 85 84 83 84 85 87 82 80 77 77
71 74 81 82 80 82 87 95 100 100 99 100 100 99 99 97 85 83 83 87 97 100 100 99 100 100 100 100 100 100 100 100 100 100 100 100 100 100 100 100 100 100 100
76 78 79 80 84 86 91 95 95 93 96 99 99 99 98 100 96 87 94 100 100 100 100 98 99 99 95 87 90 98 100 100 99 100 100 99 98 98 97 96 100 100 98
80 77 81 86 84 90 90 91 90 89 90 90 92 95 97 96 100 99 100 100 100 100 99 99 98 98 92 85 94 100 100 100 100 99 97 94 94 94 95 96 98 100 100
82 85 88 86 89 92 89 88 88 89 89 90 92 94 96 100 100 100 100 99 100 100 100 100 100 100 100 99 98 99 100 98 95 92 91 92 90 90 92 94 94 94 98
79 81 85 87 82 87 89 88 86 85 85 85 87 93 97 100 100 100 100 100 99 100 100 100 100 100 100 100 100 98 89 87 84 84 92 97 96 100 100 99 100 98 100
79 79 80 83 84 81 79 78 78 79 79 81 84 89 95 97 99 100 100 100 100 100 100 100 100 100 100 100 100 100 100 100 100 97 96 100 100 100 100 99 100 94 83
76 79 82 82 81 82 84 86 87 84 84 86 87 90 94 99 100 100 100 100 100 100 100 100 99 99 100 100 100 100 100 100 99 97 96 98 94 87 80 76 72 72 58
77 79 81 83 87 96 98 96 98 99 98 94 98 98 96 98 100 100 100 100 100 100 100 99 97 94 92 92 93 93 92 91 89 89 84 78 73 68 63 63 61 60 55
79 82 84 81 79 79 86 97 100 100 100 100 100 100 100 100 100 100 100 100 99 97 95 92 90 86 78 75 74 73 74 73 73 72 73 70 68 66 63 67 67 61 56
92 85 86 86 84 85 84 84 91 100 100 100 100 100 100 100 100 100 99 96 94 90 88 86 83 79 70 66 66 65 68 74 73 74 75 76 74 70 66 62 64 59 55
100 100 98 97 97 98 98 97 96 93 93 98 100 100 100 100 100 97 91 83 78 76 75 75 75 73 65 65 67 70 75 78 78 74 79 81 79 70 68 62 61 67 57
100 100 100 100 99 96 93 90 86 84 82 82 82 85 91 92 92 93 89 80 74 70 66 68 72 71 71 74 84 84 85 85 86 84 83 80 84 73 69 67 68 71 66
97 99 95 91 90 87 83 76 74 72 73 74 78 83 74 76 79 82 86 85 78 76 73 71 75 80 83 80 84 86 77 80 78 75 82 86 88 78 73 73 72 67 61
88 92 89 83 81 78 76 71 70 71 70 70 79 96 87 72 76 77 78 84 81 80 84 78 84 87 84 84 82 86 87 88 87 86 86 84 89 82 78 76 74 70 66
81 79 78 77 75 75 69 70 72 70 69 71 74 83 90 84 79 79 84 94 95 88 86 90 88 89 94 95 94 94 91 94 95 96 92 90 86 82 82 78 78 77 73
80 81 75 76 77 80 77 74 78 78 79 81 78 81 84 89 89 87 94 99 97 100 100 99 99 99 100 100 100 100 99 100 100 100 100 97 87 88 86 82 78 78 79
82 83 76 82 83 79 83 86 87 86 82 86 88 90 91 93 96 99 100 100 100 100 100 100 100 100 100 100 100 100 100 100 100 100 100 100 95 90 90 84 80 84 83
87 87 86 85 87 87 86 85 87 88 88 89 90 91 90 92 93 98 100 100 100 100 100 100 100 100 100 100 100 100 99 87 96 86 100 100 100 100 99 93 94 85 84
85 85 86 85 86 86 85 85 87 88 88 91 93 95 97 95 94 100 100 100 100 100 100 100 100 100 100 100 100 100 91 89 95 86 91 100 100 99 99 96 92 91 84

GFSGL_925_rhum_081.txt.gz
RH
80 70 75 77 74 82 84 84 82 85 92 94 98 99 100 100 99 98 94 83 79 79 80 77 76 82 80 74 64 60 75 71 72 59 55 55 60 60 55 57 62 64 67
80 80 77 75 79 81 82 79 82 86 94 94 94 98 99 100 100 100 99 96 87 87 86 85 87 85 82 77 70 76 83 76 80 80 76 75 73 74 70 67 62 59 57
90 89 84 81 82 82 84 87 90 91 94 93 94 95 98 99 99 100 100 100 100 97 96 97 92 90 89 89 92 90 90 89 91 91 79 72 74 72 72 72 67 64 62
94 95 95 91 85 82 82 84 89 91 92 88 92 95 96 99 100 100 100 100 100 99 97 97 92 86 85 92 96 91 84 83 78 77 78 76 76 74 75 73 69 66 66
98 99 100 100 100 100 99 96 97 96 100 98 94 98 98 96 99 98 99 100 100 98 92 91 92 91 91 93 86 78 78 82 85 85 84 80 78 76 73 67 68 66 64
92 93 97 98 100 100 100 100 100 100 100 100 100 100 100 100 100 100 94 93 97 100 100 100 100 99 97 94 92 90 92 97 86 86 85 82 78 76 74 75 74 74 77
90 86 88 91 94 98 100 99 99 100 100 100 100 100 99 95 93 93 96 97 99 100 99 99 100 100 100 99 100 100 100 100 100 100 100 100 100 100 100 98 100 100 99
80 84 84 84 87 96 99 96 98 98 99 100 100 98 95 89 83 86 93 100 100 100 99 100 99 99 96 93 92 98 100 100 99 100 100 100 99 99 98 98 100 99 99
85 80 77 83 85 86 88 91 91 92 94 94 95 94 96 97 98 100 100 99 99 99 99 91 98 97 81 77 92 100 100 100 98 98 98 97 95 93 90 86 87 97 99
82 82 84 87 84 88 88 88 85 85 85 86 89 94 95 100 98 98 99 100 100 100 100 100 99 99 99 99 100 100 99 100 98 93 87 84 81 86 88 84 92 100 98
84 82 82 87 90 90 87 86 84 84 84 86 88 89 94 100 100 96 93 95 97 97 99 100 100 100 100 100 100 100 100 97 91 89 93 99 100 100 100 100 100 100 98
90 86 88 91 86 83 85 89 88 80 80 84 89 94 98 100 100 100 99 97 98 99 100 100 100 100 100 100 100 100 100 98 100 98 97 98 99 100 100 100 96 92 95
76 83 91 92 94 95 94 94 89 86 88 90 90 91 96 98 100 97 96 99 100 100 100 100 100 100 100 98 100 98 92 94 95 95 96 97 96 93 86 86 84 76 63
71 74 77 77 78 79 85 94 99 92 89 93 92 92 96 100 100 99 98 100 98 99 96 98 96 95 93 97 96 95 92 93 93 92 93 91 80 74 68 66 64 60 57
73 75 78 83 86 96 100 97 98 100 100 96 99 100 97 100 100 100 100 100 100 96 93 93 91 87 84 83 82 80 80 78 78 79 75 71 68 63 61 62 60 58 55
77 79 79 76 76 78 84 96 100 100 100 100 98 100 100 100 100 100 99 96 92 92 90 87 85 81 74 72 70 70 72 72 71 71 72 70 68 66 63 64 64 61 54
88 83 85 86 84 88 92 85 93 100 87 100 100 100 100 100 100 97 92 80 86 83 79 78 77 74 66 63 64 65 68 73 72 73 74 76 73 68 65 60 61 61 55
99 98 97 96 95 94 95 95 96 97 93 99 86 91 91 92 91 88 83 76 72 72 71 72 71 69 63 65 67 71 75 78 77 74 78 79 79 69 67 63 62 64 62
95 95 94 95 92 91 88 85 82 80 78 78 88 83 85 88 86 86 83 76 70 65 63 64 69 68 69 72 83 82 83 81 82 80 81 80 84 73 69 67 67 66 60
89 90 86 83 82 79 76 71 70 70 70 74 77 80 73 74 77 80 83 81 75 73 69 68 73 78 80 77 81 84 76 78 78 76 80 83 85 78 72 70 69 66 59
78 78 77 74 72 72 71 67 66 67 65 68 75 88 82 70 72 74 76 81 78 77 81 75 80 84 82 81 80 84 84 85 85 85 85 83 86 78 75 73 71 68 63
70 68 68 68 69 70 64 66 68 66 65 67 70 82 82 79 75 75 81 90 91 86 84 88 87 86 90 92 91 91 88 90 92 95 94 90 83 80 79 75 73 73 69
71 73 66 68 68 72 71 68 72 72 73 75 73 76 77 84 84 83 89 94 92 96 99 97 97 95 99 100 98 96 97 99 100 100 100 97 87 84 85 79 74 72 74
74 74 64 71 78 72 77 79 81 75 75 78 82 82 83 85 88 90 94 98 98 98 100 100 100 100 100 100 100 100 100 100 100 100 100 100 93 89 91 83 78 80 77
79 77 76 76 80 78 77 76 78 80 80 81 82 84 81 84 84 89 94 98 100 100 99 100 100 100 100 100 100 100 100 89 97 99 100 100 96 97 91 88 84 83 82
77 77 77 77 77 77 78 78 79 80 80 83 84 85 87 86 85 92 93 94 96 99 99 99 100 100 100 100 100 100 83 99 94 75 77 100 99 94 92 95 91 86 84

GFSGL_925_rhum_084.txt.gz
RH
70 66 68 67 71 79 84 84 84 90 95 98 99 100 99 100 97 97 96 95 94 90 87 82 77 75 75 86 72 60 74 74 84 72 64 55 53 51 56 59 61 62 59
76 76 72 72 81 84 84 83 85 90 94 94 97 100 100 100 100 99 100 99 98 98 89 90 90 86 81 80 89 84 82 78 76 71 73 71 66 58 60 63 64 62 65
82 79 76 74 76 81 82 83 85 88 87 90 96 97 99 100 99 100 100 98 98 94 92 87 86 84 84 86 89 88 86 82 78 85 76 69 68 72 73 72 70 72 69
97 94 95 94 94 94 87 88 89 91 87 90 98 100 100 100 100 100 100 100 100 98 92 88 85 91 89 92 90 87 89 88 89 88 85 84 80 75 73 74 76 76 78
100 100 100 100 100 100 100 100 100 100 100 100 100 100 100 100 100 100 100 100 100 99 99 98 100 100 100 98 98 97 97 95 92 87 86 82 81 84 91 94 96 97 96
99 100 100 100 100 100 100 100 100 100 100 100 100 100 100 99 100 100 98 100 100 99 99 100 100 100 100 100 100 100 100 100 100 100 100 100 100 100 99 98 100 98 98
98 99 100 100 100 100 100 100 100 100 100 100 100 98 97 98 95 96 99 99 100 100 100 99 99 99 99 98 100 100 100 99 100 100 100 100 99 100 99 97 99 100 100
96 96 98 100 100 100 100 99 100 100 100 100 97 92 96 100 100 99 100 100 99 98 96 98 96 92 92 92 100 100 99 99 99 99 99 100 100 95 91 93 99 96 99
100 100 96 96 97 99 99 100 100 100 96 99 100 99 98 99 100 100 98 98 98 98 93 95 95 93 100 100 99 99 100 100 100 96 89 90 89 83 79 85 90 97 100
99 100 99 99 94 93 92 92 92 92 96 94 98 100 100 100 98 98 97 96 97 100 100 100 100 100 100 100 99 99 99 98 89 88 91 93 88 82 77 85 99 100 100
98 98 99 100 100 94 91 89 89 92 93 95 98 100 100 100 100 99 99 100 100 100 100 100 100 100 100 100 95 94 96 97 99 100 98 96 94 92 85 72 67 80 95
99 98 98 99 100 100 97 97 93 93 95 98 100 100 100 100 100 100 99 99 100 100 100 100 100 100 100 96 94 96 97 92 90 90 90 90 87 86 91 82 80 61 49
98 97 97 99 99 98 100 100 100 99 95 96 96 99 100 100 100 99 97 94 94 96 98 98 99 100 100 98 99 94 88 89 95 95 95 91 78 70 65 68 64 75 55
82 85 91 98 99 97 96 97 99 100 99 100 99 99 99 96 96 99 98 97 96 93 92 94 92 90 88 81 83 83 84 86 85 84 80 72 68 66 64 65 62 60 52
80 83 87 91 94 99 100 99 100 100 99 99 99 100 100 100 100 100 97 93 93 96 90 86 85 84 80 80 79 76 75 76 76 77 75 75 71 67 67 66 66 60 56
84 90 85 81 84 90 97 100 100 100 100 100 100 99 99 100 98 93 94 90 89 86 86 88 84 75 72 72 73 77 75 76 77 79 77 81 76 70 68 64 66 67 58
99 92 93 94 97 98 90 94 100 97 93 94 97 99 98 94 89 90 83 74 78 79 83 81 76 70 68 69 73 77 81 81 78 78 84 78 82 74 69 70 69 65 65
91 94 98 96 95 93 93 97 98 98 96 89 88 84 87 89 89 86 80 75 72 71 75 76 73 70 73 84 88 84 86 80 84 88 80 84 83 79 72 70 70 69 64
97 94 87 83 87 88 84 84 82 82 90 96 97 87 84 85 86 89 85 77 72 68 69 73 76 77 81 90 77 90 88 83 84 84 90 87 79 86 77 75 74 68 64
81 85 85 85 82 78 75 74 74 78 83 83 86 91 89 80 84 85 84 83 82 82 76 81 88 90 86 87 96 80 88 89 84 94 89 88 80 91 77 83 74 75 71
78 74 72 74 73 73 70 68 70 71 76 76 73 80 79 78 81 84 89 88 88 88 90 90 89 82 90 90 94 98 88 92 94 88 93 92 90 96 84 86 82 74 80
70 67 68 70 74 71 67 71 70 69 70 78 81 75 84 84 82 86 93 94 92 88 99 99 97 99 93 94 94 91 99 98 96 96 94 91 90 99 74 93 82 80 76
75 73 67 74 71 75 77 85 86 79 81 80 83 86 88 93 85 92 98 92 100 98 88 93 92 97 85 100 100 100 93 92 94 100 95 99 93 98 87 92 88 93 83
81 77 67 73 75 90 94 90 74 67 80 89 90 92 87 94 91 99 96 89 88 100 92 96 100 99 99 85 96 100 98 78 72 92 84 100 100 99 83 95 86 87 78
84 81 80 82 89 88 86 83 84 86 86 89 93 93 91 93 96 98 99 95 88 96 100 100 100 92 100 92 100 97 94 79 68 69 65 86 100 100 100 100 97 99 84
84 86 88 91 92 90 91 92 90 86 87 92 91 94 93 93 94 94 98 99 100 84 94 100 100 100 89 100 100 100 97 84 94 77 65 92 100 99 94 90 87 89 94

GFSGL_925_rhum_087.txt.gz
RH
72 69 72 68 65 76 80 86 90 91 98 99 99 100 100 100 100 100 100 100 100 99 94 85 91 80 71 73 76 79 68 70 88 80 74 69 65 61 58 60 63 64 66
78 75 72 66 65 75 81 88 86 88 93 95 100 100 100 100 99 100 100 100 99 93 90 98 92 82 77 69 57 60 75 83 74 86 75 73 64 61 62 64 63 55 51
84 80 79 77 79 84 86 86 86 90 89 96 100 100 100 100 100 100 99 96 96 95 94 95 94 94 93 86 70 78 91 96 92 89 80 76 70 70 61 51 47 49 66
98 95 95 98 95 91 91 94 95 95 100 100 100 100 100 100 100 100 100 100 100 100 99 100 98 91 88 90 92 90 94 94 93 93 89 84 80 72 74 77 80 81 89
100 100 100 100 100 98 98 99 100 100 100 100 100 100 100 100 100 100 100 100 100 100 100 100 100 100 97 96 97 99 95 95 94 93 93 91 89 92 94 99 100 96 99
100 100 100 99 100 100 100 100 100 100 100 100 100 100 100 100 100 100 100 100 100 100 99 100 100 99 100 100 100 100 100 100 100 100 100 100 100 100 100 99 98 98 98
100 100 100 100 100 100 100 100 100 100 100 100 100 100 100 100 100 100 100 100 100 100 100 100 100 98 99 100 100 99 100 99 100 100 100 100 100 100 99 98 100 100 100
100 100 100 100 100 100 99 100 100 100 100 99 100 100 99 100 100 100 100 100 99 99 99 97 98 100 100 99 99 99 98 97 98 98 97 98 96 90 88 96 99 98 100
100 100 100 100 100 100 100 100 100 100 100 100 100 100 99 100 100 100 100 99 98 100 100 97 97 100 100 100 99 99 99 97 92 89 88 82 73 73 77 86 85 99 100
100 100 100 100 100 100 100 100 100 97 99 99 100 100 98 99 99 97 96 98 100 100 100 100 100 99 100 100 98 94 95 100 100 96 90 83 76 69 62 68 87 93 96
99 99 100 100 100 98 100 98 96 97 99 99 100 100 100 96 99 99 98 98 100 100 100 100 100 99 100 98 96 96 99 97 92 87 84 83 84 79 76 70 53 47 71
98 98 98 98 99 100 98 99 99 99 98 100 100 100 100 100 99 100 98 98 100 100 100 100 100 100 100 96 96 93 88 86 85 84 78 71 66 68 71 70 74 51 50
96 97 97 97 98 97 98 98 99 97 99 99 98 100 100 100 100 100 99 93 92 96 96 98 98 99 94 94 87 85 84 86 82 75 72 75 66 64 61 63 68 68 54
99 96 96 96 96 96 97 97 96 97 97 98 98 99 98 98 99 99 100 98 99 99 98 98 92 77 72 75 78 80 80 78 77 78 71 66 67 66 65 64 60 58 50
87 90 94 97 99 100 99 98 100 98 95 100 100 99 100 100 100 100 96 96 93 89 84 78 73 74 79 71 70 74 76 75 75 76 76 73 69 68 63 64 65 59 52
100 94 88 88 92 96 98 99 100 100 100 100 96 94 99 96 94 95 95 98 84 76 71 71 70 73 77 80 80 79 81 80 80 75 78 80 74 69 74 69 56 61 62
97 97 97 99 96 90 89 93 99 93 91 95 96 95 93 92 91 85 90 89 76 69 71 72 75 77 81 81 82 79 84 90 86 76 78 83 80 71 70 73 67 63 63
89 89 89 89 88 93 99 96 93 86 95 90 89 87 93 95 96 88 71 65 73 74 74 78 84 82 82 92 90 79 75 82 86 89 77 78 85 80 78 77 72 72 64
89 79 82 84 81 79 81 87 98 98 98 97 93 94 90 94 98 83 70 71 75 78 82 85 84 92 96 79 87 96 84 82 92 89 86 77 91 82 84 82 74 74 76
83 86 83 79 75 75 77 82 79 76 68 74 84 89 86 73 76 82 83 82 87 91 87 86 87 85 90 96 89 85 89 82 82 88 87 85 92 97 87 92 87 74 84
74 76 74 73 72 69 71 73 74 67 52 79 85 85 83 82 86 83 86 87 89 97 99 92 82 83 87 89 94 95 92 90 88 83 82 91 95 93 82 92 88 87 73
68 68 70 71 68 73 73 70 76 82 77 72 82 87 86 91 93 91 94 94 88 89 98 99 94 90 89 93 94 91 90 88 85 81 80 89 97 92 84 87 94 92 86
71 78 78 79 85 80 83 85 85 81 84 87 86 82 80 81 85 89 88 94 98 90 83 87 86 86 88 97 96 94 89 82 66 69 73 91 96 99 83 86 93 92 80
85 82 69 81 84 93 81 72 69 88 95 95 91 85 91 92 94 93 88 79 87 100 94 95 90 89 82 87 84 87 84 77 64 58 64 90 97 96 99 99 98 95 92
83 87 85 86 90 93 88 91 91 88 92 94 95 96 97 97 98 96 92 86 78 92 95 97 100 95 90 87 94 98 97 88 72 61 57 87 100 100 100 97 85 86 84
78 87 91 94 92 92 94 96 96 91 97 97 99 99 96 98 100 100 100 94 93 83 88 100 100 100 96 92 100 100 95 88 78 68 63 77 92 94 90 89 91 89 86

GFSGL_925_rhum_093.txt.gz
RH
99 100 98 94 90 84 83 83 85 87 89 90 88 97 100 98 99 99 100 99 100 100 100 100 99 96 93 86 72 77 77 64 86 89 77 75 75 70 70 70 73 72 73
94 99 99 92 86 85 82 85 87 89 91 92 95 98 100 99 100 99 99 100 100 100 100 100 100 100 95 88 83 88 83 75 74 84 78 76 68 66 67 67 69 68 76
100 96 100 99 95 88 87 88 93 95 98 98 99 100 99 99 100 100 100 100 100 99 98 100 100 100 100 94 89 90 88 89 82 79 77 74 71 72 74 75 71 84 87
100 100 100 100 98 95 99 100 100 98 99 100 100 100 100 100 100 100 100 100 100 100 100 100 98 100 96 92 96 94 90 88 84 88 93 93 91 90 91 88 87 94 92
100 100 98 100 100 100 100 100 100 100 100 100 100 99 100 100 100 100 100 100 100 100 100 100 100 100 100 98 98 96 100 97 98 100 100 100 100 100 97 96 99 100 100
100 100 100 99 100 100 100 100 100 100 100 100 100 100 100 100 100 100 100 100 100 100 100 100 100 100 100 100 100 100 100 100 98 95 98 100 100 100 100 99 100 100 100
100 100 100 98 100 100 100 100 100 100 100 100 100 100 100 100 100 100 100 100 100 100 100 100 100 100 100 100 100 100 100 100 100 99 99 100 100 100 100 100 100 100 100
100 100 99 98 98 99 99 100 100 100 100 100 100 99 99 99 100 100 100 100 100 100 100 100 100 100 100 100 100 100 100 100 100 100 100 100 99 97 98 99 99 100 98
100 100 100 99 98 97 99 100 99 99 100 100 100 100 99 99 100 100 100 100 100 100 100 100 100 100 100 100 100 99 100 100 93 89 87 84 82 83 89 89 95 98 100
100 100 100 100 98 100 99 98 98 98 100 100 100 100 100 100 100 99 99 99 99 100 100 100 100 99 99 100 98 95 95 97 90 85 76 65 60 56 63 70 98 96 94
98 98 98 97 98 99 100 100 100 100 96 96 96 99 100 100 100 100 97 94 98 100 100 100 100 99 97 96 96 96 98 91 82 72 71 68 56 51 47 44 55 73 65
97 96 98 99 98 97 97 97 97 97 97 98 99 99 98 98 98 98 96 95 96 97 100 99 100 100 99 98 92 89 80 73 70 64 62 70 70 53 52 48 44 41 40
94 96 96 97 97 97 96 96 97 97 97 97 97 98 98 98 97 97 97 97 96 94 95 97 97 95 93 89 87 80 70 63 61 63 68 68 66 70 56 55 48 46 44
95 97 96 96 96 96 96 96 96 96 97 97 97 97 98 97 97 97 96 96 96 97 96 93 92 89 86 82 75 70 68 68 69 68 64 64 64 61 56 54 52 50 49
97 96 95 96 96 99 97 96 96 97 96 96 97 96 97 98 97 96 96 96 96 96 95 95 95 94 93 94 93 93 92 87 82 78 72 66 59 56 61 60 54 51 57
86 91 94 97 98 97 98 99 96 97 96 96 96 96 98 98 97 97 97 97 95 94 88 90 93 93 93 91 87 82 76 79 78 72 71 72 70 66 60 59 61 60 65
100 100 83 79 89 94 94 98 98 96 96 100 99 98 98 99 100 100 99 96 85 77 84 89 89 88 92 93 91 85 83 81 82 78 76 75 74 71 66 69 67 65 72
91 94 96 87 66 70 86 91 90 92 100 97 99 98 98 100 100 100 74 63 73 81 86 89 88 86 83 85 88 88 84 78 74 86 84 81 82 77 74 76 78 76 75
85 83 84 95 93 78 77 82 87 90 95 95 92 91 100 100 86 72 66 69 87 91 86 85 90 90 84 83 84 87 86 85 83 78 89 86 84 82 84 80 77 78 74
82 78 81 80 91 90 88 84 86 89 91 78 76 80 79 72 74 82 83 83 85 89 94 94 94 92 92 90 88 86 81 76 75 81 90 90 86 87 90 87 84 80 82
75 75 75 80 83 80 72 52 70 87 93 88 83 79 76 77 91 93 92 88 86 87 86 87 90 91 93 91 88 84 81 79 76 72 89 94 87 79 89 95 89 83 85
68 68 74 74 79 78 68 64 79 86 90 90 90 86 79 75 81 84 85 88 95 96 95 89 85 85 87 86 87 85 77 69 53 61 76 93 92 82 76 85 92 86 81
79 78 80 82 81 80 78 74 72 76 82 86 88 88 86 84 84 82 81 89 88 84 84 84 80 79 86 93 92 87 75 64 54 49 53 83 92 86 90 95 95 92 89
84 77 91 95 85 88 87 87 86 89 91 90 84 82 81 82 83 83 80 80 91 93 88 89 84 80 79 80 82 83 81 77 73 60 53 59 84 92 96 94 91 87 87
92 92 93 92 93 88 83 92 96 97 96 95 91 91 93 95 94 93 87 81 82 83 88 92 93 90 90 85 89 91 88 83 75 67 63 60 77 97 94 91 92 92 91
84 91 94 96 96 98 98 98 97 98 98 98 97 96 96 98 99 96 93 91 91 90 83 95 99 94 93 93 90 93 91 83 79 72 65 62 64 88 96 88 98 98 97

GFSGL_925_rhum_096.txt.gz
RH
100 99 99 100 99 98 95 100 95 88 97 99 99 99 99 99 100 100 99 99 100 100 100 99 99 100 100 100 99 89 82 80 85 86 83 79 70 70 74 76 75 78 84
100 100 100 100 91 75 100 95 90 81 90 97 98 100 99 99 100 100 100 96 100 100 100 100 100 100 100 99 99 93 84 85 80 95 86 86 87 88 86 86 87 85 82
100 100 100 96 99 99 97 91 91 96 100 100 100 99 100 99 99 99 100 100 100 99 100 100 100 100 100 100 100 99 93 88 88 91 96 85 82 81 80 81 85 89 94
100 100 100 100 100 100 100 100 100 100 100 100 100 100 100 100 100 100 100 100 99 100 100 100 100 100 100 100 100 96 93 97 90 90 92 92 89 92 92 93 100 99 99
100 100 100 100 100 100 100 100 100 100 100 100 100 100 100 99 99 99 99 99 100 100 100 100 100 100 99 98 96 100 99 98 100 95 97 98 98 100 100 98 100 100 100
100 100 100 99 97 99 99 100 100 100 100 100 100 100 100 100 100 100 99 100 100 100 100 100 100 100 100 100 100 100 99 99 100 100 99 99 100 100 100 100 100 100 99
100 100 100 99 100 94 97 100 100 100 100 100 100 100 100 100 100 100 100 100 100 100 100 100 100 99 100 100 100 100 100 100 100 100 99 100 100 100 100 100 100 100 100
100 100 100 100 100 96 96 99 100 100 100 100 100 100 100 100 100 100 100 100 100 100 100 100 100 100 100 100 100 99 100 100 100 100 100 100 100 100 100 100 100 100 100
100 100 100 99 100 98 99 98 99 100 100 100 100 100 100 100 100 100 100 99 99 100 100 100 100 100 100 100 99 99 99 100 98 97 97 97 97 96 97 99 100 98 97
99 100 99 100 100 96 98 100 99 100 99 99 100 100 100 100 100 100 99 100 98 100 100 99 100 99 99 100 100 97 96 95 86 83 76 72 76 84 85 86 100 94 91
97 97 99 100 100 98 98 96 100 99 99 100 100 100 100 100 100 100 100 99 100 100 100 100 100 100 100 98 93 92 94 91 87 83 76 69 57 49 57 79 80 74 66
96 97 100 100 98 99 99 99 98 97 98 99 99 100 100 100 100 100 98 96 98 100 100 100 100 99 99 100 98 99 94 83 72 66 58 56 51 46 43 40 36 33 33
94 100 98 95 96 95 93 96 99 96 98 98 97 97 98 96 97 97 97 97 97 96 96 97 97 96 95 96 95 88 64 62 64 71 81 79 62 51 48 46 43 37 35
97 100 100 100 98 96 98 97 96 97 98 98 98 98 98 97 96 96 96 96 96 96 97 96 96 94 89 86 80 73 66 66 77 80 74 65 63 64 61 52 51 47 41
94 95 97 100 100 100 100 100 100 99 96 98 99 98 98 100 98 96 96 96 96 96 95 95 95 95 95 95 95 95 94 92 91 88 81 79 84 83 72 55 53 50 62
86 86 92 93 96 100 100 100 100 99 99 98 96 95 99 98 98 97 96 95 95 96 94 96 97 96 96 95 96 95 93 91 93 90 87 83 77 66 67 65 59 70 81
100 98 80 79 94 95 92 96 99 97 97 98 99 99 99 100 100 100 100 86 86 72 86 94 95 94 95 94 93 92 95 95 92 89 89 88 86 82 79 78 74 73 82
84 92 78 68 72 82 88 92 91 94 100 96 99 100 100 100 100 92 66 58 66 71 77 83 86 87 90 90 84 79 75 78 80 81 82 81 74 70 70 73 72 71 75
83 83 91 89 76 78 78 83 90 91 90 87 83 81 88 96 84 72 66 69 83 89 89 88 83 81 82 82 82 80 78 77 80 81 83 82 82 76 78 78 76 72 70
76 80 84 86 86 82 78 80 87 88 81 80 79 84 79 69 74 81 82 84 88 91 88 88 90 87 86 85 83 78 74 75 81 85 86 85 85 84 86 85 85 86 88
72 74 80 85 81 73 57 59 85 92 87 84 83 79 79 82 92 89 87 86 86 87 87 89 92 92 90 87 83 77 70 65 65 77 88 87 83 81 91 89 84 84 82
74 72 77 82 84 72 66 71 82 88 89 87 85 82 76 74 79 83 87 92 94 92 90 85 85 86 86 82 79 71 60 54 53 64 81 90 85 78 78 85 89 87 82
82 87 87 87 85 86 75 74 79 80 84 86 84 81 80 80 79 78 82 87 85 82 82 81 79 82 90 91 89 78 67 62 55 52 61 85 88 82 87 89 89 89 88
92 92 92 95 91 91 91 89 88 91 91 87 83 82 81 81 81 80 78 80 93 88 86 85 81 78 77 83 86 86 80 74 68 59 54 63 79 87 92 90 88 87 85
82 91 90 97 99 95 93 96 96 96 95 96 94 93 93 93 91 90 84 79 80 83 92 97 93 88 86 87 97 91 83 76 71 66 61 61 71 92 95 90 87 92 88
89 90 93 96 96 97 98 98 98 98 98 98 97 98 97 97 96 95 94 92 93 94 84 96 100 97 92 92 90 91 87 83 82 76 68 64 67 79 94 95 92 97 92

GFSGL_925_rhum_102.txt.gz
RH
100 100 100 100 97 98 99 100 97 98 99 90 83 97 99 100 100 100 99 99 99 99 100 100 100 100 100 100 99 95 90 88 92 99 95 93 99 96 95 92 87 89 87
100 100 100 100 100 100 100 100 100 100 100 100 95 98 96 100 100 99 99 98 99 100 100 100 100 100 100 100 99 99 98 95 89 93 100 100 96 88 90 89 81 100 93
100 100 100 100 100 99 100 100 99 99 99 97 99 76 84 100 98 99 99 100 100 100 99 100 99 100 100 100 100 100 100 100 96 91 96 99 96 87 78 94 99 99 97
100 100 100 100 100 100 100 100 99 100 100 98 98 98 98 100 100 100 100 100 100 99 96 97 96 99 100 100 100 100 100 100 99 95 95 98 97 97 99 98 100 100 100
100 100 100 100 99 100 99 100 100 100 100 100 100 100 100 100 100 100 100 99 100 100 100 100 100 100 99 100 100 100 100 100 99 95 96 94 95 100 99 100 100 100 100
98 100 100 99 100 100 99 98 99 100 100 100 100 100 100 100 100 100 100 100 100 100 100 100 100 99 99 100 100 100 100 99 98 94 92 93 97 98 99 100 100 100 99
98 99 100 100 100 100 100 96 97 99 99 100 100 100 100 99 100 100 100 100 100 100 100 100 100 100 100 100 100 100 100 100 99 96 96 96 98 99 99 100 100 99 100
98 99 100 100 100 100 100 100 98 96 96 98 100 100 100 100 100 100 100 100 100 100 100 100 100 100 100 100 100 100 100 100 100 100 99 99 97 99 100 99 98 100 100
98 99 99 99 100 100 100 100 100 100 94 99 98 100 100 100 100 100 100 100 100 100 100 100 100 100 100 100 100 100 100 100 100 100 100 100 100 100 100 100 100 99 99
100 99 99 99 100 100 99 99 99 100 100 98 95 100 100 100 100 100 99 99 99 100 100 100 100 100 100 100 99 100 100 100 99 100 100 100 100 100 100 100 100 100 97
100 100 100 99 98 98 98 99 98 98 99 97 97 98 100 100 100 100 100 99 100 100 100 100 100 100 100 100 99 99 98 100 100 100 100 100 99 99 99 100 100 96 94
100 100 100 100 100 100 99 98 98 99 98 98 98 98 97 97 100 99 99 99 100 100 100 100 100 100 100 100 97 100 97 96 98 97 96 99 98 96 97 98 97 96 97
93 96 98 100 100 98 99 99 95 97 98 98 97 97 98 97 97 97 96 96 96 95 96 99 100 100 100 100 100 95 89 88 92 96 100 100 100 93 82 55 58 90 93
78 82 87 89 94 99 95 95 100 98 94 94 96 97 97 98 99 97 96 98 97 97 96 96 96 96 94 96 96 95 94 89 91 98 100 97 96 96 96 88 86 77 53
63 77 78 79 82 87 99 100 99 100 100 98 100 99 97 97 98 98 98 100 99 97 96 97 98 98 98 98 99 98 98 97 98 98 97 98 98 95 95 96 94 89 86
62 62 73 78 81 79 79 89 100 100 100 100 100 100 100 100 100 100 98 95 96 97 98 96 96 96 95 96 96 96 97 96 96 96 96 94 91 86 87 89 83 75 65
82 73 68 71 72 76 82 85 84 97 92 100 100 100 98 97 98 98 96 93 89 89 88 89 91 90 87 83 81 82 85 89 90 88 89 90 89 87 82 80 77 71 63
89 92 85 84 83 83 84 84 82 79 78 86 97 100 100 100 99 94 85 76 77 79 77 79 81 79 70 68 73 79 82 85 83 82 84 84 82 77 74 71 69 63 52
88 89 86 85 84 83 81 79 78 77 77 77 78 83 93 97 97 95 90 82 76 74 73 75 77 74 73 78 88 90 92 90 89 88 86 83 82 74 68 66 69 65 53
78 92 84 78 76 74 73 72 71 71 72 72 76 81 76 77 82 86 89 87 81 78 76 76 79 83 85 86 91 90 87 87 86 82 89 88 85 76 75 73 73 63 59
73 72 76 70 72 72 72 71 70 71 71 70 76 89 88 73 77 80 81 87 84 83 86 82 88 91 91 90 84 87 83 84 85 85 84 87 88 80 77 76 74 67 62
71 69 68 70 69 73 72 68 73 72 71 72 75 80 87 81 78 79 84 95 97 91 88 91 88 89 90 88 88 89 89 91 89 89 90 88 82 82 79 78 77 74 67
72 74 69 66 75 76 76 75 77 79 79 81 78 79 79 85 85 83 90 96 95 100 99 100 100 100 100 100 99 94 87 90 97 98 91 86 82 82 80 78 77 75 73
75 76 70 70 78 76 82 84 83 83 80 83 89 87 86 87 89 94 96 98 98 100 100 100 100 100 100 100 100 100 100 100 98 80 100 90 88 86 84 80 79 86 80
79 78 76 77 82 82 82 82 87 89 89 88 87 90 89 90 89 92 96 100 100 100 100 100 100 100 100 100 100 99 63 60 67 74 100 100 99 97 90 83 82 80 84
77 78 78 78 78 79 79 80 82 85 88 91 92 92 92 90 90 95 97 99 100 100 100 100 100 100 100 100 100 79 72 71 68 62 100 98 96 94 92 90 95 82 84

GFSGL_925_rhum_108.txt.gz
RH
97 95 99 100 100 100 100 100 99 99 75 78 90 98 100 100 100 100 96 96 94 90 83 79 83 97 96 87 95 97 96 93 93 88 89 90 94 100 100 99 88 83 84
98 97 98 100 100 100 100 100 100 100 98 77 82 87 99 100 97 97 99 95 92 91 86 91 76 92 95 94 87 97 100 99 95 94 94 99 97 92 100 99 100 95 90
98 98 98 100 100 100 100 100 100 99 98 97 73 73 94 100 97 99 95 90 78 65 57 85 94 95 98 96 95 99 99 100 99 97 98 96 100 100 100 100 100 100 98
98 99 99 100 100 100 100 100 100 100 98 100 100 87 83 89 99 96 89 90 82 88 89 84 86 97 95 92 96 92 98 100 100 100 99 99 98 100 100 99 100 100 100
97 99 100 100 100 100 100 100 100 100 100 100 99 100 99 99 99 99 100 94 72 72 96 97 98 97 98 97 99 100 99 100 100 99 98 99 99 99 99 99 99 100 100
99 99 100 100 100 100 100 100 100 100 98 99 98 99 100 100 100 99 97 100 98 99 95 99 100 100 100 100 100 100 100 100 99 98 95 96 97 100 100 100 100 99 99
100 99 100 100 100 100 100 100 100 100 100 100 100 98 98 99 100 100 100 100 100 100 100 100 100 100 100 100 100 100 100 100 100 100 98 97 94 99 99 100 100 96 98
98 99 100 100 100 100 99 99 98 99 100 100 100 100 99 98 98 100 99 100 100 100 100 100 100 100 100 99 100 100 99 100 100 100 100 99 98 100 96 96 99 100 100
99 100 100 100 100 100 99 99 99 98 99 100 100 100 100 100 97 98 98 100 100 100 100 100 100 100 100 99 100 99 100 100 100 100 100 100 100 100 100 98 100 99 99
100 100 99 99 100 100 100 100 100 100 100 100 98 98 98 100 98 98 96 100 100 100 100 100 99 100 100 100 100 100 99 100 100 100 100 100 100 100 100 100 99 98 98
95 97 99 100 100 100 100 100 99 99 99 99 98 98 98 98 98 98 98 98 100 100 100 100 100 100 99 100 100 100 100 100 100 100 100 100 100 100 100 100 100 100 97
85 93 95 91 98 98 99 99 100 98 97 98 98 98 100 98 98 97 97 96 97 97 99 100 100 100 100 100 99 100 100 99 99 99 100 100 100 98 100 100 100 100 98
73 80 86 93 88 89 92 94 96 96 97 95 97 96 97 97 96 97 97 97 97 97 97 97 100 100 100 99 99 98 95 96 98 100 100 100 100 99 99 100 100 100 99
63 66 68 74 96 88 88 90 92 97 96 97 96 97 98 99 100 96 97 97 97 96 96 97 97 97 96 97 97 96 96 97 99 100 100 98 97 98 99 98 98 99 98
63 68 70 69 69 86 96 94 92 90 92 97 100 100 98 97 94 93 96 98 98 98 97 96 97 97 98 98 98 96 97 97 96 96 96 97 96 96 96 96 96 96 96
74 72 75 77 77 76 76 92 100 96 85 84 90 90 96 91 89 85 85 88 91 93 96 98 98 98 98 98 98 97 96 96 96 97 97 96 97 96 97 96 95 96 96
84 89 83 80 82 82 81 82 82 94 92 94 94 92 89 85 86 86 82 82 82 82 90 88 84 90 97 97 97 96 97 96 96 96 95 96 96 96 96 96 96 96 97
72 82 87 82 81 80 79 78 76 78 81 86 72 80 95 92 83 88 85 80 77 76 81 85 85 83 86 95 98 97 96 96 96 96 96 92 86 82 83 81 64 56 59
88 66 77 74 70 71 69 68 69 71 72 83 72 49 76 83 80 84 87 92 86 80 77 80 83 86 93 93 84 79 84 89 90 89 88 83 79 72 69 61 53 47 47
71 65 64 67 69 69 69 66 69 71 70 93 85 63 74 84 79 88 81 89 97 94 97 92 92 86 86 88 86 86 85 84 86 92 95 89 79 75 72 68 60 54 53
68 66 61 64 67 70 68 68 74 76 74 72 95 82 66 85 90 94 96 89 93 97 98 96 96 92 96 96 93 93 94 91 91 92 92 88 84 83 78 70 60 54 52
68 69 62 64 68 69 78 75 85 77 75 86 81 82 87 79 82 90 93 87 95 92 88 98 98 97 86 95 98 94 94 98 98 88 83 86 83 84 82 76 69 66 61
72 75 67 70 75 73 84 78 87 87 88 87 88 87 87 85 90 89 88 76 90 94 92 82 90 96 95 96 87 95 98 93 92 97 91 85 88 83 80 80 78 75 66
76 75 74 74 78 81 82 82 82 86 86 86 91 96 90 92 91 95 96 83 65 88 88 88 97 77 89 99 100 87 84 95 94 94 98 93 78 94 86 80 87 80 78
78 76 75 78 79 81 81 80 81 83 79 87 88 86 88 89 87 86 97 95 85 76 85 99 81 99 88 82 77 64 54 64 82 87 93 96 92 91 85 89 81 82 81
85 84 82 86 85 82 81 82 77 82 81 85 75 86 88 84 81 92 90 97 95 82 85 96 95 81 74 100 89 73 60 58 77 95 97 92 95 86 90 82 82 91 76

GFSGL_925_rhum_111.txt.gz
RH
97 99 100 100 100 100 100 100 100 100 100 100 99 100 94 87 71 81 91 100 97 98 100 96 90 81 80 100 76 78 83 81 89 94 89 95 96 100 100 96 89 88 91
97 99 100 100 100 100 100 100 100 100 100 100 100 100 88 71 61 70 98 98 97 100 92 86 76 76 84 89 87 82 80 88 89 91 100 100 100 100 100 100 99 98 96
97 99 100 100 100 100 100 100 100 100 100 100 100 100 100 78 81 92 100 99 96 96 98 86 90 84 82 97 99 88 90 94 98 94 99 99 100 100 100 100 100 100 100
98 100 100 100 100 100 100 100 100 100 100 100 100 100 100 99 99 100 100 100 100 99 97 74 72 64 69 100 100 92 96 100 100 100 99 100 100 100 100 99 100 100 100
99 100 100 100 100 100 100 100 100 100 100 100 100 100 100 98 100 100 99 100 99 97 92 87 81 92 100 100 100 100 96 100 100 100 97 99 99 99 99 99 100 100 100
100 100 100 100 100 100 99 100 100 100 100 100 100 100 100 100 99 99 98 100 99 91 96 100 100 100 100 99 96 100 99 100 100 100 98 98 98 97 100 100 100 99 99
100 99 99 100 100 100 100 99 100 99 100 100 100 100 100 100 100 93 99 100 100 100 100 100 100 100 100 100 100 100 100 100 100 100 100 97 95 96 98 100 100 99 98
99 100 99 100 100 100 100 100 100 99 99 99 100 100 100 100 100 97 95 95 100 100 100 100 100 100 100 99 100 100 100 100 100 99 100 99 100 98 93 92 100 100 100
98 100 100 99 100 100 100 100 99 99 99 99 99 99 100 100 99 100 94 92 98 100 100 100 100 100 100 100 100 100 100 100 100 100 100 100 99 100 100 99 100 98 100
98 91 97 98 98 100 100 98 98 99 98 98 98 99 100 99 98 98 98 96 99 98 99 100 100 99 100 100 100 100 100 100 100 100 100 100 100 100 100 100 99 98 98
96 89 80 88 88 83 91 97 100 95 97 99 99 99 99 98 99 99 98 98 99 100 99 98 100 98 100 100 100 99 99 100 100 100 100 100 100 100 100 100 100 100 96
78 88 85 80 88 86 80 80 93 98 93 92 95 97 100 100 100 100 98 97 97 98 97 99 99 98 100 100 100 100 99 99 100 100 100 100 100 100 100 100 100 100 100
72 77 86 86 84 90 91 91 81 86 95 95 95 96 98 99 99 95 97 97 97 97 98 97 96 97 97 100 99 97 96 96 99 100 100 100 100 100 100 100 99 100 100
77 82 82 85 90 91 95 96 96 90 91 94 97 97 96 98 94 97 100 97 94 98 98 97 97 96 96 96 96 97 96 100 100 100 100 100 98 96 97 98 99 99 98
87 83 84 85 85 90 98 99 98 96 91 97 99 95 96 96 91 86 92 98 95 94 94 94 97 97 97 97 97 96 96 96 97 96 96 97 97 96 96 97 97 96 97
94 90 82 85 84 85 82 89 100 96 85 78 91 100 93 86 93 84 84 86 91 89 89 94 98 100 100 98 97 97 96 96 96 96 96 97 97 97 97 96 96 97 96
75 86 81 73 77 76 75 78 80 87 74 58 84 95 99 86 87 94 86 85 82 79 93 97 99 99 99 97 98 100 99 97 96 96 96 96 96 96 96 96 96 97 97
62 69 74 72 68 68 71 71 71 87 84 65 52 76 91 88 86 92 98 93 97 95 95 99 100 100 100 98 92 94 95 95 96 96 96 96 96 96 96 96 96 96 97
70 64 67 71 66 65 71 71 74 80 92 76 67 62 73 92 92 83 77 97 100 100 100 100 100 100 100 96 96 90 93 97 97 90 85 89 95 93 94 91 93 95 95
67 63 70 66 68 78 81 88 82 84 91 92 87 84 68 72 100 86 83 87 93 96 100 99 90 92 94 97 97 94 89 90 94 95 89 82 72 66 62 58 60 72 68
70 67 76 70 74 86 78 93 96 86 85 88 90 91 73 71 82 84 81 83 86 79 87 99 100 91 90 92 93 98 97 96 90 90 92 89 82 72 62 56 49 50 50
71 73 81 79 74 81 78 87 91 92 91 93 95 96 88 84 84 78 73 68 79 80 73 76 85 94 100 99 93 96 94 95 93 93 89 87 86 79 70 63 59 57 56
68 67 71 76 75 74 74 73 80 77 78 93 91 87 95 96 98 97 86 72 64 83 80 76 78 74 94 95 92 86 91 93 96 100 97 98 85 81 82 77 69 65 68
82 75 79 83 82 79 79 71 64 74 70 78 63 79 94 93 92 99 96 90 76 70 75 84 84 80 76 73 76 69 52 93 92 98 99 95 96 91 79 85 81 71 68
89 87 87 92 95 98 96 96 85 78 74 68 60 82 84 72 78 83 84 95 94 77 86 93 87 84 71 84 83 72 54 62 92 99 96 96 96 91 84 76 81 73 79
77 81 89 91 93 91 96 100 98 98 96 95 77 81 72 71 70 71 83 96 95 86 93 100 95 88 88 89 93 85 72 58 91 100 97 93 92 90 90 91 84 73 80

GFSGL_925_rhum_114.txt.gz
RH
98 98 98 98 99 100 100 100 100 100 100 100 100 100 100 100 100 100 94 91 91 82 98 96 93 89 91 99 96 95 91 83 86 96 87 92 98 100 98 95 88 82 87
99 98 98 98 98 99 100 100 100 100 100 100 100 100 100 100 100 100 99 86 85 97 98 100 98 100 86 90 92 100 100 98 85 97 99 95 100 99 99 100 100 88 87
99 98 99 99 99 99 100 100 100 100 100 100 100 100 100 100 100 100 100 86 78 89 96 99 96 88 93 91 95 100 100 100 92 86 100 100 100 100 100 100 100 100 100
98 99 100 99 100 99 99 100 100 100 100 100 100 100 100 100 99 100 100 94 99 97 98 100 99 84 82 84 79 73 83 93 100 93 97 99 100 100 100 99 100 100 100
98 99 100 100 99 98 100 100 100 100 100 100 100 100 100 100 100 99 100 96 73 94 100 100 100 97 81 86 80 95 99 98 99 99 99 97 99 99 99 99 100 100 100
99 100 100 100 100 100 100 100 100 100 100 100 100 100 100 100 100 99 100 100 99 100 100 100 100 89 81 77 90 98 100 100 100 97 95 96 98 98 99 100 99 100 99
100 100 100 100 100 100 100 100 99 98 99 100 100 100 100 100 100 100 100 99 99 98 99 100 100 100 100 100 100 100 100 100 97 94 96 94 94 95 99 100 100 98 98
96 99 100 99 100 98 98 99 96 98 98 99 98 99 99 100 98 99 100 99 93 95 96 100 99 100 100 100 100 100 100 100 100 100 99 100 98 98 100 92 97 99 100
93 92 93 90 90 97 100 100 100 98 99 97 98 98 98 99 97 97 99 100 100 97 96 98 98 100 99 100 100 100 100 100 100 100 100 100 100 100 100 100 100 99 100
96 92 86 94 88 86 84 98 94 89 91 97 100 100 100 99 99 99 98 98 98 98 98 97 96 99 99 100 100 99 98 100 100 100 100 99 100 99 100 100 100 99 99
97 89 84 87 92 91 87 80 86 90 91 94 94 97 99 100 100 100 99 99 98 98 98 98 98 100 98 98 96 98 98 100 100 100 99 99 100 100 100 100 100 100 95
81 92 89 86 93 91 94 91 91 93 90 94 94 94 98 96 99 100 100 100 100 99 98 98 97 98 98 99 96 98 96 100 100 100 99 100 100 100 100 100 100 100 99
81 87 90 89 90 93 97 97 91 92 95 94 93 93 95 97 94 97 100 100 100 100 100 100 97 97 97 96 96 96 95 96 100 100 100 100 100 100 100 100 100 100 100
82 84 86 89 91 94 96 98 86 84 94 95 95 95 93 96 92 91 97 95 82 86 92 93 94 95 96 96 95 96 96 96 97 98 100 100 99 97 100 100 100 100 99
90 85 87 90 90 92 99 99 89 80 94 99 100 98 95 96 98 86 86 91 92 91 88 93 97 98 99 100 98 96 96 96 96 96 96 97 97 96 96 98 98 97 98
87 93 84 83 81 84 85 88 95 77 76 92 93 94 91 86 89 91 92 89 90 93 94 98 98 99 100 100 100 100 100 99 96 96 96 96 96 96 96 96 96 97 97
76 79 69 67 77 80 82 91 90 70 64 74 81 82 84 84 86 92 97 97 95 94 97 100 100 100 100 100 100 100 100 99 95 96 96 96 96 96 95 96 96 97 97
70 73 70 74 80 83 83 89 95 88 86 79 69 81 80 82 82 86 91 72 96 99 100 100 100 100 100 100 100 100 98 96 93 94 96 96 96 96 96 96 96 96 96
74 65 64 74 76 81 86 84 87 96 98 93 82 72 69 76 74 74 63 71 90 100 100 100 97 98 99 98 99 98 97 97 98 94 82 86 90 92 95 96 96 96 96
77 68 65 73 68 80 88 97 99 91 94 98 96 88 75 70 74 68 66 69 71 73 86 94 95 91 91 96 97 97 95 92 93 95 95 81 71 64 77 93 95 95 95
75 77 69 72 71 76 82 84 82 85 94 94 100 98 98 93 88 80 69 72 81 75 72 76 72 91 92 90 94 96 96 97 96 97 95 93 76 62 56 58 55 52 58
66 72 76 76 74 71 69 72 69 69 81 79 73 85 94 94 97 98 81 73 82 73 73 76 74 77 87 94 91 81 73 89 93 95 98 95 89 73 64 58 55 52 53
75 77 87 93 91 92 90 79 76 76 68 66 60 81 81 75 72 86 98 91 76 74 80 85 76 69 74 71 64 57 53 86 96 100 98 99 91 85 75 66 64 65 63
87 82 85 89 87 81 84 89 93 88 92 96 81 86 81 70 70 75 72 84 85 80 90 96 91 80 71 73 81 72 56 68 90 98 99 98 96 88 86 79 69 70 73
78 81 84 84 82 82 83 86 93 92 94 100 98 97 97 83 72 75 77 86 81 77 75 79 100 94 81 80 81 81 73 65 91 100 97 97 97 92 83 79 76 68 66
88 89 92 87 84 84 93 94 91 89 94 100 98 100 98 98 99 100 98 90 90 84 78 81 92 98 90 93 91 83 73 73 86 100 100 100 97 97 95 85 77 80 76

GFSGL_925_rhum_117.txt.gz
RH
100 99 100 100 100 99 100 100 100 100 100 100 100 100 100 100 100 100 99 100 100 99 100 100 100 96 91 95 98 93 92 86 86 87 91 88 90 99 93 99 100 95 86
98 99 100 98 100 100 99 100 100 100 100 100 100 100 100 100 100 100 100 99 100 100 98 100 96 84 83 83 97 96 92 90 89 94 98 96 100 100 99 98 100 100 89
95 99 100 98 98 99 98 100 100 100 100 100 100 100 100 100 100 100 100 100 100 100 98 99 77 94 96 96 97 96 99 99 93 87 98 100 100 100 100 100 99 100 99
100 100 100 100 100 100 100 100 100 100 100 100 100 100 100 100 100 100 100 100 100 100 100 99 89 99 96 95 98 100 100 100 100 98 99 99 100 99 100 99 100 100 100
100 100 100 100 100 100 100 100 100 100 100 100 100 100 100 100 100 100 100 100 100 100 96 100 100 100 92 95 98 100 100 100 100 98 97 96 98 98 98 100 100 99 100
100 100 100 100 100 100 100 100 100 100 100 100 100 100 100 100 100 100 100 100 100 100 100 99 100 99 100 99 95 87 81 87 94 93 88 95 93 98 100 99 100 100 99
92 92 86 87 91 94 98 99 100 100 100 100 100 100 100 100 100 100 100 100 100 100 100 99 94 99 98 100 100 100 100 94 84 84 86 85 95 98 99 100 100 98 98
93 97 92 84 82 78 81 91 92 95 100 100 100 100 100 100 100 98 97 98 99 100 100 100 100 97 99 98 100 100 100 100 100 100 97 97 98 100 96 93 96 99 100
96 97 99 88 88 81 81 91 94 95 99 100 100 100 100 100 100 96 96 98 98 98 99 100 100 99 99 97 100 100 98 99 99 99 100 100 100 99 100 100 100 99 100
94 91 93 96 90 89 91 92 91 92 96 100 100 100 98 100 100 99 98 99 98 98 98 98 97 99 98 97 96 95 98 98 96 97 99 100 100 100 100 100 100 100 99
96 88 81 86 92 90 92 92 94 97 96 96 96 99 99 96 96 100 100 100 100 99 98 98 98 97 98 99 100 96 98 97 98 95 97 99 100 100 100 100 100 100 100
85 90 91 83 93 92 84 85 96 97 95 93 94 94 97 99 93 93 98 100 100 100 100 100 100 100 99 99 97 98 97 98 97 95 95 99 100 100 99 100 100 100 100
82 87 90 92 90 97 91 87 97 95 95 94 92 93 95 99 99 95 94 95 87 95 100 100 99 98 100 96 98 96 96 97 97 96 98 98 100 100 100 100 100 100 100
85 86 88 94 94 100 93 84 92 96 94 94 95 96 93 95 98 98 98 96 80 82 85 91 94 91 90 95 97 100 98 98 98 98 97 97 96 96 98 100 100 100 99
86 81 84 84 88 93 95 86 82 82 83 92 98 93 93 93 90 89 91 95 95 94 89 89 95 97 97 98 97 99 99 100 100 99 98 97 96 96 97 97 97 98 99
85 80 86 90 87 90 90 78 84 82 82 79 78 78 81 80 80 85 92 93 94 94 92 99 100 100 100 100 100 100 100 100 100 100 99 98 97 97 97 96 96 96 97
81 85 84 88 89 93 96 97 95 82 80 86 84 78 76 77 78 75 77 84 93 88 98 100 100 100 100 100 100 100 100 100 92 88 97 98 98 96 96 97 96 96 97
68 75 77 84 88 90 90 94 98 100 100 92 82 90 83 80 81 79 75 50 71 84 100 100 100 100 100 100 100 100 100 99 99 98 87 87 93 96 98 97 96 96 96
65 66 67 71 78 78 79 82 79 83 94 100 94 90 86 86 82 76 61 61 82 85 87 93 98 100 98 97 97 96 97 96 97 99 97 84 73 79 95 96 96 96 95
67 66 62 63 65 66 65 67 72 74 80 85 98 100 92 87 94 80 73 66 70 78 73 69 72 78 88 91 85 74 78 92 94 96 97 96 77 67 75 82 79 95 96
65 67 68 69 69 68 68 72 70 68 69 62 71 87 85 76 85 97 86 74 71 78 82 74 68 66 69 66 60 53 52 77 91 96 98 97 95 76 63 57 52 55 77
72 83 89 90 90 90 92 91 93 92 93 88 80 80 74 64 68 90 86 86 78 78 87 88 81 69 72 82 76 66 56 70 88 96 98 99 97 91 72 62 58 57 60
76 78 83 84 82 82 84 89 87 84 84 89 98 96 99 87 80 76 73 90 85 73 78 90 95 87 77 81 88 83 74 78 100 100 100 100 98 95 81 69 70 68 62
75 76 79 80 78 79 83 87 83 86 91 93 98 99 98 99 100 100 95 91 88 85 81 78 92 93 89 88 86 85 77 74 88 100 100 100 99 97 93 86 74 70 75
82 82 83 82 80 85 84 86 86 83 82 93 98 100 97 97 96 97 99 100 99 100 98 89 94 91 91 95 97 86 76 72 74 90 99 98 99 99 92 84 79 71 68
87 85 84 81 80 84 89 89 89 86 83 82 91 100 100 99 100 100 99 98 97 99 99 99 97 100 100 100 100 96 79 73 73 80 85 97 98 97 99 94 80 79 75

GFSGL_925_rhum_123.txt.gz
RH
99 100 100 100 99 100 100 100 100 100 100 100 100 100 100 100 99 100 100 100 100 100 100 100 100 100 100 97 94 94 95 93 92 76 70 71 77 86 99 99 100 100 99
100 100 100 100 100 100 100 100 100 100 100 100 100 100 100 100 100 100 100 100 100 100 100 100 100 100 100 97 94 97 99 98 96 89 81 82 85 95 96 100 100 100 99
100 100 100 100 100 100 99 100 100 100 100 100 100 100 99 100 100 100 100 100 100 100 100 100 100 100 100 99 99 100 97 96 93 93 84 84 94 97 100 100 100 97 99
91 92 97 96 98 98 98 99 100 100 100 100 100 100 100 100 100 100 98 98 97 98 100 100 100 100 100 100 100 100 100 98 95 93 93 96 98 99 100 99 100 100 100
83 84 87 86 89 91 91 92 94 99 100 100 100 100 100 100 100 100 100 98 97 97 96 98 99 100 100 100 100 100 100 100 98 92 92 95 96 97 97 95 96 98 100
81 80 83 83 84 90 90 89 89 91 93 92 95 98 99 98 100 100 100 100 100 100 98 100 97 100 100 100 99 100 100 100 100 98 90 95 91 92 95 94 95 98 98
83 83 85 93 94 96 93 92 96 98 100 100 100 99 97 90 93 100 100 100 100 100 100 100 100 100 100 100 93 98 100 97 100 100 100 97 98 89 89 93 95 91 89
87 88 88 93 96 96 94 96 98 97 100 100 98 100 100 94 87 92 100 100 100 100 100 100 100 100 100 100 100 96 97 100 99 99 100 99 100 99 100 95 94 97 99
90 93 92 94 97 98 98 100 98 96 95 95 99 98 98 97 87 87 94 96 100 100 100 100 100 100 100 100 99 98 98 97 97 97 98 99 100 100 99 100 100 100 100
95 94 92 88 90 91 100 100 97 93 94 90 93 98 98 97 88 87 88 91 96 97 99 100 100 100 100 100 100 98 95 97 98 96 95 95 96 97 97 99 100 100 100
97 97 94 92 87 97 98 99 97 90 91 94 90 93 95 95 90 85 86 91 97 91 96 99 99 97 99 99 100 100 98 97 97 98 98 98 99 94 96 99 100 100 100
94 99 100 93 90 92 97 93 94 90 85 89 86 87 91 92 87 88 85 85 90 95 95 96 96 93 94 98 99 98 100 100 98 97 96 96 96 98 99 98 100 100 100
93 97 94 93 96 89 88 88 82 86 84 79 80 84 85 88 88 86 88 82 81 89 90 90 91 89 91 90 94 98 100 100 99 95 95 96 98 98 97 96 96 100 100
78 81 86 82 81 85 76 76 77 77 78 81 81 84 84 84 85 85 88 85 84 83 83 83 87 86 86 88 90 94 99 100 100 100 100 100 99 97 98 98 97 98 98
78 79 82 81 79 78 91 84 80 83 80 81 85 83 85 86 81 79 81 82 80 81 80 76 80 82 80 80 80 84 94 100 100 100 100 96 97 96 97 99 98 97 96
75 81 85 82 82 78 74 79 94 87 85 82 81 80 85 81 80 78 78 79 78 76 75 84 88 89 86 79 79 78 83 96 100 100 100 100 98 95 94 95 97 97 96
82 85 88 86 84 81 81 78 74 80 92 90 84 79 78 80 82 82 80 79 80 77 80 81 86 85 76 72 72 72 75 85 96 100 100 100 100 98 89 82 91 95 95
68 72 93 90 86 86 86 86 87 86 83 89 93 87 81 81 83 87 84 76 75 78 74 76 77 76 73 72 77 80 83 86 92 100 100 100 100 99 95 84 74 89 90
63 64 64 75 84 87 89 88 89 87 87 87 87 91 94 87 87 89 92 84 78 78 76 76 78 79 80 81 90 90 87 90 95 98 100 100 100 97 94 93 83 77 84
74 66 82 92 94 93 92 88 86 86 85 88 94 100 100 87 86 88 89 94 88 86 87 82 85 89 93 92 91 93 80 83 86 87 94 100 100 97 94 91 87 81 71
96 97 86 91 91 92 91 88 87 88 88 87 94 100 100 100 100 100 100 100 100 100 100 99 94 95 97 98 98 100 94 89 90 93 92 96 100 94 94 91 90 84 77
94 90 90 89 88 91 84 86 90 89 89 91 94 97 100 100 100 100 100 100 100 100 100 100 100 100 100 100 100 100 100 98 94 98 96 94 94 94 95 90 87 88 84
81 88 88 91 90 85 92 89 93 93 93 97 98 98 100 100 100 100 100 100 100 100 100 100 100 100 100 100 100 100 100 100 100 100 100 98 89 94 96 94 91 86 86
74 94 90 95 94 94 97 98 96 85 86 98 100 100 100 100 100 100 100 100 100 100 100 100 100 100 100 100 100 100 100 100 100 100 81 100 94 92 98 97 93 94 87
73 74 74 81 84 88 97 96 90 91 95 100 100 100 100 100 100 100 100 100 77 83 77 82 95 81 76 81 100 100 100 100 100 100 84 100 100 98 100 100 100 96 92
72 70 73 83 88 95 91 92 81 68 72 94 100 100 100 100 100 100 98 97 82 84 80 81 80 66 64 89 96 84 100 100 100 100 96 100 100 98 100 100 100 99 93

GFSGL_925_rhum_129.txt.gz
RH
83 85 85 85 84 86 88 91 93 94 94 94 95 93 92 94 96 96 94 96 96 98 97 98 100 99 100 99 98 100 100 100 96 85 76 64 65 62 57 64 64 68 66
82 82 82 81 80 81 85 89 92 97 96 94 94 90 90 91 94 95 95 97 98 98 98 98 99 100 100 100 100 100 100 100 100 96 92 81 75 71 65 66 70 74 72
71 70 69 69 66 66 68 72 74 74 75 79 79 76 78 87 92 90 89 91 93 97 99 98 100 100 100 100 100 100 100 100 100 99 97 94 93 87 79 78 80 79 76
68 68 68 64 63 66 67 67 69 67 66 66 67 67 65 76 94 96 86 86 87 90 94 93 97 100 100 100 100 100 100 100 100 98 94 96 96 90 91 92 86 78 79
68 70 67 62 65 68 70 69 70 70 68 68 67 66 62 67 89 95 84 81 83 84 86 88 90 99 100 100 100 100 100 100 99 98 96 96 96 97 98 99 99 96 94
59 60 64 66 66 71 71 72 70 70 72 72 71 70 69 64 90 93 83 83 86 82 80 85 81 93 98 96 94 100 99 100 99 98 98 97 99 100 100 100 99 96 95
55 60 67 75 77 79 76 78 79 79 79 83 82 77 76 76 85 96 85 84 82 85 85 87 81 87 93 95 91 95 99 100 99 100 98 99 99 100 100 100 100 100 97
60 66 69 74 77 78 83 88 90 90 89 88 86 86 81 84 83 91 84 85 89 88 91 87 90 91 89 91 88 92 97 99 99 97 99 98 99 99 100 100 99 100 97
68 78 80 84 88 86 89 90 91 88 89 90 89 87 87 88 83 84 89 79 83 85 87 88 86 89 86 87 92 93 92 96 97 100 100 98 98 99 98 99 97 94 91
73 69 72 84 89 90 90 89 92 91 89 86 88 88 88 89 84 83 87 87 80 76 79 85 84 82 82 83 92 94 94 96 92 91 94 94 98 99 100 100 99 95 94
77 78 80 75 87 87 88 90 90 87 86 84 84 86 85 88 85 81 82 87 90 79 79 85 86 82 82 81 84 86 88 91 89 88 87 88 93 96 98 100 95 99 97
79 86 88 81 75 82 86 87 86 82 77 76 75 75 80 82 82 81 80 84 87 84 85 86 85 79 80 80 82 81 85 87 88 85 85 87 91 94 96 95 97 94 98
84 87 83 82 78 69 72 70 68 72 70 68 67 70 72 77 81 82 83 82 84 88 85 81 80 78 78 80 77 79 83 84 86 86 86 87 89 90 88 87 90 91 97
57 58 56 58 59 56 55 60 64 67 65 68 70 70 73 74 79 81 82 81 82 80 82 80 80 75 72 73 75 77 80 81 81 83 83 82 82 84 82 83 84 86 87
46 47 49 51 53 66 71 75 70 79 77 71 77 85 76 78 80 79 76 75 74 74 74 73 76 75 71 71 71 70 73 76 78 77 79 79 80 81 79 77 80 80 82
42 44 47 46 44 42 50 73 65 74 78 78 79 78 85 78 78 75 74 72 67 65 65 69 73 72 66 63 67 68 70 72 74 75 77 79 81 80 80 75 76 77 78
43 47 54 49 49 52 54 55 67 90 86 85 82 82 78 77 76 75 75 72 65 60 59 62 67 67 60 56 62 66 70 74 72 74 77 80 81 80 78 73 74 76 74
79 68 66 69 72 74 75 74 73 70 70 92 94 78 78 80 77 76 74 69 64 61 59 58 62 62 61 60 66 72 77 79 79 77 78 79 83 80 79 73 72 76 75
82 82 81 82 81 78 74 70 67 66 65 66 68 70 72 76 77 77 78 76 69 64 62 61 62 66 70 70 82 85 83 83 82 82 82 80 82 82 81 74 76 75 72
84 86 75 72 70 67 65 61 60 61 61 61 66 77 71 70 69 70 72 79 74 70 73 70 70 76 80 79 81 87 84 84 84 82 82 84 84 82 80 76 80 76 72
73 74 72 66 64 64 63 60 58 60 60 58 63 93 67 77 68 68 69 80 79 78 80 80 80 83 82 83 83 89 90 87 91 88 90 87 85 84 83 77 79 75 73
67 65 63 63 60 66 55 56 64 64 62 64 66 72 76 78 74 73 76 89 91 87 87 88 92 89 88 94 95 93 94 92 94 94 94 94 89 84 83 80 80 77 79
64 62 58 60 62 70 70 64 72 73 71 74 74 74 76 83 86 84 90 97 96 99 100 100 100 99 100 100 100 99 96 97 100 100 100 97 93 90 87 82 80 80 81
71 73 62 73 71 69 77 80 78 74 77 80 84 84 86 88 91 94 97 100 100 100 100 100 100 100 100 100 100 100 100 100 100 100 100 99 96 93 91 83 82 81 83
79 79 79 78 78 80 81 77 80 83 84 86 87 89 88 91 91 97 100 100 100 100 100 100 100 100 100 100 100 100 100 100 100 100 100 100 97 99 90 90 83 87 82
82 78 81 80 82 81 81 81 83 85 87 90 92 94 96 95 96 100 100 100 100 100 100 100 100 100 100 100 100 100 100 100 100 100 100 100 98 92 95 83 82 93 85

GFSGL_925_rhum_132.txt.gz
RH
83 84 82 82 80 83 87 89 92 92 90 88 86 86 91 92 97 97 95 95 98 98 97 97 98 98 99 98 99 100 100 100 97 95 94 91 89 94 96 87 84 72 70
80 76 74 72 70 70 73 75 74 74 75 74 74 74 82 84 90 100 92 93 96 98 100 97 99 99 100 100 100 100 100 99 100 96 95 94 97 96 95 87 98 88 82
68 67 65 63 63 65 67 69 68 68 68 70 69 68 73 84 90 95 86 87 88 91 94 97 98 100 100 99 100 100 100 100 100 100 97 96 95 90 84 86 82 83 84
69 69 67 65 66 69 69 69 70 68 68 69 70 69 67 81 90 92 83 82 79 81 86 87 93 99 100 100 98 99 100 98 98 96 95 95 96 97 98 99 92 83 81
70 68 64 64 68 71 72 72 72 74 74 74 72 73 71 82 97 96 80 77 78 80 82 80 81 91 97 98 100 100 100 98 97 94 91 91 94 97 98 100 99 99 88
59 64 68 69 72 74 74 77 78 79 82 83 85 80 85 80 96 100 85 85 87 91 90 93 83 90 92 89 93 100 99 100 98 97 93 94 95 98 99 100 99 97 95
59 64 73 77 81 83 84 86 87 87 86 85 84 91 88 85 90 98 92 88 92 98 89 94 92 91 88 93 94 95 99 100 99 100 98 98 98 100 100 98 98 98 97
64 68 72 76 80 85 87 91 88 84 83 86 84 81 92 85 84 94 98 86 92 92 96 84 92 89 83 88 95 94 94 100 96 95 96 98 98 98 100 100 96 94 87
73 79 83 90 90 87 87 86 85 86 90 86 88 95 87 87 83 85 85 96 86 90 88 88 83 84 81 84 92 95 92 97 93 95 92 93 97 100 100 100 96 92 87
74 82 87 86 83 88 88 83 85 81 83 90 88 84 93 85 82 82 82 96 92 90 90 91 84 80 80 81 89 94 92 96 94 88 88 88 88 93 97 97 100 97 95
75 74 79 87 90 87 80 84 81 84 82 85 94 88 79 86 84 81 81 82 96 93 90 90 83 77 78 78 83 82 84 91 91 91 89 92 91 93 97 93 90 98 98
83 87 82 77 81 84 87 84 80 81 76 77 83 88 88 80 84 84 82 82 83 96 93 83 80 77 76 77 78 80 81 88 90 89 88 91 91 93 94 87 84 84 84
84 85 84 75 71 72 71 71 76 73 78 78 79 86 88 80 85 85 83 82 83 93 83 77 77 75 75 77 75 79 82 83 87 90 88 90 91 88 87 86 83 83 81
75 72 68 63 61 60 67 70 76 77 75 90 88 84 87 85 83 81 79 74 71 76 78 77 77 72 72 72 75 79 80 81 81 89 87 86 85 87 87 84 81 84 80
53 53 58 62 64 70 78 75 62 69 73 77 93 91 83 84 79 75 78 74 68 67 72 75 78 76 72 75 77 78 84 84 81 84 84 85 85 85 87 81 78 83 82
47 48 47 47 66 63 61 74 82 79 83 82 79 76 82 78 77 75 79 75 67 67 70 77 80 78 74 75 79 82 82 85 85 82 85 84 84 85 89 79 77 82 81
46 48 48 48 48 51 62 86 90 90 90 87 85 80 78 78 76 74 76 72 70 68 70 74 79 80 78 77 82 86 86 86 88 84 87 89 86 87 89 78 77 83 80
51 54 63 70 75 77 78 77 74 87 96 95 80 79 76 82 78 75 76 77 76 73 71 72 76 80 81 84 87 91 94 91 92 91 88 91 90 90 91 81 79 84 80
78 82 85 88 83 79 76 73 69 68 69 74 87 55 67 86 77 78 84 78 81 80 79 78 80 91 92 93 92 96 95 94 91 94 92 94 94 94 92 87 82 82 76
84 82 81 77 75 69 67 63 65 64 64 72 89 68 69 82 73 75 84 79 86 85 89 88 89 96 97 94 95 96 97 99 98 100 99 98 100 96 94 92 86 84 78
80 72 72 68 68 67 66 61 62 66 63 70 80 67 75 83 76 77 85 90 94 93 96 95 92 98 100 91 100 95 100 100 100 100 100 100 100 100 96 95 89 83 82
71 68 68 67 66 62 56 65 69 67 68 70 72 75 77 84 84 84 93 92 96 96 98 99 93 98 100 98 100 100 100 100 100 100 100 100 100 100 99 99 89 86 83
65 61 58 61 68 65 65 72 80 76 76 80 81 86 85 90 95 92 98 96 99 100 99 100 98 100 100 100 97 100 100 100 100 100 100 100 100 100 100 100 91 90 84
73 68 64 76 66 74 83 85 76 70 80 86 89 90 91 93 97 96 100 98 100 99 100 100 100 100 100 98 100 100 100 99 100 100 100 100 100 100 100 98 94 83 86
80 69 73 73 76 82 73 78 83 85 87 90 92 94 94 95 97 97 100 100 97 88 100 100 100 100 100 97 100 100 91 92 96 99 100 100 100 100 100 100 86 94 94
86 82 86 85 87 87 86 84 87 88 89 92 94 96 97 99 100 96 100 100 79 90 100 100 100 100 100 100 100 97 96 87 91 92 100 100 100 100 100 94 94 97 94

GFSGL_925_rhum_135.txt.gz
RH
83 80 77 77 76 78 80 76 78 74 75 76 70 73 85 93 97 99 98 97 98 100 96 98 100 100 100 98 97 99 100 100 97 96 95 94 94 98 83 84 85 87 88
77 73 72 66 68 69 72 68 68 70 74 70 72 61 82 89 91 99 95 90 91 98 98 92 100 100 100 100 100 99 100 99 100 96 93 94 95 93 97 88 82 83 75
72 65 64 65 68 69 71 70 69 69 75 71 70 73 77 90 90 95 79 84 81 90 93 90 98 100 100 100 100 100 99 99 99 98 92 93 93 95 97 96 90 73 68
69 67 66 70 72 72 73 73 73 76 82 80 65 74 84 93 93 93 86 88 59 88 94 90 95 97 100 99 100 100 99 97 94 92 90 90 92 94 96 98 96 90 77
69 65 68 71 73 74 75 77 76 77 87 88 67 80 86 99 100 92 91 92 73 76 88 91 92 90 94 98 99 97 100 98 95 88 89 88 91 94 97 98 96 96 82
66 70 72 74 76 80 81 82 81 74 82 91 79 90 87 97 100 94 91 96 91 86 90 94 87 91 80 98 98 100 100 100 98 96 91 92 93 97 98 98 96 94 92
69 75 77 78 81 86 80 76 80 79 71 73 79 87 89 89 100 100 99 90 94 95 92 86 88 91 86 79 92 93 97 99 100 99 97 98 96 100 100 97 97 98 93
72 77 81 87 84 88 92 90 81 78 85 90 74 84 87 84 94 89 93 88 80 80 90 85 80 84 85 89 94 82 88 96 93 95 95 96 96 97 100 99 99 95 84
76 80 85 84 82 82 84 86 95 89 83 93 85 76 85 85 83 92 86 89 78 81 84 89 79 81 81 86 90 92 90 88 87 96 96 96 98 100 98 99 97 91 86
79 85 85 82 80 79 81 82 81 98 90 78 81 84 84 84 82 83 82 89 93 88 78 81 81 78 79 84 87 89 95 92 94 85 78 68 75 82 98 94 100 96 94
82 87 80 78 78 82 79 84 85 93 98 91 79 70 82 86 82 82 85 89 93 84 79 79 78 77 78 81 83 81 84 90 93 90 91 90 83 86 93 90 82 97 100
78 80 84 90 85 80 83 90 81 81 94 94 84 71 74 81 83 82 81 85 92 85 79 78 78 75 77 78 82 82 78 81 96 89 92 92 92 94 91 88 78 85 80
80 80 80 80 81 83 84 77 81 86 79 89 88 75 79 77 80 77 78 76 80 83 76 77 77 78 77 78 82 85 82 82 94 92 94 95 90 90 94 84 83 88 82
82 77 72 75 71 66 70 72 73 81 94 81 83 76 79 77 74 82 79 67 72 74 77 73 73 76 77 82 80 88 90 90 88 92 93 89 86 94 98 84 88 90 88
78 80 74 70 71 60 37 40 51 62 76 92 86 78 79 78 76 79 84 72 73 75 73 74 78 79 88 87 93 92 95 98 98 94 96 97 92 96 98 85 85 90 88
60 58 59 52 70 63 79 86 86 86 87 84 81 73 80 78 76 78 83 78 76 76 70 80 83 86 93 94 98 99 100 99 100 97 97 100 98 99 100 91 85 89 87
53 57 70 63 48 66 80 85 91 92 91 90 81 78 80 77 78 80 84 86 80 72 81 87 95 94 98 97 99 100 100 100 100 100 100 100 100 100 99 95 90 88 86
49 49 50 62 73 78 85 86 82 88 92 93 84 80 88 90 83 85 87 70 78 80 87 94 100 100 100 100 98 93 98 100 100 100 100 100 100 100 100 97 95 92 87
54 63 67 72 74 71 74 76 77 90 96 86 65 58 82 87 90 93 72 76 90 97 98 93 100 100 98 85 86 87 100 100 100 97 95 100 100 100 100 100 98 92 87
70 75 79 78 75 76 71 68 66 71 94 84 63 60 78 75 77 85 82 80 88 96 94 87 98 100 95 84 84 93 100 100 96 93 100 100 100 100 100 100 100 94 90
76 76 69 77 72 67 65 66 66 66 80 72 67 72 85 80 85 89 87 85 89 93 100 94 95 100 98 87 85 99 100 97 87 93 100 100 99 100 100 100 100 97 91
76 74 71 69 67 64 62 64 65 65 73 77 76 82 84 84 84 90 92 91 91 89 97 99 99 100 100 92 95 100 100 97 91 100 100 98 94 97 100 100 100 97 81
68 72 68 68 63 59 70 74 73 75 77 79 87 85 83 90 89 90 95 94 90 83 94 97 100 100 99 93 100 100 100 98 97 99 100 100 99 100 100 100 100 89 96
66 61 62 61 64 70 70 74 76 77 88 90 91 91 85 96 97 96 97 96 89 70 88 100 100 100 98 94 100 100 100 91 88 97 100 100 100 100 99 100 100 96 100
63 66 70 67 78 83 84 83 82 83 86 91 92 96 94 98 97 94 93 95 89 65 87 92 92 100 98 98 100 100 87 78 80 96 97 99 100 98 98 100 100 99 99
73 65 70 68 78 74 80 82 85 85 94 92 93 94 93 97 97 93 89 94 78 61 72 79 89 99 96 100 97 92 78 70 83 92 98 100 100 100 100 100 94 97 100

GFSGL_925_rhum_138.txt.gz
RH
81 78 77 78 76 75 76 80 79 72 72 67 56 88 90 93 94 91 96 92 96 96 94 96 97 97 99 98 97 99 100 100 96 94 93 90 91 91 87 84 82 83 74
76 77 76 74 74 72 70 70 76 73 69 70 56 88 91 89 85 91 82 89 92 97 88 98 99 99 96 98 98 99 100 98 100 94 87 91 91 92 95 93 88 85 85
79 65 67 70 71 72 71 70 77 77 71 54 58 88 93 96 90 92 52 87 90 88 94 97 96 98 98 97 97 99 98 95 93 92 90 90 90 92 94 94 91 89 96
66 67 71 73 74 74 73 74 79 83 69 50 80 94 98 93 94 92 57 67 86 97 99 95 92 92 96 96 96 99 99 97 90 86 87 87 91 92 94 97 93 92 100
68 71 75 75 75 75 75 74 82 87 66 63 85 94 99 92 95 91 73 72 83 87 92 87 90 88 95 95 98 96 98 97 92 88 87 85 91 92 98 97 96 96 91
68 73 75 76 78 80 78 70 77 84 66 72 88 92 99 98 94 98 96 92 95 92 88 90 87 85 90 98 100 100 98 95 97 95 90 87 93 96 99 95 97 94 89
70 75 76 78 83 79 74 69 63 63 67 78 87 94 96 97 99 97 82 83 90 88 84 88 88 89 83 86 92 94 99 97 97 100 97 98 96 100 100 93 95 93 94
76 79 77 81 84 78 76 77 81 72 67 82 85 87 91 96 100 91 77 78 83 90 84 82 86 91 86 87 87 80 81 95 97 97 99 96 94 95 100 98 96 90 74
82 86 83 80 91 92 87 85 89 81 74 76 84 85 85 87 92 94 74 73 81 80 83 80 83 87 84 85 83 88 81 73 76 95 98 99 100 98 98 99 98 88 86
81 84 84 76 83 86 98 97 85 78 79 77 76 84 84 84 85 91 79 78 77 79 79 78 80 82 82 86 85 93 97 88 76 56 58 62 71 79 95 85 100 97 95
76 80 76 75 78 80 87 100 95 82 70 64 81 83 82 82 83 86 90 81 81 78 79 79 79 82 83 85 88 86 91 80 75 76 77 80 85 91 92 75 88 95 100
70 74 78 81 82 85 88 98 98 94 76 67 73 79 83 85 83 80 83 86 78 79 80 82 81 84 87 85 89 91 90 76 80 82 83 87 94 94 94 78 82 80 80
79 83 84 82 87 97 91 97 98 91 82 72 77 76 76 82 73 73 82 86 79 83 86 88 91 87 86 82 92 95 89 89 96 98 100 97 86 88 98 84 74 81 74
81 86 89 94 97 86 86 90 84 85 88 75 77 78 77 77 87 75 73 77 76 65 65 66 73 65 71 76 83 81 89 94 95 88 95 93 83 94 100 97 93 91 87
85 90 91 76 72 76 75 75 82 82 66 68 74 80 80 78 88 93 84 81 70 68 61 63 76 78 69 76 77 95 92 100 100 98 92 100 99 100 100 100 98 94 93
85 86 85 68 43 53 63 82 80 78 92 87 73 80 81 79 84 88 85 84 90 72 70 83 91 94 92 96 97 97 100 100 99 100 90 100 100 100 100 100 99 97 93
80 80 81 74 65 75 88 95 97 90 88 83 81 83 79 84 85 88 92 90 93 66 82 94 99 97 98 94 95 100 100 100 70 78 78 86 89 100 100 100 100 96 92
69 71 64 68 60 74 80 85 86 90 96 89 87 90 90 96 89 92 96 61 74 87 90 99 100 96 94 90 86 96 96 74 63 68 74 81 89 100 100 100 100 100 95
58 64 65 58 55 69 78 81 86 91 95 81 61 87 96 98 98 100 68 66 79 88 86 100 99 90 78 73 84 86 97 82 68 69 79 90 93 100 100 100 100 100 95
54 57 63 70 76 82 85 88 94 97 91 81 61 80 83 80 75 76 76 74 76 85 85 89 98 91 81 70 82 86 94 85 73 78 83 88 91 95 100 100 100 100 94
60 68 70 73 75 77 72 71 82 96 93 68 67 81 78 74 83 84 82 83 82 85 88 84 91 86 86 79 84 87 93 90 75 79 87 92 93 94 97 99 100 100 97
70 75 75 76 70 69 68 67 70 80 74 69 77 86 82 78 84 86 86 86 86 79 82 84 89 93 93 89 90 90 97 93 76 84 91 92 95 96 99 99 98 100 100
72 74 77 74 68 65 65 66 66 68 72 74 79 84 85 82 84 84 86 90 86 70 74 86 90 95 92 91 92 95 97 94 86 91 99 96 98 100 100 100 100 100 100
78 76 70 67 65 66 67 70 70 73 76 81 87 88 84 86 89 90 91 91 89 69 69 83 87 93 92 94 94 95 96 90 85 93 100 100 100 100 100 100 100 100 100
71 70 68 67 64 65 69 75 78 81 86 88 91 90 90 93 95 95 93 90 86 63 65 74 81 89 89 88 88 90 86 82 84 96 99 100 100 100 100 100 100 100 96
66 63 61 60 66 75 79 78 71 77 86 91 92 94 92 94 96 95 94 89 85 62 60 70 77 83 81 81 86 85 73 74 90 94 100 100 100 97 100 100 100 100 100

GFSGL_925_rhum_141.txt.gz
RH
80 80 79 76 78 78 82 78 73 70 66 55 86 88 88 85 82 80 88 91 90 78 93 94 96 96 96 98 97 98 98 98 96 91 92 87 87 89 88 90 88 84 93
79 79 81 78 76 71 74 75 72 69 61 53 87 89 89 89 76 54 84 87 77 82 93 90 92 98 96 96 97 97 98 97 98 94 90 89 90 91 93 91 90 94 92
81 78 78 75 73 73 75 76 74 66 47 61 89 95 97 94 75 45 76 77 80 92 97 91 96 96 97 98 97 98 93 93 94 89 88 88 91 92 92 89 87 94 96
75 70 72 74 74 74 78 78 76 65 50 82 94 100 95 90 74 54 66 76 86 92 93 92 93 95 96 98 96 99 92 90 94 88 88 87 89 91 91 93 90 86 99
70 72 76 77 76 76 77 81 81 60 63 90 96 98 95 95 94 69 82 84 86 89 90 86 89 92 94 98 97 100 93 93 95 89 86 85 92 94 96 95 92 89 100
72 77 78 78 78 76 73 79 80 62 69 85 97 100 93 100 97 96 75 80 92 95 92 89 81 90 89 96 100 100 92 96 95 94 91 91 94 100 100 98 99 92 85
75 79 79 80 81 76 66 66 66 70 74 81 92 91 90 96 92 95 83 80 80 86 89 94 84 84 87 86 90 98 100 95 98 99 97 98 98 100 100 99 100 93 95
79 79 82 83 80 73 63 58 69 76 80 85 86 92 93 93 91 95 83 88 87 86 86 89 91 86 87 87 83 76 76 100 98 98 99 98 99 98 88 98 100 82 79
86 82 84 79 76 77 77 70 67 75 83 86 88 88 89 93 93 92 78 78 76 85 91 93 85 88 87 89 64 67 59 60 77 100 100 99 100 97 95 86 99 92 88
86 80 78 77 77 78 84 79 71 63 80 82 86 90 92 93 90 89 74 79 79 79 79 85 87 87 86 92 87 80 79 80 63 51 55 62 64 77 88 82 98 100 98
80 79 80 84 89 88 90 83 74 68 68 75 82 85 90 95 94 88 84 78 80 81 84 88 88 88 88 92 96 95 94 60 58 58 61 60 70 81 83 74 73 92 88
80 82 77 83 94 100 95 90 76 64 60 80 82 83 86 87 88 88 89 88 84 91 86 88 92 94 97 93 97 97 89 42 45 64 79 86 87 91 99 92 84 74 76
79 76 79 85 88 98 99 97 88 70 63 75 79 82 80 78 76 93 93 85 72 86 94 92 95 80 69 73 98 96 46 49 51 60 78 81 72 79 88 98 83 82 74
82 89 95 91 96 99 99 98 91 76 68 75 76 77 86 90 74 75 84 71 64 61 61 57 48 48 48 53 48 48 43 50 61 63 68 63 57 58 66 88 99 91 80
92 100 98 98 97 100 99 96 88 81 63 71 78 76 83 97 89 86 81 71 66 63 55 47 37 38 42 52 58 58 50 45 53 56 54 60 65 76 84 95 100 100 96
94 97 96 95 90 90 94 97 91 74 73 74 80 79 81 94 95 88 90 94 100 64 52 60 63 58 62 72 74 69 56 52 59 65 70 79 83 94 98 98 100 100 100
91 90 82 78 81 81 82 93 97 90 86 85 84 82 84 88 91 93 91 96 100 55 62 72 66 61 62 71 85 87 80 67 63 67 74 78 79 80 88 98 100 100 100
88 89 75 58 63 78 90 94 93 94 88 89 98 96 98 90 91 93 99 75 68 67 73 77 72 62 70 74 85 94 73 57 59 66 71 78 83 87 89 99 100 100 100
83 85 79 63 55 64 77 83 84 88 84 80 78 91 98 98 99 100 67 57 59 69 79 80 73 69 64 72 78 78 69 56 58 61 73 81 85 91 91 94 99 95 100
79 74 70 72 66 74 80 85 91 92 94 73 77 96 98 88 77 69 66 65 64 62 65 75 78 77 68 64 69 70 65 60 57 64 72 79 89 95 96 97 99 100 100
70 70 63 62 62 75 83 88 92 95 92 77 69 87 94 81 75 74 71 72 66 68 72 71 80 76 68 64 67 74 75 74 64 66 76 80 87 95 95 95 97 96 100
66 71 75 73 76 83 87 90 91 95 94 81 76 82 81 79 77 78 78 76 77 74 74 75 77 75 70 68 70 76 79 76 68 65 75 82 90 96 97 95 95 96 100
65 72 78 79 78 80 77 77 81 87 91 74 74 79 84 82 80 80 79 84 86 76 66 73 73 74 73 70 72 80 84 81 74 74 82 86 93 98 99 99 100 100 100
72 77 79 76 74 73 71 70 72 75 75 71 76 78 82 83 82 84 88 90 90 78 58 63 67 66 73 72 74 80 83 78 74 76 91 93 96 99 99 99 100 100 100
70 71 74 75 71 68 67 67 67 69 72 73 79 84 87 88 89 91 92 93 90 78 56 57 62 65 74 73 76 80 81 73 72 91 96 96 100 100 100 100 100 100 100
77 77 73 69 67 67 68 70 74 76 78 81 85 89 88 88 90 92 94 94 89 76 56 54 61 68 73 76 77 80 73 71 79 94 99 99 100 95 91 99 100 100 100

GFSGL_925_rhum_147.txt.gz
RH
89 89 93 89 91 86 82 78 70 66 79 91 96 87 76 77 80 78 77 78 78 74 82 88 93 98 98 99 100 100 98 98 87 93 100 100 91 94 87 97 100 85 90
91 93 87 84 86 81 79 73 64 63 70 95 97 86 74 69 72 72 71 75 73 68 76 75 79 79 86 86 91 97 95 96 95 88 93 92 91 78 86 98 98 76 66
92 89 86 82 84 79 76 69 68 76 88 94 93 85 77 68 64 67 71 75 77 72 75 76 77 77 77 76 77 78 78 80 83 79 78 83 75 68 67 80 99 93 46
89 87 83 85 85 81 78 74 72 79 87 89 88 87 80 71 66 65 67 73 76 74 72 77 76 78 79 76 76 78 72 71 69 68 63 62 61 58 59 60 66 97 70
91 90 88 89 90 84 81 78 75 81 89 85 86 86 83 77 70 71 69 72 73 69 65 66 78 86 91 90 79 82 79 70 66 61 60 60 67 64 64 57 64 74 93
94 93 91 92 92 90 85 81 78 88 92 86 89 81 76 80 95 75 76 71 73 68 60 61 67 71 74 95 97 93 89 83 82 70 68 68 70 72 69 58 65 59 46
94 93 93 93 94 96 89 79 78 90 94 94 88 82 79 84 95 96 92 83 82 84 84 72 68 68 61 59 84 96 95 94 90 82 83 90 87 87 78 60 60 68 63
96 97 97 94 97 96 92 78 82 97 98 100 99 90 84 87 96 92 96 96 94 93 91 91 89 86 79 58 61 78 94 100 97 91 95 100 98 95 78 61 52 67 81
99 98 97 95 92 91 71 62 72 84 90 89 100 97 94 93 96 83 97 100 100 100 100 95 92 93 89 64 60 75 72 75 81 94 100 100 100 100 95 67 60 49 66
99 99 96 86 74 63 56 70 83 77 86 98 91 87 94 93 92 81 89 92 97 96 97 90 88 93 94 67 52 73 70 64 44 35 35 36 46 82 93 97 91 68 70
97 98 99 91 68 54 65 69 76 81 86 95 90 90 88 94 91 93 67 94 92 89 92 93 90 92 95 96 89 53 46 35 32 57 74 73 62 75 97 100 100 92 79
97 98 97 87 78 85 64 79 82 84 91 100 100 100 96 100 92 94 91 72 70 92 96 99 96 93 96 95 75 35 23 31 66 86 85 90 94 98 99 97 69 94 94
97 99 97 89 88 88 86 83 94 99 93 96 92 95 100 100 98 95 95 100 68 97 99 99 100 98 69 92 36 23 28 60 86 82 85 93 100 100 100 95 94 93 94
99 95 90 90 94 87 85 83 81 81 83 83 88 89 97 100 100 100 100 100 74 78 74 40 36 28 25 28 49 45 48 63 90 92 94 97 96 92 89 91 85 84 77
98 93 89 94 89 87 83 80 78 81 72 76 85 85 91 99 99 88 75 72 56 43 36 50 69 84 85 87 82 73 90 92 90 93 90 88 86 82 82 84 81 76 73
95 93 94 94 91 91 92 92 87 66 59 66 69 82 84 84 98 98 96 84 56 48 62 79 83 86 82 80 79 80 85 84 88 86 88 85 84 82 81 80 79 76 74
90 88 93 92 92 93 94 92 96 95 88 88 91 93 86 95 98 96 94 99 95 53 73 76 80 85 82 75 70 68 72 82 90 91 91 93 94 86 79 76 76 73 72
97 95 94 95 97 100 99 97 94 91 87 87 88 92 96 99 95 96 99 99 91 62 71 73 78 81 70 69 68 68 74 82 84 86 92 97 97 88 83 78 75 82 77
98 99 97 99 100 100 100 100 95 91 89 98 99 97 92 95 98 97 100 91 82 78 75 71 76 74 76 77 83 72 58 71 60 93 95 95 100 96 89 87 85 89 80
98 96 99 100 100 100 100 99 96 89 89 96 91 94 97 98 99 81 71 62 85 79 81 76 75 76 83 83 78 74 97 95 90 86 96 100 100 100 96 95 92 85 76
97 98 98 100 100 100 98 90 89 89 90 92 95 100 95 94 94 84 75 59 79 82 90 84 87 74 62 78 92 89 74 87 73 89 96 99 100 100 100 99 95 89 83
96 99 99 98 94 92 85 89 92 91 90 86 95 91 94 94 90 85 76 65 58 68 68 74 86 91 89 88 84 76 82 86 96 99 98 89 100 100 100 100 98 95 89
100 99 99 92 86 90 94 93 96 97 95 93 92 95 99 100 96 83 77 68 62 57 52 62 79 64 64 59 62 74 88 99 87 72 72 98 100 100 100 100 98 95 93
96 98 98 96 99 94 95 100 100 100 100 100 100 96 95 92 84 78 76 73 69 66 59 50 54 62 68 65 65 66 69 67 69 76 66 78 100 100 100 100 97 98 100
96 97 99 98 99 99 100 100 100 100 100 97 100 100 90 78 76 78 79 76 76 75 68 58 55 58 61 62 66 67 68 67 66 64 68 85 100 100 100 100 100 100 100
96 95 98 95 96 94 98 99 99 97 95 94 93 90 78 76 77 80 81 81 81 81 78 66 59 55 56 62 67 67 67 66 66 65 71 90 100 100 100 100 100 100 100

GFSGL_925_rhum_150.txt.gz
RH
72 72 73 75 78 76 72 69 68 70 72 73 72 66 64 63 61 58 58 57 57 58 62 64 68 73 73 74 83 87 87 92 84 76 79 70 76 78 93 98 98 68 90
72 74 76 79 78 75 74 72 71 67 71 74 67 61 57 57 56 55 52 54 50 54 56 56 60 56 61 58 56 68 65 66 70 65 55 61 62 58 88 99 98 67 71
74 81 81 83 78 78 74 70 65 66 71 72 66 61 56 53 53 54 55 56 54 55 57 58 61 59 57 54 52 51 48 48 52 51 44 47 48 53 54 80 99 73 45
79 85 87 83 78 73 70 67 64 64 65 66 65 63 60 54 52 50 52 54 52 56 60 62 64 65 62 56 52 53 47 44 45 39 37 40 43 46 50 50 70 91 42
85 82 84 83 77 74 71 64 65 64 63 68 68 68 62 56 51 50 52 52 49 49 52 55 69 84 91 88 63 62 52 45 44 39 38 39 46 48 46 45 53 82 57
86 85 89 89 82 76 70 67 66 66 66 67 64 61 60 62 63 58 49 48 47 42 42 46 51 53 84 93 92 92 86 68 55 54 53 56 57 59 52 43 48 34 30
93 94 91 88 81 77 73 66 65 67 67 68 64 61 67 77 91 78 62 60 62 65 63 49 44 49 44 44 71 78 88 88 84 65 68 82 80 75 58 46 40 49 51
100 98 98 93 95 96 97 89 80 81 86 93 85 72 73 85 96 89 80 80 80 83 81 82 80 74 67 42 49 71 91 95 92 83 88 93 93 86 65 49 40 54 66
99 99 98 98 98 98 95 96 94 96 98 96 93 86 89 93 97 91 81 84 94 89 88 90 86 85 53 76 69 74 83 92 98 96 98 99 99 97 94 66 58 49 65
99 99 98 97 97 99 97 95 97 96 96 92 95 94 92 94 96 94 90 80 85 84 85 90 91 93 90 65 85 77 78 86 93 92 93 95 97 98 98 97 84 68 70
98 98 97 97 96 97 96 97 95 93 93 92 93 94 92 92 93 93 95 88 81 76 80 84 90 93 94 93 90 81 73 93 92 88 87 88 92 93 95 96 97 90 81
98 98 97 97 98 94 95 94 93 92 90 88 89 91 93 93 93 96 97 96 88 82 85 88 93 95 95 93 91 60 83 92 87 84 83 87 89 92 95 95 98 99 98
98 98 96 97 92 84 86 91 88 87 81 82 81 87 92 90 91 94 96 81 92 90 93 99 100 93 95 79 43 86 95 88 85 82 85 90 94 94 92 88 86 90 89
98 98 99 97 83 72 76 77 76 77 75 73 72 75 84 90 90 92 96 95 94 96 96 88 56 29 32 59 91 94 94 93 89 87 87 89 86 83 81 81 77 75 71
98 98 98 91 72 66 66 64 67 72 67 68 70 72 78 86 91 95 95 93 92 89 87 87 86 85 85 85 87 90 89 87 84 85 82 79 78 76 74 76 74 70 68
97 97 96 89 71 63 67 72 79 78 71 74 78 78 85 92 94 100 99 92 52 31 80 80 81 81 76 73 74 75 77 77 77 76 77 75 75 73 72 72 72 70 68
96 96 94 84 67 62 67 71 82 86 87 87 94 95 96 98 96 98 100 97 76 46 73 71 77 78 72 60 58 58 63 69 77 76 78 81 81 75 70 67 68 68 65
98 97 95 85 72 73 74 79 84 84 83 86 93 94 94 91 96 92 91 95 81 74 64 67 72 72 55 50 48 52 62 72 74 72 80 85 87 74 72 66 64 72 68
97 98 98 94 92 88 88 89 89 87 81 78 83 97 93 100 98 95 94 77 71 66 60 56 62 57 54 55 77 84 89 85 86 90 85 82 92 79 74 72 72 75 72
98 97 97 95 95 93 90 89 87 82 75 80 78 87 94 97 94 96 95 88 78 62 57 54 54 57 63 71 89 93 91 90 84 76 88 92 93 85 78 77 76 72 64
97 98 96 96 90 89 88 87 83 74 70 71 72 92 90 80 79 81 82 87 80 68 76 63 67 80 87 87 75 86 78 86 85 86 86 86 96 90 83 81 79 74 68
98 97 97 94 90 90 87 78 73 72 72 71 75 97 93 85 81 85 87 88 80 76 81 83 77 79 80 78 83 95 93 95 96 94 93 96 92 87 87 85 82 81 77
97 97 96 96 94 92 76 70 78 80 77 77 78 89 99 90 92 91 91 100 98 94 88 89 96 94 97 99 100 97 96 94 98 100 100 100 93 90 93 89 84 82 79
94 96 90 89 88 81 78 81 84 85 84 85 89 92 96 97 97 100 100 100 100 100 100 100 100 99 100 100 100 100 100 100 100 100 97 100 100 93 96 91 86 86 87
98 98 94 90 88 87 86 85 89 91 93 94 96 97 98 99 100 100 100 100 100 100 100 97 100 100 67 66 96 97 100 64 61 77 90 100 100 100 100 98 96 93 89
100 100 99 95 94 93 93 91 93 96 98 98 99 99 100 100 100 100 100 100 100 100 100 84 95 77 92 86 85 76 64 61 65 62 72 100 100 100 100 100 99 96 91